<?xml version="1.0" encoding="UTF-8" standalone="no" ?>
<gpx xmlns="http://www.topografix.com/GPX/1/1" xmlns:xsi="http://www.w3.org/2001/XMLSchema-instance" xsi:schemaLocation="http://www.topografix.com/GPX/1/1 http://www.topografix.com/GPX/1/1/gpx.xsd" version="1.1" creator="VisuGPX - https://www.visugpx.com">
  <metadata>
    <name>20230314 Auzouville sur ry</name>
    <desc><![CDATA[Circuit au d�part d'Auzouville sur Ry avec passage par Ry]]></desc>
  </metadata>
  <trk>
    <name><![CDATA[SityTrail - 20230314 Auzouville sur ry]]></name>
    <trkseg>
      <trkpt lat="49.44266" lon="1.31064">
        <ele>146</ele>
        <time>2023-03-14T12:46:34.291Z</time>
      </trkpt>
      <trkpt lat="49.44266" lon="1.31064">
        <ele>146</ele>
        <time>2023-03-14T12:47:22.304Z</time>
      </trkpt>
      <trkpt lat="49.44266" lon="1.31064">
        <ele>146</ele>
        <time>2023-03-14T12:47:27.293Z</time>
      </trkpt>
      <trkpt lat="49.44265" lon="1.31064">
        <ele>146</ele>
        <time>2023-03-14T12:47:31.623Z</time>
      </trkpt>
      <trkpt lat="49.44262" lon="1.31059">
        <ele>145</ele>
        <time>2023-03-14T12:47:35.792Z</time>
      </trkpt>
      <trkpt lat="49.44258" lon="1.31053">
        <ele>145</ele>
        <time>2023-03-14T12:47:40.437Z</time>
      </trkpt>
      <trkpt lat="49.44255" lon="1.31058">
        <ele>145</ele>
        <time>2023-03-14T12:51:47.442Z</time>
      </trkpt>
      <trkpt lat="49.44256" lon="1.31063">
        <ele>145</ele>
        <time>2023-03-14T12:51:51.878Z</time>
      </trkpt>
      <trkpt lat="49.44262" lon="1.31069">
        <ele>145</ele>
        <time>2023-03-14T12:51:55.809Z</time>
      </trkpt>
      <trkpt lat="49.44269" lon="1.31072">
        <ele>146</ele>
        <time>2023-03-14T12:52:00.812Z</time>
      </trkpt>
      <trkpt lat="49.44276" lon="1.31075">
        <ele>146</ele>
        <time>2023-03-14T12:52:05.438Z</time>
      </trkpt>
      <trkpt lat="49.44282" lon="1.31078">
        <ele>146</ele>
        <time>2023-03-14T12:52:09.864Z</time>
      </trkpt>
      <trkpt lat="49.44288" lon="1.31079">
        <ele>146</ele>
        <time>2023-03-14T12:52:14.224Z</time>
      </trkpt>
      <trkpt lat="49.44294" lon="1.3108">
        <ele>147</ele>
        <time>2023-03-14T12:52:19.119Z</time>
      </trkpt>
      <trkpt lat="49.44299" lon="1.31083">
        <ele>147</ele>
        <time>2023-03-14T12:52:23.204Z</time>
      </trkpt>
      <trkpt lat="49.44306" lon="1.31083">
        <ele>147</ele>
        <time>2023-03-14T12:52:27.742Z</time>
      </trkpt>
      <trkpt lat="49.4431" lon="1.31086">
        <ele>147</ele>
        <time>2023-03-14T12:52:31.542Z</time>
      </trkpt>
      <trkpt lat="49.44315" lon="1.31088">
        <ele>147</ele>
        <time>2023-03-14T12:52:36.155Z</time>
      </trkpt>
      <trkpt lat="49.4432" lon="1.3109">
        <ele>146</ele>
        <time>2023-03-14T12:52:40.237Z</time>
      </trkpt>
      <trkpt lat="49.44322" lon="1.31094">
        <ele>146</ele>
        <time>2023-03-14T12:52:44.406Z</time>
      </trkpt>
      <trkpt lat="49.44328" lon="1.31096">
        <ele>146</ele>
        <time>2023-03-14T12:52:48.961Z</time>
      </trkpt>
      <trkpt lat="49.44333" lon="1.31099">
        <ele>146</ele>
        <time>2023-03-14T12:52:53.414Z</time>
      </trkpt>
      <trkpt lat="49.44337" lon="1.31103">
        <ele>146</ele>
        <time>2023-03-14T12:52:57.866Z</time>
      </trkpt>
      <trkpt lat="49.44341" lon="1.31109">
        <ele>146</ele>
        <time>2023-03-14T12:53:02.407Z</time>
      </trkpt>
      <trkpt lat="49.44345" lon="1.31114">
        <ele>146</ele>
        <time>2023-03-14T12:53:06.918Z</time>
      </trkpt>
      <trkpt lat="49.44351" lon="1.31117">
        <ele>144</ele>
        <time>2023-03-14T12:53:11.301Z</time>
      </trkpt>
      <trkpt lat="49.44356" lon="1.3112">
        <ele>144</ele>
        <time>2023-03-14T12:53:15.298Z</time>
      </trkpt>
      <trkpt lat="49.44362" lon="1.31124">
        <ele>144</ele>
        <time>2023-03-14T12:53:19.782Z</time>
      </trkpt>
      <trkpt lat="49.44369" lon="1.31126">
        <ele>144</ele>
        <time>2023-03-14T12:53:24.438Z</time>
      </trkpt>
      <trkpt lat="49.44375" lon="1.31127">
        <ele>144</ele>
        <time>2023-03-14T12:53:28.954Z</time>
      </trkpt>
      <trkpt lat="49.44381" lon="1.31125">
        <ele>143</ele>
        <time>2023-03-14T12:53:33.442Z</time>
      </trkpt>
      <trkpt lat="49.44386" lon="1.31122">
        <ele>143</ele>
        <time>2023-03-14T12:53:37.970Z</time>
      </trkpt>
      <trkpt lat="49.44391" lon="1.31123">
        <ele>143</ele>
        <time>2023-03-14T12:53:42.393Z</time>
      </trkpt>
      <trkpt lat="49.44397" lon="1.31122">
        <ele>143</ele>
        <time>2023-03-14T12:53:46.820Z</time>
      </trkpt>
      <trkpt lat="49.44402" lon="1.31123">
        <ele>143</ele>
        <time>2023-03-14T12:53:50.982Z</time>
      </trkpt>
      <trkpt lat="49.44407" lon="1.31124">
        <ele>143</ele>
        <time>2023-03-14T12:53:55.039Z</time>
      </trkpt>
      <trkpt lat="49.44412" lon="1.31125">
        <ele>143</ele>
        <time>2023-03-14T12:53:59.565Z</time>
      </trkpt>
      <trkpt lat="49.44418" lon="1.31127">
        <ele>143</ele>
        <time>2023-03-14T12:54:04.210Z</time>
      </trkpt>
      <trkpt lat="49.44423" lon="1.3113">
        <ele>143</ele>
        <time>2023-03-14T12:54:08.701Z</time>
      </trkpt>
      <trkpt lat="49.44429" lon="1.31128">
        <ele>143</ele>
        <time>2023-03-14T12:54:13.231Z</time>
      </trkpt>
      <trkpt lat="49.44434" lon="1.31129">
        <ele>143</ele>
        <time>2023-03-14T12:54:17.670Z</time>
      </trkpt>
      <trkpt lat="49.44439" lon="1.31131">
        <ele>143</ele>
        <time>2023-03-14T12:54:21.839Z</time>
      </trkpt>
      <trkpt lat="49.44444" lon="1.31138">
        <ele>143</ele>
        <time>2023-03-14T12:54:26.603Z</time>
      </trkpt>
      <trkpt lat="49.44449" lon="1.31141">
        <ele>143</ele>
        <time>2023-03-14T12:54:31.198Z</time>
      </trkpt>
      <trkpt lat="49.44453" lon="1.31148">
        <ele>143</ele>
        <time>2023-03-14T12:54:35.713Z</time>
      </trkpt>
      <trkpt lat="49.44457" lon="1.31154">
        <ele>140</ele>
        <time>2023-03-14T12:54:39.712Z</time>
      </trkpt>
      <trkpt lat="49.44461" lon="1.31157">
        <ele>136</ele>
        <time>2023-03-14T12:54:44.113Z</time>
      </trkpt>
      <trkpt lat="49.44466" lon="1.3116">
        <ele>136</ele>
        <time>2023-03-14T12:54:48.634Z</time>
      </trkpt>
      <trkpt lat="49.44471" lon="1.31162">
        <ele>136</ele>
        <time>2023-03-14T12:54:53.046Z</time>
      </trkpt>
      <trkpt lat="49.44476" lon="1.31165">
        <ele>136</ele>
        <time>2023-03-14T12:54:57.534Z</time>
      </trkpt>
      <trkpt lat="49.44482" lon="1.31169">
        <ele>136</ele>
        <time>2023-03-14T12:55:01.979Z</time>
      </trkpt>
      <trkpt lat="49.44487" lon="1.31174">
        <ele>130</ele>
        <time>2023-03-14T12:55:06.442Z</time>
      </trkpt>
      <trkpt lat="49.44492" lon="1.31178">
        <ele>130</ele>
        <time>2023-03-14T12:55:10.927Z</time>
      </trkpt>
      <trkpt lat="49.44497" lon="1.31181">
        <ele>127</ele>
        <time>2023-03-14T12:55:15.320Z</time>
      </trkpt>
      <trkpt lat="49.44502" lon="1.31185">
        <ele>127</ele>
        <time>2023-03-14T12:55:19.846Z</time>
      </trkpt>
      <trkpt lat="49.44507" lon="1.31189">
        <ele>127</ele>
        <time>2023-03-14T12:55:24.299Z</time>
      </trkpt>
      <trkpt lat="49.44512" lon="1.31193">
        <ele>127</ele>
        <time>2023-03-14T12:55:28.762Z</time>
      </trkpt>
      <trkpt lat="49.44517" lon="1.31197">
        <ele>125</ele>
        <time>2023-03-14T12:55:33.231Z</time>
      </trkpt>
      <trkpt lat="49.44523" lon="1.31201">
        <ele>125</ele>
        <time>2023-03-14T12:55:37.708Z</time>
      </trkpt>
      <trkpt lat="49.44528" lon="1.31204">
        <ele>125</ele>
        <time>2023-03-14T12:55:42.120Z</time>
      </trkpt>
      <trkpt lat="49.44534" lon="1.31207">
        <ele>125</ele>
        <time>2023-03-14T12:55:46.580Z</time>
      </trkpt>
      <trkpt lat="49.44539" lon="1.31212">
        <ele>124</ele>
        <time>2023-03-14T12:55:50.993Z</time>
      </trkpt>
      <trkpt lat="49.44545" lon="1.31216">
        <ele>123</ele>
        <time>2023-03-14T12:55:55.458Z</time>
      </trkpt>
      <trkpt lat="49.4455" lon="1.3122">
        <ele>123</ele>
        <time>2023-03-14T12:55:59.868Z</time>
      </trkpt>
      <trkpt lat="49.44556" lon="1.31223">
        <ele>123</ele>
        <time>2023-03-14T12:56:03.917Z</time>
      </trkpt>
      <trkpt lat="49.44561" lon="1.31227">
        <ele>123</ele>
        <time>2023-03-14T12:56:08.494Z</time>
      </trkpt>
      <trkpt lat="49.44566" lon="1.31231">
        <ele>123</ele>
        <time>2023-03-14T12:56:12.851Z</time>
      </trkpt>
      <trkpt lat="49.44572" lon="1.31235">
        <ele>122</ele>
        <time>2023-03-14T12:56:17.301Z</time>
      </trkpt>
      <trkpt lat="49.44577" lon="1.31239">
        <ele>122</ele>
        <time>2023-03-14T12:56:21.784Z</time>
      </trkpt>
      <trkpt lat="49.44582" lon="1.31243">
        <ele>122</ele>
        <time>2023-03-14T12:56:26.429Z</time>
      </trkpt>
      <trkpt lat="49.44588" lon="1.31247">
        <ele>122</ele>
        <time>2023-03-14T12:56:30.956Z</time>
      </trkpt>
      <trkpt lat="49.44593" lon="1.3125">
        <ele>122</ele>
        <time>2023-03-14T12:56:35.442Z</time>
      </trkpt>
      <trkpt lat="49.44597" lon="1.31253">
        <ele>124</ele>
        <time>2023-03-14T12:56:39.413Z</time>
      </trkpt>
      <trkpt lat="49.44603" lon="1.31256">
        <ele>124</ele>
        <time>2023-03-14T12:56:43.582Z</time>
      </trkpt>
      <trkpt lat="49.44609" lon="1.31258">
        <ele>124</ele>
        <time>2023-03-14T12:56:48.227Z</time>
      </trkpt>
      <trkpt lat="49.44615" lon="1.3126">
        <ele>124</ele>
        <time>2023-03-14T12:56:52.753Z</time>
      </trkpt>
      <trkpt lat="49.44621" lon="1.31261">
        <ele>124</ele>
        <time>2023-03-14T12:56:57.279Z</time>
      </trkpt>
      <trkpt lat="49.44626" lon="1.3126">
        <ele>125</ele>
        <time>2023-03-14T12:57:01.806Z</time>
      </trkpt>
      <trkpt lat="49.44632" lon="1.31259">
        <ele>125</ele>
        <time>2023-03-14T12:57:06.303Z</time>
      </trkpt>
      <trkpt lat="49.44638" lon="1.31259">
        <ele>125</ele>
        <time>2023-03-14T12:57:10.858Z</time>
      </trkpt>
      <trkpt lat="49.44645" lon="1.31259">
        <ele>125</ele>
        <time>2023-03-14T12:57:15.442Z</time>
      </trkpt>
      <trkpt lat="49.44651" lon="1.31259">
        <ele>125</ele>
        <time>2023-03-14T12:57:19.792Z</time>
      </trkpt>
      <trkpt lat="49.44656" lon="1.31261">
        <ele>125</ele>
        <time>2023-03-14T12:57:24.438Z</time>
      </trkpt>
      <trkpt lat="49.44662" lon="1.31262">
        <ele>125</ele>
        <time>2023-03-14T12:57:28.844Z</time>
      </trkpt>
      <trkpt lat="49.44664" lon="1.31265">
        <ele>127</ele>
        <time>2023-03-14T12:57:33.013Z</time>
      </trkpt>
      <trkpt lat="49.44671" lon="1.31263">
        <ele>125</ele>
        <time>2023-03-14T12:57:37.420Z</time>
      </trkpt>
      <trkpt lat="49.44676" lon="1.31263">
        <ele>125</ele>
        <time>2023-03-14T12:57:41.589Z</time>
      </trkpt>
      <trkpt lat="49.44682" lon="1.31264">
        <ele>126</ele>
        <time>2023-03-14T12:57:46.234Z</time>
      </trkpt>
      <trkpt lat="49.44688" lon="1.31266">
        <ele>129</ele>
        <time>2023-03-14T12:57:50.761Z</time>
      </trkpt>
      <trkpt lat="49.44693" lon="1.31267">
        <ele>129</ele>
        <time>2023-03-14T12:57:55.382Z</time>
      </trkpt>
      <trkpt lat="49.44699" lon="1.31269">
        <ele>129</ele>
        <time>2023-03-14T12:57:59.813Z</time>
      </trkpt>
      <trkpt lat="49.44704" lon="1.3127">
        <ele>129</ele>
        <time>2023-03-14T12:58:04.296Z</time>
      </trkpt>
      <trkpt lat="49.4471" lon="1.31272">
        <ele>128</ele>
        <time>2023-03-14T12:58:08.865Z</time>
      </trkpt>
      <trkpt lat="49.44715" lon="1.31274">
        <ele>128</ele>
        <time>2023-03-14T12:58:13.298Z</time>
      </trkpt>
      <trkpt lat="49.44721" lon="1.31276">
        <ele>128</ele>
        <time>2023-03-14T12:58:17.799Z</time>
      </trkpt>
      <trkpt lat="49.44726" lon="1.31278">
        <ele>128</ele>
        <time>2023-03-14T12:58:22.442Z</time>
      </trkpt>
      <trkpt lat="49.44731" lon="1.3128">
        <ele>128</ele>
        <time>2023-03-14T12:58:26.442Z</time>
      </trkpt>
      <trkpt lat="49.44736" lon="1.31282">
        <ele>126</ele>
        <time>2023-03-14T12:58:31.020Z</time>
      </trkpt>
      <trkpt lat="49.44742" lon="1.31283">
        <ele>126</ele>
        <time>2023-03-14T12:58:35.535Z</time>
      </trkpt>
      <trkpt lat="49.44747" lon="1.31284">
        <ele>126</ele>
        <time>2023-03-14T12:58:39.578Z</time>
      </trkpt>
      <trkpt lat="49.44753" lon="1.31286">
        <ele>126</ele>
        <time>2023-03-14T12:58:44.003Z</time>
      </trkpt>
      <trkpt lat="49.44758" lon="1.31288">
        <ele>126</ele>
        <time>2023-03-14T12:58:48.053Z</time>
      </trkpt>
      <trkpt lat="49.44764" lon="1.31289">
        <ele>126</ele>
        <time>2023-03-14T12:58:52.699Z</time>
      </trkpt>
      <trkpt lat="49.44769" lon="1.3129">
        <ele>126</ele>
        <time>2023-03-14T12:58:56.748Z</time>
      </trkpt>
      <trkpt lat="49.44774" lon="1.31292">
        <ele>128</ele>
        <time>2023-03-14T12:59:01.275Z</time>
      </trkpt>
      <trkpt lat="49.44779" lon="1.31294">
        <ele>128</ele>
        <time>2023-03-14T12:59:05.288Z</time>
      </trkpt>
      <trkpt lat="49.44785" lon="1.31297">
        <ele>128</ele>
        <time>2023-03-14T12:59:09.851Z</time>
      </trkpt>
      <trkpt lat="49.4479" lon="1.31298">
        <ele>128</ele>
        <time>2023-03-14T12:59:13.900Z</time>
      </trkpt>
      <trkpt lat="49.44795" lon="1.31301">
        <ele>127</ele>
        <time>2023-03-14T12:59:18.427Z</time>
      </trkpt>
      <trkpt lat="49.448" lon="1.31304">
        <ele>127</ele>
        <time>2023-03-14T12:59:22.442Z</time>
      </trkpt>
      <trkpt lat="49.44805" lon="1.31306">
        <ele>127</ele>
        <time>2023-03-14T12:59:26.407Z</time>
      </trkpt>
      <trkpt lat="49.44811" lon="1.31308">
        <ele>127</ele>
        <time>2023-03-14T12:59:31.052Z</time>
      </trkpt>
      <trkpt lat="49.44816" lon="1.31312">
        <ele>127</ele>
        <time>2023-03-14T12:59:35.102Z</time>
      </trkpt>
      <trkpt lat="49.44821" lon="1.31316">
        <ele>126</ele>
        <time>2023-03-14T12:59:39.628Z</time>
      </trkpt>
      <trkpt lat="49.44825" lon="1.3132">
        <ele>128</ele>
        <time>2023-03-14T12:59:43.678Z</time>
      </trkpt>
      <trkpt lat="49.44831" lon="1.31322">
        <ele>128</ele>
        <time>2023-03-14T12:59:48.205Z</time>
      </trkpt>
      <trkpt lat="49.44837" lon="1.31323">
        <ele>128</ele>
        <time>2023-03-14T12:59:52.850Z</time>
      </trkpt>
      <trkpt lat="49.44842" lon="1.31325">
        <ele>128</ele>
        <time>2023-03-14T12:59:57.376Z</time>
      </trkpt>
      <trkpt lat="49.44847" lon="1.31327">
        <ele>129</ele>
        <time>2023-03-14T13:00:02.021Z</time>
      </trkpt>
      <trkpt lat="49.44852" lon="1.31329">
        <ele>129</ele>
        <time>2023-03-14T13:00:06.144Z</time>
      </trkpt>
      <trkpt lat="49.44857" lon="1.31331">
        <ele>129</ele>
        <time>2023-03-14T13:00:10.240Z</time>
      </trkpt>
      <trkpt lat="49.44861" lon="1.31334">
        <ele>129</ele>
        <time>2023-03-14T13:00:14.766Z</time>
      </trkpt>
      <trkpt lat="49.44865" lon="1.31336">
        <ele>129</ele>
        <time>2023-03-14T13:00:18.816Z</time>
      </trkpt>
      <trkpt lat="49.44869" lon="1.31339">
        <ele>129</ele>
        <time>2023-03-14T13:00:22.866Z</time>
      </trkpt>
      <trkpt lat="49.44874" lon="1.3134">
        <ele>129</ele>
        <time>2023-03-14T13:00:27.035Z</time>
      </trkpt>
      <trkpt lat="49.44879" lon="1.31342">
        <ele>130</ele>
        <time>2023-03-14T13:00:30.966Z</time>
      </trkpt>
      <trkpt lat="49.44883" lon="1.31345">
        <ele>130</ele>
        <time>2023-03-14T13:00:35.015Z</time>
      </trkpt>
      <trkpt lat="49.44887" lon="1.31348">
        <ele>132</ele>
        <time>2023-03-14T13:00:39.184Z</time>
      </trkpt>
      <trkpt lat="49.44893" lon="1.3135">
        <ele>132</ele>
        <time>2023-03-14T13:00:43.830Z</time>
      </trkpt>
      <trkpt lat="49.44897" lon="1.31352">
        <ele>132</ele>
        <time>2023-03-14T13:00:47.999Z</time>
      </trkpt>
      <trkpt lat="49.44902" lon="1.31353">
        <ele>132</ele>
        <time>2023-03-14T13:00:52.406Z</time>
      </trkpt>
      <trkpt lat="49.44914" lon="1.31354">
        <ele>134</ele>
        <time>2023-03-14T13:01:25.302Z</time>
      </trkpt>
      <trkpt lat="49.44915" lon="1.31354">
        <ele>134</ele>
        <time>2023-03-14T13:01:30.292Z</time>
      </trkpt>
      <trkpt lat="49.44918" lon="1.31352">
        <ele>134</ele>
        <time>2023-03-14T13:01:34.442Z</time>
      </trkpt>
      <trkpt lat="49.44923" lon="1.31347">
        <ele>131</ele>
        <time>2023-03-14T13:01:38.621Z</time>
      </trkpt>
      <trkpt lat="49.44929" lon="1.31344">
        <ele>131</ele>
        <time>2023-03-14T13:01:42.790Z</time>
      </trkpt>
      <trkpt lat="49.4493" lon="1.31346">
        <ele>131</ele>
        <time>2023-03-14T13:01:46.840Z</time>
      </trkpt>
      <trkpt lat="49.44932" lon="1.31343">
        <ele>131</ele>
        <time>2023-03-14T13:01:51.604Z</time>
      </trkpt>
      <trkpt lat="49.44937" lon="1.31338">
        <ele>131</ele>
        <time>2023-03-14T13:01:56.249Z</time>
      </trkpt>
      <trkpt lat="49.44941" lon="1.31333">
        <ele>131</ele>
        <time>2023-03-14T13:02:00.418Z</time>
      </trkpt>
      <trkpt lat="49.44944" lon="1.31328">
        <ele>131</ele>
        <time>2023-03-14T13:02:04.587Z</time>
      </trkpt>
      <trkpt lat="49.44948" lon="1.31324">
        <ele>131</ele>
        <time>2023-03-14T13:02:08.637Z</time>
      </trkpt>
      <trkpt lat="49.44953" lon="1.31319">
        <ele>129</ele>
        <time>2023-03-14T13:02:12.806Z</time>
      </trkpt>
      <trkpt lat="49.44958" lon="1.31315">
        <ele>129</ele>
        <time>2023-03-14T13:02:16.856Z</time>
      </trkpt>
      <trkpt lat="49.44963" lon="1.31312">
        <ele>129</ele>
        <time>2023-03-14T13:02:21.620Z</time>
      </trkpt>
      <trkpt lat="49.44967" lon="1.31309">
        <ele>129</ele>
        <time>2023-03-14T13:02:25.789Z</time>
      </trkpt>
      <trkpt lat="49.44971" lon="1.31304">
        <ele>129</ele>
        <time>2023-03-14T13:02:29.839Z</time>
      </trkpt>
      <trkpt lat="49.44975" lon="1.31301">
        <ele>129</ele>
        <time>2023-03-14T13:02:34.603Z</time>
      </trkpt>
      <trkpt lat="49.44986" lon="1.31292">
        <ele>129</ele>
        <time>2023-03-14T13:03:38.294Z</time>
      </trkpt>
      <trkpt lat="49.44986" lon="1.31292">
        <ele>129</ele>
        <time>2023-03-14T13:03:43.299Z</time>
      </trkpt>
      <trkpt lat="49.44988" lon="1.31291">
        <ele>130</ele>
        <time>2023-03-14T13:03:48.302Z</time>
      </trkpt>
      <trkpt lat="49.44991" lon="1.31288">
        <ele>130</ele>
        <time>2023-03-14T13:03:52.299Z</time>
      </trkpt>
      <trkpt lat="49.44994" lon="1.31286">
        <ele>130</ele>
        <time>2023-03-14T13:03:56.829Z</time>
      </trkpt>
      <trkpt lat="49.44998" lon="1.31281">
        <ele>130</ele>
        <time>2023-03-14T13:04:01.442Z</time>
      </trkpt>
      <trkpt lat="49.45002" lon="1.31277">
        <ele>130</ele>
        <time>2023-03-14T13:04:05.981Z</time>
      </trkpt>
      <trkpt lat="49.45006" lon="1.31273">
        <ele>130</ele>
        <time>2023-03-14T13:04:10.051Z</time>
      </trkpt>
      <trkpt lat="49.4501" lon="1.31269">
        <ele>130</ele>
        <time>2023-03-14T13:04:14.815Z</time>
      </trkpt>
      <trkpt lat="49.45014" lon="1.31266">
        <ele>130</ele>
        <time>2023-03-14T13:04:18.973Z</time>
      </trkpt>
      <trkpt lat="49.45016" lon="1.31264">
        <ele>132</ele>
        <time>2023-03-14T13:04:23.034Z</time>
      </trkpt>
      <trkpt lat="49.45019" lon="1.31258">
        <ele>132</ele>
        <time>2023-03-14T13:04:27.202Z</time>
      </trkpt>
      <trkpt lat="49.45021" lon="1.31253">
        <ele>132</ele>
        <time>2023-03-14T13:04:31.291Z</time>
      </trkpt>
      <trkpt lat="49.45025" lon="1.31249">
        <ele>132</ele>
        <time>2023-03-14T13:04:35.421Z</time>
      </trkpt>
      <trkpt lat="49.45029" lon="1.31244">
        <ele>132</ele>
        <time>2023-03-14T13:04:40.066Z</time>
      </trkpt>
      <trkpt lat="49.45032" lon="1.3124">
        <ele>132</ele>
        <time>2023-03-14T13:04:44.235Z</time>
      </trkpt>
      <trkpt lat="49.45035" lon="1.31235">
        <ele>131</ele>
        <time>2023-03-14T13:04:48.166Z</time>
      </trkpt>
      <trkpt lat="49.45038" lon="1.3123">
        <ele>131</ele>
        <time>2023-03-14T13:04:52.573Z</time>
      </trkpt>
      <trkpt lat="49.45041" lon="1.31225">
        <ele>131</ele>
        <time>2023-03-14T13:04:56.980Z</time>
      </trkpt>
      <trkpt lat="49.45045" lon="1.3122">
        <ele>133</ele>
        <time>2023-03-14T13:05:01.625Z</time>
      </trkpt>
      <trkpt lat="49.45049" lon="1.31214">
        <ele>133</ele>
        <time>2023-03-14T13:05:06.271Z</time>
      </trkpt>
      <trkpt lat="49.45052" lon="1.31209">
        <ele>133</ele>
        <time>2023-03-14T13:05:10.381Z</time>
      </trkpt>
      <trkpt lat="49.45055" lon="1.31202">
        <ele>131</ele>
        <time>2023-03-14T13:05:14.819Z</time>
      </trkpt>
      <trkpt lat="49.45057" lon="1.31196">
        <ele>131</ele>
        <time>2023-03-14T13:05:19.254Z</time>
      </trkpt>
      <trkpt lat="49.45059" lon="1.31189">
        <ele>131</ele>
        <time>2023-03-14T13:05:22.827Z</time>
      </trkpt>
      <trkpt lat="49.45061" lon="1.31182">
        <ele>131</ele>
        <time>2023-03-14T13:05:26.996Z</time>
      </trkpt>
      <trkpt lat="49.45062" lon="1.31174">
        <ele>131</ele>
        <time>2023-03-14T13:05:31.641Z</time>
      </trkpt>
      <trkpt lat="49.45064" lon="1.31166">
        <ele>131</ele>
        <time>2023-03-14T13:05:35.810Z</time>
      </trkpt>
      <trkpt lat="49.45065" lon="1.31158">
        <ele>131</ele>
        <time>2023-03-14T13:05:40.442Z</time>
      </trkpt>
      <trkpt lat="49.45067" lon="1.3115">
        <ele>131</ele>
        <time>2023-03-14T13:05:45.220Z</time>
      </trkpt>
      <trkpt lat="49.45067" lon="1.31142">
        <ele>131</ele>
        <time>2023-03-14T13:05:49.865Z</time>
      </trkpt>
      <trkpt lat="49.45069" lon="1.31136">
        <ele>131</ele>
        <time>2023-03-14T13:05:54.034Z</time>
      </trkpt>
      <trkpt lat="49.4507" lon="1.31128">
        <ele>133</ele>
        <time>2023-03-14T13:05:58.560Z</time>
      </trkpt>
      <trkpt lat="49.45072" lon="1.31123">
        <ele>133</ele>
        <time>2023-03-14T13:06:02.610Z</time>
      </trkpt>
      <trkpt lat="49.45074" lon="1.31117">
        <ele>133</ele>
        <time>2023-03-14T13:06:07.255Z</time>
      </trkpt>
      <trkpt lat="49.45076" lon="1.31111">
        <ele>133</ele>
        <time>2023-03-14T13:06:11.333Z</time>
      </trkpt>
      <trkpt lat="49.45078" lon="1.31104">
        <ele>133</ele>
        <time>2023-03-14T13:06:15.831Z</time>
      </trkpt>
      <trkpt lat="49.45078" lon="1.31098">
        <ele>133</ele>
        <time>2023-03-14T13:06:19.881Z</time>
      </trkpt>
      <trkpt lat="49.4508" lon="1.3109">
        <ele>132</ele>
        <time>2023-03-14T13:06:24.407Z</time>
      </trkpt>
      <trkpt lat="49.4508" lon="1.31082">
        <ele>132</ele>
        <time>2023-03-14T13:06:29.052Z</time>
      </trkpt>
      <trkpt lat="49.45081" lon="1.31074">
        <ele>132</ele>
        <time>2023-03-14T13:06:34.174Z</time>
      </trkpt>
      <trkpt lat="49.45084" lon="1.31068">
        <ele>132</ele>
        <time>2023-03-14T13:06:38.819Z</time>
      </trkpt>
      <trkpt lat="49.45084" lon="1.31061">
        <ele>132</ele>
        <time>2023-03-14T13:06:43.442Z</time>
      </trkpt>
      <trkpt lat="49.45086" lon="1.31055">
        <ele>132</ele>
        <time>2023-03-14T13:06:47.442Z</time>
      </trkpt>
      <trkpt lat="49.45089" lon="1.31048">
        <ele>132</ele>
        <time>2023-03-14T13:06:52.041Z</time>
      </trkpt>
      <trkpt lat="49.45089" lon="1.31041">
        <ele>133</ele>
        <time>2023-03-14T13:06:56.533Z</time>
      </trkpt>
      <trkpt lat="49.4509" lon="1.31035">
        <ele>133</ele>
        <time>2023-03-14T13:07:00.442Z</time>
      </trkpt>
      <trkpt lat="49.45092" lon="1.31029">
        <ele>133</ele>
        <time>2023-03-14T13:07:04.428Z</time>
      </trkpt>
      <trkpt lat="49.45094" lon="1.31023">
        <ele>133</ele>
        <time>2023-03-14T13:07:09.176Z</time>
      </trkpt>
      <trkpt lat="49.45095" lon="1.31017">
        <ele>133</ele>
        <time>2023-03-14T13:07:13.242Z</time>
      </trkpt>
      <trkpt lat="49.45097" lon="1.31011">
        <ele>133</ele>
        <time>2023-03-14T13:07:17.411Z</time>
      </trkpt>
      <trkpt lat="49.45098" lon="1.31004">
        <ele>134</ele>
        <time>2023-03-14T13:07:22.056Z</time>
      </trkpt>
      <trkpt lat="49.45099" lon="1.30997">
        <ele>134</ele>
        <time>2023-03-14T13:07:26.821Z</time>
      </trkpt>
      <trkpt lat="49.451" lon="1.30991">
        <ele>134</ele>
        <time>2023-03-14T13:07:30.870Z</time>
      </trkpt>
      <trkpt lat="49.45101" lon="1.30985">
        <ele>133</ele>
        <time>2023-03-14T13:07:34.801Z</time>
      </trkpt>
      <trkpt lat="49.45104" lon="1.30978">
        <ele>133</ele>
        <time>2023-03-14T13:07:39.442Z</time>
      </trkpt>
      <trkpt lat="49.45105" lon="1.30971">
        <ele>133</ele>
        <time>2023-03-14T13:07:44.223Z</time>
      </trkpt>
      <trkpt lat="49.45107" lon="1.30965">
        <ele>133</ele>
        <time>2023-03-14T13:07:48.291Z</time>
      </trkpt>
      <trkpt lat="49.45109" lon="1.30959">
        <ele>133</ele>
        <time>2023-03-14T13:07:51.834Z</time>
      </trkpt>
      <trkpt lat="49.4511" lon="1.30952">
        <ele>133</ele>
        <time>2023-03-14T13:07:56.442Z</time>
      </trkpt>
      <trkpt lat="49.45113" lon="1.30946">
        <ele>133</ele>
        <time>2023-03-14T13:08:00.886Z</time>
      </trkpt>
      <trkpt lat="49.45115" lon="1.30941">
        <ele>133</ele>
        <time>2023-03-14T13:08:04.817Z</time>
      </trkpt>
      <trkpt lat="49.45116" lon="1.30934">
        <ele>133</ele>
        <time>2023-03-14T13:08:09.299Z</time>
      </trkpt>
      <trkpt lat="49.45118" lon="1.30927">
        <ele>133</ele>
        <time>2023-03-14T13:08:13.869Z</time>
      </trkpt>
      <trkpt lat="49.4512" lon="1.3092">
        <ele>133</ele>
        <time>2023-03-14T13:08:18.514Z</time>
      </trkpt>
      <trkpt lat="49.45121" lon="1.30914">
        <ele>133</ele>
        <time>2023-03-14T13:08:22.564Z</time>
      </trkpt>
      <trkpt lat="49.45123" lon="1.30908">
        <ele>133</ele>
        <time>2023-03-14T13:08:26.614Z</time>
      </trkpt>
      <trkpt lat="49.45124" lon="1.30901">
        <ele>133</ele>
        <time>2023-03-14T13:08:31.292Z</time>
      </trkpt>
      <trkpt lat="49.45125" lon="1.30893">
        <ele>134</ele>
        <time>2023-03-14T13:08:35.428Z</time>
      </trkpt>
      <trkpt lat="49.45126" lon="1.30887">
        <ele>134</ele>
        <time>2023-03-14T13:08:39.442Z</time>
      </trkpt>
      <trkpt lat="49.45127" lon="1.30881">
        <ele>134</ele>
        <time>2023-03-14T13:08:44.004Z</time>
      </trkpt>
      <trkpt lat="49.45129" lon="1.30875">
        <ele>134</ele>
        <time>2023-03-14T13:08:48.053Z</time>
      </trkpt>
      <trkpt lat="49.4513" lon="1.30869">
        <ele>133</ele>
        <time>2023-03-14T13:08:52.442Z</time>
      </trkpt>
      <trkpt lat="49.45131" lon="1.30863">
        <ele>133</ele>
        <time>2023-03-14T13:08:56.629Z</time>
      </trkpt>
      <trkpt lat="49.45132" lon="1.30857">
        <ele>133</ele>
        <time>2023-03-14T13:09:00.560Z</time>
      </trkpt>
      <trkpt lat="49.45134" lon="1.30852">
        <ele>133</ele>
        <time>2023-03-14T13:09:05.086Z</time>
      </trkpt>
      <trkpt lat="49.45134" lon="1.30847">
        <ele>133</ele>
        <time>2023-03-14T13:09:09.612Z</time>
      </trkpt>
      <trkpt lat="49.45133" lon="1.30841">
        <ele>133</ele>
        <time>2023-03-14T13:09:13.781Z</time>
      </trkpt>
      <trkpt lat="49.45134" lon="1.30836">
        <ele>133</ele>
        <time>2023-03-14T13:09:17.831Z</time>
      </trkpt>
      <trkpt lat="49.45136" lon="1.30829">
        <ele>133</ele>
        <time>2023-03-14T13:09:22.442Z</time>
      </trkpt>
      <trkpt lat="49.45138" lon="1.30823">
        <ele>133</ele>
        <time>2023-03-14T13:09:27.002Z</time>
      </trkpt>
      <trkpt lat="49.45139" lon="1.30817">
        <ele>133</ele>
        <time>2023-03-14T13:09:31.052Z</time>
      </trkpt>
      <trkpt lat="49.45141" lon="1.30811">
        <ele>133</ele>
        <time>2023-03-14T13:09:35.813Z</time>
      </trkpt>
      <trkpt lat="49.45142" lon="1.30805">
        <ele>133</ele>
        <time>2023-03-14T13:09:39.866Z</time>
      </trkpt>
      <trkpt lat="49.45143" lon="1.30799">
        <ele>133</ele>
        <time>2023-03-14T13:09:44.302Z</time>
      </trkpt>
      <trkpt lat="49.45144" lon="1.30791">
        <ele>134</ele>
        <time>2023-03-14T13:09:48.799Z</time>
      </trkpt>
      <trkpt lat="49.45145" lon="1.30785">
        <ele>134</ele>
        <time>2023-03-14T13:09:53.302Z</time>
      </trkpt>
      <trkpt lat="49.45146" lon="1.30778">
        <ele>134</ele>
        <time>2023-03-14T13:09:57.852Z</time>
      </trkpt>
      <trkpt lat="49.45147" lon="1.30773">
        <ele>134</ele>
        <time>2023-03-14T13:10:01.901Z</time>
      </trkpt>
      <trkpt lat="49.45148" lon="1.30768">
        <ele>134</ele>
        <time>2023-03-14T13:10:05.832Z</time>
      </trkpt>
      <trkpt lat="49.45149" lon="1.30762">
        <ele>136</ele>
        <time>2023-03-14T13:10:10.577Z</time>
      </trkpt>
      <trkpt lat="49.45149" lon="1.30756">
        <ele>136</ele>
        <time>2023-03-14T13:10:14.612Z</time>
      </trkpt>
      <trkpt lat="49.45149" lon="1.30749">
        <ele>136</ele>
        <time>2023-03-14T13:10:19.053Z</time>
      </trkpt>
      <trkpt lat="49.45149" lon="1.30743">
        <ele>136</ele>
        <time>2023-03-14T13:10:22.983Z</time>
      </trkpt>
      <trkpt lat="49.4515" lon="1.30737">
        <ele>136</ele>
        <time>2023-03-14T13:10:27.629Z</time>
      </trkpt>
      <trkpt lat="49.4515" lon="1.30731">
        <ele>136</ele>
        <time>2023-03-14T13:10:31.798Z</time>
      </trkpt>
      <trkpt lat="49.45152" lon="1.30725">
        <ele>136</ele>
        <time>2023-03-14T13:10:36.442Z</time>
      </trkpt>
      <trkpt lat="49.45151" lon="1.30719">
        <ele>136</ele>
        <time>2023-03-14T13:10:40.969Z</time>
      </trkpt>
      <trkpt lat="49.45151" lon="1.30712">
        <ele>136</ele>
        <time>2023-03-14T13:10:45.019Z</time>
      </trkpt>
      <trkpt lat="49.45152" lon="1.30705">
        <ele>136</ele>
        <time>2023-03-14T13:10:49.068Z</time>
      </trkpt>
      <trkpt lat="49.45153" lon="1.30699">
        <ele>136</ele>
        <time>2023-03-14T13:10:53.237Z</time>
      </trkpt>
      <trkpt lat="49.45154" lon="1.30693">
        <ele>138</ele>
        <time>2023-03-14T13:10:57.292Z</time>
      </trkpt>
      <trkpt lat="49.45155" lon="1.30685">
        <ele>138</ele>
        <time>2023-03-14T13:11:02.040Z</time>
      </trkpt>
      <trkpt lat="49.45156" lon="1.30679">
        <ele>138</ele>
        <time>2023-03-14T13:11:06.220Z</time>
      </trkpt>
      <trkpt lat="49.45157" lon="1.30674">
        <ele>138</ele>
        <time>2023-03-14T13:11:10.303Z</time>
      </trkpt>
      <trkpt lat="49.45158" lon="1.30668">
        <ele>138</ele>
        <time>2023-03-14T13:11:14.438Z</time>
      </trkpt>
      <trkpt lat="49.4516" lon="1.30663">
        <ele>138</ele>
        <time>2023-03-14T13:11:18.607Z</time>
      </trkpt>
      <trkpt lat="49.45163" lon="1.30658">
        <ele>138</ele>
        <time>2023-03-14T13:11:23.301Z</time>
      </trkpt>
      <trkpt lat="49.45166" lon="1.30654">
        <ele>138</ele>
        <time>2023-03-14T13:11:27.659Z</time>
      </trkpt>
      <trkpt lat="49.45167" lon="1.30649">
        <ele>138</ele>
        <time>2023-03-14T13:11:31.828Z</time>
      </trkpt>
      <trkpt lat="49.45169" lon="1.30643">
        <ele>138</ele>
        <time>2023-03-14T13:11:36.306Z</time>
      </trkpt>
      <trkpt lat="49.45169" lon="1.30637">
        <ele>138</ele>
        <time>2023-03-14T13:11:40.404Z</time>
      </trkpt>
      <trkpt lat="49.45169" lon="1.3063">
        <ele>138</ele>
        <time>2023-03-14T13:11:45.049Z</time>
      </trkpt>
      <trkpt lat="49.45171" lon="1.30623">
        <ele>138</ele>
        <time>2023-03-14T13:11:49.218Z</time>
      </trkpt>
      <trkpt lat="49.45172" lon="1.30616">
        <ele>138</ele>
        <time>2023-03-14T13:11:53.863Z</time>
      </trkpt>
      <trkpt lat="49.45174" lon="1.3061">
        <ele>138</ele>
        <time>2023-03-14T13:11:58.508Z</time>
      </trkpt>
      <trkpt lat="49.45176" lon="1.30604">
        <ele>138</ele>
        <time>2023-03-14T13:12:02.558Z</time>
      </trkpt>
      <trkpt lat="49.45178" lon="1.30598">
        <ele>138</ele>
        <time>2023-03-14T13:12:07.203Z</time>
      </trkpt>
      <trkpt lat="49.45179" lon="1.30592">
        <ele>138</ele>
        <time>2023-03-14T13:12:11.253Z</time>
      </trkpt>
      <trkpt lat="49.45181" lon="1.30585">
        <ele>139</ele>
        <time>2023-03-14T13:12:15.422Z</time>
      </trkpt>
      <trkpt lat="49.45182" lon="1.30579">
        <ele>139</ele>
        <time>2023-03-14T13:12:20.113Z</time>
      </trkpt>
      <trkpt lat="49.45184" lon="1.30572">
        <ele>139</ele>
        <time>2023-03-14T13:12:24.117Z</time>
      </trkpt>
      <trkpt lat="49.45186" lon="1.30567">
        <ele>139</ele>
        <time>2023-03-14T13:12:28.166Z</time>
      </trkpt>
      <trkpt lat="49.45189" lon="1.3056">
        <ele>139</ele>
        <time>2023-03-14T13:12:32.812Z</time>
      </trkpt>
      <trkpt lat="49.45192" lon="1.30555">
        <ele>139</ele>
        <time>2023-03-14T13:12:36.861Z</time>
      </trkpt>
      <trkpt lat="49.45196" lon="1.30549">
        <ele>139</ele>
        <time>2023-03-14T13:12:41.268Z</time>
      </trkpt>
      <trkpt lat="49.452" lon="1.30544">
        <ele>139</ele>
        <time>2023-03-14T13:12:45.795Z</time>
      </trkpt>
      <trkpt lat="49.45203" lon="1.3054">
        <ele>138</ele>
        <time>2023-03-14T13:12:49.844Z</time>
      </trkpt>
      <trkpt lat="49.45206" lon="1.30536">
        <ele>138</ele>
        <time>2023-03-14T13:12:53.894Z</time>
      </trkpt>
      <trkpt lat="49.45208" lon="1.30532">
        <ele>138</ele>
        <time>2023-03-14T13:12:57.824Z</time>
      </trkpt>
      <trkpt lat="49.4521" lon="1.30528">
        <ele>141</ele>
        <time>2023-03-14T13:13:01.993Z</time>
      </trkpt>
      <trkpt lat="49.45212" lon="1.30523">
        <ele>141</ele>
        <time>2023-03-14T13:13:06.442Z</time>
      </trkpt>
      <trkpt lat="49.45215" lon="1.30521">
        <ele>141</ele>
        <time>2023-03-14T13:13:11.045Z</time>
      </trkpt>
      <trkpt lat="49.45218" lon="1.3052">
        <ele>141</ele>
        <time>2023-03-14T13:13:15.214Z</time>
      </trkpt>
      <trkpt lat="49.4522" lon="1.30519">
        <ele>141</ele>
        <time>2023-03-14T13:13:19.740Z</time>
      </trkpt>
      <trkpt lat="49.45223" lon="1.30516">
        <ele>141</ele>
        <time>2023-03-14T13:13:24.028Z</time>
      </trkpt>
      <trkpt lat="49.45226" lon="1.30511">
        <ele>140</ele>
        <time>2023-03-14T13:13:29.295Z</time>
      </trkpt>
      <trkpt lat="49.45222" lon="1.30503">
        <ele>140</ele>
        <time>2023-03-14T13:27:57.302Z</time>
      </trkpt>
      <trkpt lat="49.45222" lon="1.30503">
        <ele>140</ele>
        <time>2023-03-14T13:28:02.306Z</time>
      </trkpt>
      <trkpt lat="49.45222" lon="1.30503">
        <ele>140</ele>
        <time>2023-03-14T13:28:07.301Z</time>
      </trkpt>
      <trkpt lat="49.4522" lon="1.30504">
        <ele>140</ele>
        <time>2023-03-14T13:28:12.302Z</time>
      </trkpt>
      <trkpt lat="49.45218" lon="1.30503">
        <ele>140</ele>
        <time>2023-03-14T13:28:16.960Z</time>
      </trkpt>
      <trkpt lat="49.45219" lon="1.30504">
        <ele>140</ele>
        <time>2023-03-14T13:29:05.303Z</time>
      </trkpt>
      <trkpt lat="49.4522" lon="1.30503">
        <ele>140</ele>
        <time>2023-03-14T13:29:10.304Z</time>
      </trkpt>
      <trkpt lat="49.45224" lon="1.30498">
        <ele>140</ele>
        <time>2023-03-14T13:29:15.295Z</time>
      </trkpt>
      <trkpt lat="49.45227" lon="1.30496">
        <ele>140</ele>
        <time>2023-03-14T13:29:19.629Z</time>
      </trkpt>
      <trkpt lat="49.45233" lon="1.30496">
        <ele>140</ele>
        <time>2023-03-14T13:29:23.798Z</time>
      </trkpt>
      <trkpt lat="49.45237" lon="1.30489">
        <ele>144</ele>
        <time>2023-03-14T13:29:27.847Z</time>
      </trkpt>
      <trkpt lat="49.4524" lon="1.30482">
        <ele>143</ele>
        <time>2023-03-14T13:29:32.611Z</time>
      </trkpt>
      <trkpt lat="49.45243" lon="1.30474">
        <ele>143</ele>
        <time>2023-03-14T13:29:37.294Z</time>
      </trkpt>
      <trkpt lat="49.45245" lon="1.30468">
        <ele>143</ele>
        <time>2023-03-14T13:29:41.425Z</time>
      </trkpt>
      <trkpt lat="49.45249" lon="1.30463">
        <ele>143</ele>
        <time>2023-03-14T13:29:45.594Z</time>
      </trkpt>
      <trkpt lat="49.45253" lon="1.30457">
        <ele>142</ele>
        <time>2023-03-14T13:29:49.644Z</time>
      </trkpt>
      <trkpt lat="49.45257" lon="1.30453">
        <ele>142</ele>
        <time>2023-03-14T13:29:53.812Z</time>
      </trkpt>
      <trkpt lat="49.4526" lon="1.30445">
        <ele>142</ele>
        <time>2023-03-14T13:29:58.438Z</time>
      </trkpt>
      <trkpt lat="49.45263" lon="1.30437">
        <ele>142</ele>
        <time>2023-03-14T13:30:02.871Z</time>
      </trkpt>
      <trkpt lat="49.45267" lon="1.30431">
        <ele>145</ele>
        <time>2023-03-14T13:30:07.314Z</time>
      </trkpt>
      <trkpt lat="49.4527" lon="1.30424">
        <ele>143</ele>
        <time>2023-03-14T13:30:11.678Z</time>
      </trkpt>
      <trkpt lat="49.45274" lon="1.30418">
        <ele>143</ele>
        <time>2023-03-14T13:30:16.334Z</time>
      </trkpt>
      <trkpt lat="49.45278" lon="1.30413">
        <ele>143</ele>
        <time>2023-03-14T13:30:20.849Z</time>
      </trkpt>
      <trkpt lat="49.45282" lon="1.30409">
        <ele>143</ele>
        <time>2023-03-14T13:30:24.899Z</time>
      </trkpt>
      <trkpt lat="49.45286" lon="1.30403">
        <ele>143</ele>
        <time>2023-03-14T13:30:29.782Z</time>
      </trkpt>
      <trkpt lat="49.45289" lon="1.30394">
        <ele>141</ele>
        <time>2023-03-14T13:30:34.304Z</time>
      </trkpt>
      <trkpt lat="49.45292" lon="1.30384">
        <ele>141</ele>
        <time>2023-03-14T13:30:38.834Z</time>
      </trkpt>
      <trkpt lat="49.45296" lon="1.30378">
        <ele>143</ele>
        <time>2023-03-14T13:30:42.884Z</time>
      </trkpt>
      <trkpt lat="49.45301" lon="1.30373">
        <ele>141</ele>
        <time>2023-03-14T13:30:46.814Z</time>
      </trkpt>
      <trkpt lat="49.45305" lon="1.30368">
        <ele>141</ele>
        <time>2023-03-14T13:30:50.864Z</time>
      </trkpt>
      <trkpt lat="49.4531" lon="1.30365">
        <ele>141</ele>
        <time>2023-03-14T13:30:55.032Z</time>
      </trkpt>
      <trkpt lat="49.45313" lon="1.30357">
        <ele>141</ele>
        <time>2023-03-14T13:30:59.558Z</time>
      </trkpt>
      <trkpt lat="49.45318" lon="1.3035">
        <ele>141</ele>
        <time>2023-03-14T13:31:04.203Z</time>
      </trkpt>
      <trkpt lat="49.45324" lon="1.30346">
        <ele>141</ele>
        <time>2023-03-14T13:31:08.729Z</time>
      </trkpt>
      <trkpt lat="49.45329" lon="1.30342">
        <ele>141</ele>
        <time>2023-03-14T13:31:13.288Z</time>
      </trkpt>
      <trkpt lat="49.45334" lon="1.30339">
        <ele>141</ele>
        <time>2023-03-14T13:31:17.424Z</time>
      </trkpt>
      <trkpt lat="49.45338" lon="1.30335">
        <ele>141</ele>
        <time>2023-03-14T13:31:21.442Z</time>
      </trkpt>
      <trkpt lat="49.45343" lon="1.30331">
        <ele>141</ele>
        <time>2023-03-14T13:31:26Z</time>
      </trkpt>
      <trkpt lat="49.45347" lon="1.30328">
        <ele>142</ele>
        <time>2023-03-14T13:31:30.645Z</time>
      </trkpt>
      <trkpt lat="49.45352" lon="1.30323">
        <ele>142</ele>
        <time>2023-03-14T13:31:35.023Z</time>
      </trkpt>
      <trkpt lat="49.45358" lon="1.30319">
        <ele>141</ele>
        <time>2023-03-14T13:31:39.459Z</time>
      </trkpt>
      <trkpt lat="49.45363" lon="1.30314">
        <ele>141</ele>
        <time>2023-03-14T13:31:43.866Z</time>
      </trkpt>
      <trkpt lat="49.45368" lon="1.30309">
        <ele>141</ele>
        <time>2023-03-14T13:31:48.301Z</time>
      </trkpt>
      <trkpt lat="49.45372" lon="1.30304">
        <ele>141</ele>
        <time>2023-03-14T13:31:52.679Z</time>
      </trkpt>
      <trkpt lat="49.45376" lon="1.30298">
        <ele>141</ele>
        <time>2023-03-14T13:31:57.178Z</time>
      </trkpt>
      <trkpt lat="49.4538" lon="1.30292">
        <ele>141</ele>
        <time>2023-03-14T13:32:01.493Z</time>
      </trkpt>
      <trkpt lat="49.45384" lon="1.30287">
        <ele>141</ele>
        <time>2023-03-14T13:32:06.019Z</time>
      </trkpt>
      <trkpt lat="49.45387" lon="1.30281">
        <ele>141</ele>
        <time>2023-03-14T13:32:10.426Z</time>
      </trkpt>
      <trkpt lat="49.45391" lon="1.30275">
        <ele>141</ele>
        <time>2023-03-14T13:32:14.959Z</time>
      </trkpt>
      <trkpt lat="49.45395" lon="1.30269">
        <ele>141</ele>
        <time>2023-03-14T13:32:19.295Z</time>
      </trkpt>
      <trkpt lat="49.45399" lon="1.30262">
        <ele>140</ele>
        <time>2023-03-14T13:32:23.857Z</time>
      </trkpt>
      <trkpt lat="49.45403" lon="1.30257">
        <ele>142</ele>
        <time>2023-03-14T13:32:28.292Z</time>
      </trkpt>
      <trkpt lat="49.45408" lon="1.30251">
        <ele>142</ele>
        <time>2023-03-14T13:32:32.818Z</time>
      </trkpt>
      <trkpt lat="49.45413" lon="1.30246">
        <ele>142</ele>
        <time>2023-03-14T13:32:37.582Z</time>
      </trkpt>
      <trkpt lat="49.45416" lon="1.3024">
        <ele>142</ele>
        <time>2023-03-14T13:32:41.513Z</time>
      </trkpt>
      <trkpt lat="49.45421" lon="1.30235">
        <ele>141</ele>
        <time>2023-03-14T13:32:46.038Z</time>
      </trkpt>
      <trkpt lat="49.45425" lon="1.30229">
        <ele>141</ele>
        <time>2023-03-14T13:32:50.442Z</time>
      </trkpt>
      <trkpt lat="49.45429" lon="1.30223">
        <ele>141</ele>
        <time>2023-03-14T13:32:54.852Z</time>
      </trkpt>
      <trkpt lat="49.45433" lon="1.30217">
        <ele>144</ele>
        <time>2023-03-14T13:32:59.259Z</time>
      </trkpt>
      <trkpt lat="49.45438" lon="1.30211">
        <ele>144</ele>
        <time>2023-03-14T13:33:03.785Z</time>
      </trkpt>
      <trkpt lat="49.45441" lon="1.30205">
        <ele>143</ele>
        <time>2023-03-14T13:33:08.288Z</time>
      </trkpt>
      <trkpt lat="49.45445" lon="1.30197">
        <ele>143</ele>
        <time>2023-03-14T13:33:12.718Z</time>
      </trkpt>
      <trkpt lat="49.45448" lon="1.3019">
        <ele>143</ele>
        <time>2023-03-14T13:33:17.244Z</time>
      </trkpt>
      <trkpt lat="49.45452" lon="1.30184">
        <ele>143</ele>
        <time>2023-03-14T13:33:21.644Z</time>
      </trkpt>
      <trkpt lat="49.45456" lon="1.30178">
        <ele>143</ele>
        <time>2023-03-14T13:33:26.058Z</time>
      </trkpt>
      <trkpt lat="49.4546" lon="1.30171">
        <ele>144</ele>
        <time>2023-03-14T13:33:30.487Z</time>
      </trkpt>
      <trkpt lat="49.45464" lon="1.30165">
        <ele>144</ele>
        <time>2023-03-14T13:33:34.633Z</time>
      </trkpt>
      <trkpt lat="49.45468" lon="1.30158">
        <ele>144</ele>
        <time>2023-03-14T13:33:39.279Z</time>
      </trkpt>
      <trkpt lat="49.45471" lon="1.30151">
        <ele>144</ele>
        <time>2023-03-14T13:33:43.442Z</time>
      </trkpt>
      <trkpt lat="49.45474" lon="1.30145">
        <ele>144</ele>
        <time>2023-03-14T13:33:47.616Z</time>
      </trkpt>
      <trkpt lat="49.45478" lon="1.30136">
        <ele>144</ele>
        <time>2023-03-14T13:34:00.956Z</time>
      </trkpt>
      <trkpt lat="49.45479" lon="1.30131">
        <ele>144</ele>
        <time>2023-03-14T13:34:05.601Z</time>
      </trkpt>
      <trkpt lat="49.45486" lon="1.30124">
        <ele>144</ele>
        <time>2023-03-14T13:34:10.294Z</time>
      </trkpt>
      <trkpt lat="49.45492" lon="1.30118">
        <ele>145</ele>
        <time>2023-03-14T13:34:14.393Z</time>
      </trkpt>
      <trkpt lat="49.45497" lon="1.30113">
        <ele>145</ele>
        <time>2023-03-14T13:34:18.821Z</time>
      </trkpt>
      <trkpt lat="49.45502" lon="1.30107">
        <ele>145</ele>
        <time>2023-03-14T13:34:23.347Z</time>
      </trkpt>
      <trkpt lat="49.45506" lon="1.301">
        <ele>145</ele>
        <time>2023-03-14T13:34:27.873Z</time>
      </trkpt>
      <trkpt lat="49.4551" lon="1.30094">
        <ele>144</ele>
        <time>2023-03-14T13:34:32.042Z</time>
      </trkpt>
      <trkpt lat="49.45514" lon="1.30087">
        <ele>146</ele>
        <time>2023-03-14T13:34:36.687Z</time>
      </trkpt>
      <trkpt lat="49.45519" lon="1.30082">
        <ele>146</ele>
        <time>2023-03-14T13:34:41.213Z</time>
      </trkpt>
      <trkpt lat="49.45524" lon="1.30076">
        <ele>146</ele>
        <time>2023-03-14T13:34:45.620Z</time>
      </trkpt>
      <trkpt lat="49.45529" lon="1.3007">
        <ele>146</ele>
        <time>2023-03-14T13:34:50.027Z</time>
      </trkpt>
      <trkpt lat="49.45533" lon="1.30064">
        <ele>145</ele>
        <time>2023-03-14T13:34:54.567Z</time>
      </trkpt>
      <trkpt lat="49.45537" lon="1.30058">
        <ele>145</ele>
        <time>2023-03-14T13:34:58.960Z</time>
      </trkpt>
      <trkpt lat="49.45542" lon="1.30054">
        <ele>146</ele>
        <time>2023-03-14T13:35:03.303Z</time>
      </trkpt>
      <trkpt lat="49.45547" lon="1.30049">
        <ele>146</ele>
        <time>2023-03-14T13:35:07.655Z</time>
      </trkpt>
      <trkpt lat="49.45552" lon="1.30045">
        <ele>146</ele>
        <time>2023-03-14T13:35:12.181Z</time>
      </trkpt>
      <trkpt lat="49.45557" lon="1.3004">
        <ele>146</ele>
        <time>2023-03-14T13:35:16.587Z</time>
      </trkpt>
      <trkpt lat="49.45562" lon="1.30037">
        <ele>146</ele>
        <time>2023-03-14T13:35:20.994Z</time>
      </trkpt>
      <trkpt lat="49.45568" lon="1.30033">
        <ele>146</ele>
        <time>2023-03-14T13:35:25.520Z</time>
      </trkpt>
      <trkpt lat="49.45573" lon="1.30031">
        <ele>147</ele>
        <time>2023-03-14T13:35:30.046Z</time>
      </trkpt>
      <trkpt lat="49.45579" lon="1.30029">
        <ele>147</ele>
        <time>2023-03-14T13:35:34.572Z</time>
      </trkpt>
      <trkpt lat="49.45585" lon="1.30026">
        <ele>147</ele>
        <time>2023-03-14T13:35:38.979Z</time>
      </trkpt>
      <trkpt lat="49.45591" lon="1.30024">
        <ele>147</ele>
        <time>2023-03-14T13:35:43.442Z</time>
      </trkpt>
      <trkpt lat="49.45597" lon="1.30021">
        <ele>147</ele>
        <time>2023-03-14T13:35:47.905Z</time>
      </trkpt>
      <trkpt lat="49.45602" lon="1.30016">
        <ele>148</ele>
        <time>2023-03-14T13:35:52.298Z</time>
      </trkpt>
      <trkpt lat="49.45607" lon="1.30012">
        <ele>148</ele>
        <time>2023-03-14T13:35:56.845Z</time>
      </trkpt>
      <trkpt lat="49.45613" lon="1.30009">
        <ele>148</ele>
        <time>2023-03-14T13:36:01.252Z</time>
      </trkpt>
      <trkpt lat="49.45617" lon="1.30007">
        <ele>148</ele>
        <time>2023-03-14T13:36:05.778Z</time>
      </trkpt>
      <trkpt lat="49.45622" lon="1.30005">
        <ele>148</ele>
        <time>2023-03-14T13:36:10.297Z</time>
      </trkpt>
      <trkpt lat="49.45627" lon="1.30001">
        <ele>148</ele>
        <time>2023-03-14T13:36:14.777Z</time>
      </trkpt>
      <trkpt lat="49.45632" lon="1.29997">
        <ele>148</ele>
        <time>2023-03-14T13:36:19.231Z</time>
      </trkpt>
      <trkpt lat="49.45638" lon="1.29993">
        <ele>148</ele>
        <time>2023-03-14T13:36:23.633Z</time>
      </trkpt>
      <trkpt lat="49.45643" lon="1.2999">
        <ele>148</ele>
        <time>2023-03-14T13:36:28.050Z</time>
      </trkpt>
      <trkpt lat="49.45648" lon="1.29987">
        <ele>148</ele>
        <time>2023-03-14T13:36:31.981Z</time>
      </trkpt>
      <trkpt lat="49.45654" lon="1.29983">
        <ele>147</ele>
        <time>2023-03-14T13:36:36.851Z</time>
      </trkpt>
      <trkpt lat="49.45659" lon="1.29979">
        <ele>147</ele>
        <time>2023-03-14T13:36:41.152Z</time>
      </trkpt>
      <trkpt lat="49.45665" lon="1.29976">
        <ele>147</ele>
        <time>2023-03-14T13:36:45.559Z</time>
      </trkpt>
      <trkpt lat="49.4567" lon="1.29973">
        <ele>147</ele>
        <time>2023-03-14T13:36:49.966Z</time>
      </trkpt>
      <trkpt lat="49.45675" lon="1.29971">
        <ele>147</ele>
        <time>2023-03-14T13:36:53.896Z</time>
      </trkpt>
      <trkpt lat="49.45681" lon="1.29969">
        <ele>147</ele>
        <time>2023-03-14T13:36:58.422Z</time>
      </trkpt>
      <trkpt lat="49.45687" lon="1.29966">
        <ele>147</ele>
        <time>2023-03-14T13:37:03.186Z</time>
      </trkpt>
      <trkpt lat="49.45693" lon="1.29965">
        <ele>147</ele>
        <time>2023-03-14T13:37:07.712Z</time>
      </trkpt>
      <trkpt lat="49.45699" lon="1.29962">
        <ele>147</ele>
        <time>2023-03-14T13:37:12.715Z</time>
      </trkpt>
      <trkpt lat="49.45705" lon="1.29959">
        <ele>147</ele>
        <time>2023-03-14T13:37:17.292Z</time>
      </trkpt>
      <trkpt lat="49.4571" lon="1.29958">
        <ele>147</ele>
        <time>2023-03-14T13:37:21.384Z</time>
      </trkpt>
      <trkpt lat="49.45716" lon="1.29956">
        <ele>147</ele>
        <time>2023-03-14T13:37:25.816Z</time>
      </trkpt>
      <trkpt lat="49.45721" lon="1.29955">
        <ele>147</ele>
        <time>2023-03-14T13:37:29.866Z</time>
      </trkpt>
      <trkpt lat="49.45726" lon="1.29954">
        <ele>147</ele>
        <time>2023-03-14T13:37:34.392Z</time>
      </trkpt>
      <trkpt lat="49.45732" lon="1.29952">
        <ele>147</ele>
        <time>2023-03-14T13:37:38.799Z</time>
      </trkpt>
      <trkpt lat="49.45738" lon="1.2995">
        <ele>147</ele>
        <time>2023-03-14T13:37:43.206Z</time>
      </trkpt>
      <trkpt lat="49.45744" lon="1.29949">
        <ele>147</ele>
        <time>2023-03-14T13:37:47.744Z</time>
      </trkpt>
      <trkpt lat="49.4575" lon="1.29948">
        <ele>147</ele>
        <time>2023-03-14T13:37:52.138Z</time>
      </trkpt>
      <trkpt lat="49.45756" lon="1.29946">
        <ele>147</ele>
        <time>2023-03-14T13:37:56.664Z</time>
      </trkpt>
      <trkpt lat="49.45761" lon="1.29944">
        <ele>147</ele>
        <time>2023-03-14T13:38:00.833Z</time>
      </trkpt>
      <trkpt lat="49.45767" lon="1.29941">
        <ele>148</ele>
        <time>2023-03-14T13:38:05.442Z</time>
      </trkpt>
      <trkpt lat="49.45773" lon="1.2994">
        <ele>148</ele>
        <time>2023-03-14T13:38:09.896Z</time>
      </trkpt>
      <trkpt lat="49.45779" lon="1.29939">
        <ele>148</ele>
        <time>2023-03-14T13:38:14.292Z</time>
      </trkpt>
      <trkpt lat="49.45785" lon="1.29937">
        <ele>148</ele>
        <time>2023-03-14T13:38:18.818Z</time>
      </trkpt>
      <trkpt lat="49.4579" lon="1.29935">
        <ele>148</ele>
        <time>2023-03-14T13:38:23.442Z</time>
      </trkpt>
      <trkpt lat="49.45795" lon="1.29932">
        <ele>149</ele>
        <time>2023-03-14T13:38:27.915Z</time>
      </trkpt>
      <trkpt lat="49.458" lon="1.2993">
        <ele>148</ele>
        <time>2023-03-14T13:38:32.396Z</time>
      </trkpt>
      <trkpt lat="49.45806" lon="1.29929">
        <ele>148</ele>
        <time>2023-03-14T13:38:36.803Z</time>
      </trkpt>
      <trkpt lat="49.45811" lon="1.29926">
        <ele>148</ele>
        <time>2023-03-14T13:38:41.442Z</time>
      </trkpt>
      <trkpt lat="49.45817" lon="1.29927">
        <ele>148</ele>
        <time>2023-03-14T13:38:45.850Z</time>
      </trkpt>
      <trkpt lat="49.45822" lon="1.29926">
        <ele>148</ele>
        <time>2023-03-14T13:38:50.301Z</time>
      </trkpt>
      <trkpt lat="49.45828" lon="1.29924">
        <ele>148</ele>
        <time>2023-03-14T13:38:54.773Z</time>
      </trkpt>
      <trkpt lat="49.45833" lon="1.29922">
        <ele>148</ele>
        <time>2023-03-14T13:38:59.154Z</time>
      </trkpt>
      <trkpt lat="49.4584" lon="1.29921">
        <ele>148</ele>
        <time>2023-03-14T13:39:03.524Z</time>
      </trkpt>
      <trkpt lat="49.45846" lon="1.29919">
        <ele>148</ele>
        <time>2023-03-14T13:39:07.937Z</time>
      </trkpt>
      <trkpt lat="49.45852" lon="1.29918">
        <ele>149</ele>
        <time>2023-03-14T13:39:12.303Z</time>
      </trkpt>
      <trkpt lat="49.45858" lon="1.29917">
        <ele>149</ele>
        <time>2023-03-14T13:39:16.822Z</time>
      </trkpt>
      <trkpt lat="49.45864" lon="1.29916">
        <ele>149</ele>
        <time>2023-03-14T13:39:21.442Z</time>
      </trkpt>
      <trkpt lat="49.4587" lon="1.29914">
        <ele>149</ele>
        <time>2023-03-14T13:39:25.993Z</time>
      </trkpt>
      <trkpt lat="49.45876" lon="1.29914">
        <ele>150</ele>
        <time>2023-03-14T13:39:30.638Z</time>
      </trkpt>
      <trkpt lat="49.45881" lon="1.29911">
        <ele>150</ele>
        <time>2023-03-14T13:39:35.045Z</time>
      </trkpt>
      <trkpt lat="49.45886" lon="1.29911">
        <ele>150</ele>
        <time>2023-03-14T13:39:39.442Z</time>
      </trkpt>
      <trkpt lat="49.45892" lon="1.29912">
        <ele>150</ele>
        <time>2023-03-14T13:39:43.859Z</time>
      </trkpt>
      <trkpt lat="49.45898" lon="1.29911">
        <ele>150</ele>
        <time>2023-03-14T13:39:48.385Z</time>
      </trkpt>
      <trkpt lat="49.45904" lon="1.2991">
        <ele>151</ele>
        <time>2023-03-14T13:39:52.792Z</time>
      </trkpt>
      <trkpt lat="49.45909" lon="1.29909">
        <ele>151</ele>
        <time>2023-03-14T13:39:57.295Z</time>
      </trkpt>
      <trkpt lat="49.45915" lon="1.29908">
        <ele>151</ele>
        <time>2023-03-14T13:40:01.844Z</time>
      </trkpt>
      <trkpt lat="49.45921" lon="1.29907">
        <ele>151</ele>
        <time>2023-03-14T13:40:06.292Z</time>
      </trkpt>
      <trkpt lat="49.45926" lon="1.29908">
        <ele>151</ele>
        <time>2023-03-14T13:40:10.419Z</time>
      </trkpt>
      <trkpt lat="49.45932" lon="1.29907">
        <ele>151</ele>
        <time>2023-03-14T13:40:15.184Z</time>
      </trkpt>
      <trkpt lat="49.45937" lon="1.29907">
        <ele>151</ele>
        <time>2023-03-14T13:40:19.114Z</time>
      </trkpt>
      <trkpt lat="49.45942" lon="1.29906">
        <ele>151</ele>
        <time>2023-03-14T13:40:23.759Z</time>
      </trkpt>
      <trkpt lat="49.45948" lon="1.29904">
        <ele>151</ele>
        <time>2023-03-14T13:40:28.404Z</time>
      </trkpt>
      <trkpt lat="49.45954" lon="1.29903">
        <ele>151</ele>
        <time>2023-03-14T13:40:32.981Z</time>
      </trkpt>
      <trkpt lat="49.4596" lon="1.29901">
        <ele>153</ele>
        <time>2023-03-14T13:40:37.452Z</time>
      </trkpt>
      <trkpt lat="49.45965" lon="1.299">
        <ele>153</ele>
        <time>2023-03-14T13:40:41.863Z</time>
      </trkpt>
      <trkpt lat="49.4597" lon="1.29899">
        <ele>153</ele>
        <time>2023-03-14T13:40:45.913Z</time>
      </trkpt>
      <trkpt lat="49.45975" lon="1.29899">
        <ele>153</ele>
        <time>2023-03-14T13:40:51.034Z</time>
      </trkpt>
      <trkpt lat="49.45981" lon="1.29897">
        <ele>153</ele>
        <time>2023-03-14T13:40:55.560Z</time>
      </trkpt>
      <trkpt lat="49.45985" lon="1.29894">
        <ele>153</ele>
        <time>2023-03-14T13:40:59.610Z</time>
      </trkpt>
      <trkpt lat="49.45988" lon="1.29889">
        <ele>153</ele>
        <time>2023-03-14T13:41:03.778Z</time>
      </trkpt>
      <trkpt lat="49.4599" lon="1.29883">
        <ele>153</ele>
        <time>2023-03-14T13:41:07.828Z</time>
      </trkpt>
      <trkpt lat="49.45991" lon="1.29877">
        <ele>153</ele>
        <time>2023-03-14T13:41:11.997Z</time>
      </trkpt>
      <trkpt lat="49.45992" lon="1.29868">
        <ele>153</ele>
        <time>2023-03-14T13:41:16.642Z</time>
      </trkpt>
      <trkpt lat="49.45993" lon="1.2986">
        <ele>153</ele>
        <time>2023-03-14T13:41:20.811Z</time>
      </trkpt>
      <trkpt lat="49.45992" lon="1.29853">
        <ele>153</ele>
        <time>2023-03-14T13:41:26.144Z</time>
      </trkpt>
      <trkpt lat="49.45996" lon="1.29845">
        <ele>153</ele>
        <time>2023-03-14T13:41:30.577Z</time>
      </trkpt>
      <trkpt lat="49.46" lon="1.29837">
        <ele>153</ele>
        <time>2023-03-14T13:41:35.152Z</time>
      </trkpt>
      <trkpt lat="49.46001" lon="1.2983">
        <ele>153</ele>
        <time>2023-03-14T13:41:39.153Z</time>
      </trkpt>
      <trkpt lat="49.46003" lon="1.29822">
        <ele>153</ele>
        <time>2023-03-14T13:41:43.799Z</time>
      </trkpt>
      <trkpt lat="49.46006" lon="1.29814">
        <ele>152</ele>
        <time>2023-03-14T13:41:48.205Z</time>
      </trkpt>
      <trkpt lat="49.46009" lon="1.29808">
        <ele>152</ele>
        <time>2023-03-14T13:41:52.724Z</time>
      </trkpt>
      <trkpt lat="49.46011" lon="1.298">
        <ele>152</ele>
        <time>2023-03-14T13:41:57.257Z</time>
      </trkpt>
      <trkpt lat="49.46011" lon="1.29791">
        <ele>151</ele>
        <time>2023-03-14T13:42:01.753Z</time>
      </trkpt>
      <trkpt lat="49.46012" lon="1.29782">
        <ele>151</ele>
        <time>2023-03-14T13:42:06.165Z</time>
      </trkpt>
      <trkpt lat="49.46013" lon="1.29773">
        <ele>151</ele>
        <time>2023-03-14T13:42:10.513Z</time>
      </trkpt>
      <trkpt lat="49.46013" lon="1.29764">
        <ele>151</ele>
        <time>2023-03-14T13:42:14.885Z</time>
      </trkpt>
      <trkpt lat="49.46015" lon="1.29756">
        <ele>150</ele>
        <time>2023-03-14T13:42:19.346Z</time>
      </trkpt>
      <trkpt lat="49.46014" lon="1.29747">
        <ele>150</ele>
        <time>2023-03-14T13:42:23.755Z</time>
      </trkpt>
      <trkpt lat="49.46014" lon="1.29738">
        <ele>150</ele>
        <time>2023-03-14T13:42:28.224Z</time>
      </trkpt>
      <trkpt lat="49.46014" lon="1.29729">
        <ele>150</ele>
        <time>2023-03-14T13:42:32.745Z</time>
      </trkpt>
      <trkpt lat="49.46014" lon="1.2972">
        <ele>149</ele>
        <time>2023-03-14T13:42:37.121Z</time>
      </trkpt>
      <trkpt lat="49.46015" lon="1.29712">
        <ele>150</ele>
        <time>2023-03-14T13:42:41.597Z</time>
      </trkpt>
      <trkpt lat="49.46015" lon="1.29703">
        <ele>150</ele>
        <time>2023-03-14T13:42:45.971Z</time>
      </trkpt>
      <trkpt lat="49.46014" lon="1.29694">
        <ele>149</ele>
        <time>2023-03-14T13:42:50.452Z</time>
      </trkpt>
      <trkpt lat="49.46014" lon="1.29686">
        <ele>150</ele>
        <time>2023-03-14T13:42:55.023Z</time>
      </trkpt>
      <trkpt lat="49.46018" lon="1.29683">
        <ele>150</ele>
        <time>2023-03-14T13:42:59.555Z</time>
      </trkpt>
      <trkpt lat="49.46022" lon="1.29686">
        <ele>150</ele>
        <time>2023-03-14T13:43:03.598Z</time>
      </trkpt>
      <trkpt lat="49.46022" lon="1.29693">
        <ele>150</ele>
        <time>2023-03-14T13:43:07.647Z</time>
      </trkpt>
      <trkpt lat="49.46022" lon="1.297">
        <ele>150</ele>
        <time>2023-03-14T13:43:11.816Z</time>
      </trkpt>
      <trkpt lat="49.46025" lon="1.29706">
        <ele>150</ele>
        <time>2023-03-14T13:43:15.866Z</time>
      </trkpt>
      <trkpt lat="49.46026" lon="1.29712">
        <ele>150</ele>
        <time>2023-03-14T13:43:20.034Z</time>
      </trkpt>
      <trkpt lat="49.46026" lon="1.29718">
        <ele>150</ele>
        <time>2023-03-14T13:43:24.203Z</time>
      </trkpt>
      <trkpt lat="49.46028" lon="1.29726">
        <ele>150</ele>
        <time>2023-03-14T13:43:28.729Z</time>
      </trkpt>
      <trkpt lat="49.46031" lon="1.29731">
        <ele>150</ele>
        <time>2023-03-14T13:43:33.135Z</time>
      </trkpt>
      <trkpt lat="49.46035" lon="1.29735">
        <ele>150</ele>
        <time>2023-03-14T13:43:37.185Z</time>
      </trkpt>
      <trkpt lat="49.46039" lon="1.29739">
        <ele>150</ele>
        <time>2023-03-14T13:43:41.234Z</time>
      </trkpt>
      <trkpt lat="49.46045" lon="1.2974">
        <ele>151</ele>
        <time>2023-03-14T13:43:45.879Z</time>
      </trkpt>
      <trkpt lat="49.46051" lon="1.2974">
        <ele>151</ele>
        <time>2023-03-14T13:43:50.405Z</time>
      </trkpt>
      <trkpt lat="49.46057" lon="1.2974">
        <ele>151</ele>
        <time>2023-03-14T13:43:55.050Z</time>
      </trkpt>
      <trkpt lat="49.46062" lon="1.2974">
        <ele>151</ele>
        <time>2023-03-14T13:43:58.862Z</time>
      </trkpt>
      <trkpt lat="49.46068" lon="1.2974">
        <ele>151</ele>
        <time>2023-03-14T13:44:03.639Z</time>
      </trkpt>
      <trkpt lat="49.46074" lon="1.2974">
        <ele>152</ele>
        <time>2023-03-14T13:44:08.152Z</time>
      </trkpt>
      <trkpt lat="49.46079" lon="1.2974">
        <ele>152</ele>
        <time>2023-03-14T13:44:12.082Z</time>
      </trkpt>
      <trkpt lat="49.46085" lon="1.2974">
        <ele>152</ele>
        <time>2023-03-14T13:44:16.608Z</time>
      </trkpt>
      <trkpt lat="49.4609" lon="1.29738">
        <ele>152</ele>
        <time>2023-03-14T13:44:21.134Z</time>
      </trkpt>
      <trkpt lat="49.46095" lon="1.29733">
        <ele>152</ele>
        <time>2023-03-14T13:44:25.779Z</time>
      </trkpt>
      <trkpt lat="49.46101" lon="1.29732">
        <ele>153</ele>
        <time>2023-03-14T13:44:30.424Z</time>
      </trkpt>
      <trkpt lat="49.46106" lon="1.29731">
        <ele>153</ele>
        <time>2023-03-14T13:44:34.950Z</time>
      </trkpt>
      <trkpt lat="49.46112" lon="1.29728">
        <ele>153</ele>
        <time>2023-03-14T13:44:39.608Z</time>
      </trkpt>
      <trkpt lat="49.46117" lon="1.29727">
        <ele>153</ele>
        <time>2023-03-14T13:44:44.001Z</time>
      </trkpt>
      <trkpt lat="49.46122" lon="1.29725">
        <ele>153</ele>
        <time>2023-03-14T13:44:48.646Z</time>
      </trkpt>
      <trkpt lat="49.46127" lon="1.29725">
        <ele>153</ele>
        <time>2023-03-14T13:44:52.577Z</time>
      </trkpt>
      <trkpt lat="49.46131" lon="1.29728">
        <ele>153</ele>
        <time>2023-03-14T13:44:56.626Z</time>
      </trkpt>
      <trkpt lat="49.46144" lon="1.29739">
        <ele>154</ele>
        <time>2023-03-14T13:45:19.292Z</time>
      </trkpt>
      <trkpt lat="49.46146" lon="1.2974">
        <ele>154</ele>
        <time>2023-03-14T13:45:23.424Z</time>
      </trkpt>
      <trkpt lat="49.46153" lon="1.2974">
        <ele>154</ele>
        <time>2023-03-14T13:45:27.593Z</time>
      </trkpt>
      <trkpt lat="49.4616" lon="1.29741">
        <ele>154</ele>
        <time>2023-03-14T13:45:32.238Z</time>
      </trkpt>
      <trkpt lat="49.46166" lon="1.29742">
        <ele>154</ele>
        <time>2023-03-14T13:45:36.763Z</time>
      </trkpt>
      <trkpt lat="49.46172" lon="1.29742">
        <ele>154</ele>
        <time>2023-03-14T13:45:41.293Z</time>
      </trkpt>
      <trkpt lat="49.46178" lon="1.2974">
        <ele>154</ele>
        <time>2023-03-14T13:45:45.815Z</time>
      </trkpt>
      <trkpt lat="49.46183" lon="1.29739">
        <ele>154</ele>
        <time>2023-03-14T13:45:50.304Z</time>
      </trkpt>
      <trkpt lat="49.46189" lon="1.29739">
        <ele>154</ele>
        <time>2023-03-14T13:45:54.867Z</time>
      </trkpt>
      <trkpt lat="49.46195" lon="1.29739">
        <ele>154</ele>
        <time>2023-03-14T13:45:59.393Z</time>
      </trkpt>
      <trkpt lat="49.46201" lon="1.29739">
        <ele>154</ele>
        <time>2023-03-14T13:46:04.041Z</time>
      </trkpt>
      <trkpt lat="49.46207" lon="1.29739">
        <ele>154</ele>
        <time>2023-03-14T13:46:08.442Z</time>
      </trkpt>
      <trkpt lat="49.46213" lon="1.29739">
        <ele>154</ele>
        <time>2023-03-14T13:46:12.851Z</time>
      </trkpt>
      <trkpt lat="49.46218" lon="1.29739">
        <ele>154</ele>
        <time>2023-03-14T13:46:17.442Z</time>
      </trkpt>
      <trkpt lat="49.46224" lon="1.29738">
        <ele>154</ele>
        <time>2023-03-14T13:46:21.903Z</time>
      </trkpt>
      <trkpt lat="49.46229" lon="1.29738">
        <ele>154</ele>
        <time>2023-03-14T13:46:26.416Z</time>
      </trkpt>
      <trkpt lat="49.46235" lon="1.29737">
        <ele>154</ele>
        <time>2023-03-14T13:46:30.835Z</time>
      </trkpt>
      <trkpt lat="49.46241" lon="1.29736">
        <ele>153</ele>
        <time>2023-03-14T13:46:35.242Z</time>
      </trkpt>
      <trkpt lat="49.46246" lon="1.29736">
        <ele>153</ele>
        <time>2023-03-14T13:46:39.768Z</time>
      </trkpt>
      <trkpt lat="49.46252" lon="1.29736">
        <ele>153</ele>
        <time>2023-03-14T13:46:44.295Z</time>
      </trkpt>
      <trkpt lat="49.46258" lon="1.29737">
        <ele>154</ele>
        <time>2023-03-14T13:46:48.743Z</time>
      </trkpt>
      <trkpt lat="49.46264" lon="1.29737">
        <ele>154</ele>
        <time>2023-03-14T13:46:53.227Z</time>
      </trkpt>
      <trkpt lat="49.46269" lon="1.29738">
        <ele>154</ele>
        <time>2023-03-14T13:46:57.633Z</time>
      </trkpt>
      <trkpt lat="49.46275" lon="1.29739">
        <ele>154</ele>
        <time>2023-03-14T13:47:02.040Z</time>
      </trkpt>
      <trkpt lat="49.4628" lon="1.29738">
        <ele>154</ele>
        <time>2023-03-14T13:47:06.209Z</time>
      </trkpt>
      <trkpt lat="49.46285" lon="1.29739">
        <ele>154</ele>
        <time>2023-03-14T13:47:10.139Z</time>
      </trkpt>
      <trkpt lat="49.4629" lon="1.29743">
        <ele>154</ele>
        <time>2023-03-14T13:47:14.784Z</time>
      </trkpt>
      <trkpt lat="49.46295" lon="1.29745">
        <ele>154</ele>
        <time>2023-03-14T13:47:19.429Z</time>
      </trkpt>
      <trkpt lat="49.46301" lon="1.29747">
        <ele>154</ele>
        <time>2023-03-14T13:47:23.955Z</time>
      </trkpt>
      <trkpt lat="49.46307" lon="1.29748">
        <ele>154</ele>
        <time>2023-03-14T13:47:28.442Z</time>
      </trkpt>
      <trkpt lat="49.46312" lon="1.29749">
        <ele>154</ele>
        <time>2023-03-14T13:47:33.006Z</time>
      </trkpt>
      <trkpt lat="49.46318" lon="1.29751">
        <ele>154</ele>
        <time>2023-03-14T13:47:37.541Z</time>
      </trkpt>
      <trkpt lat="49.46324" lon="1.29752">
        <ele>154</ele>
        <time>2023-03-14T13:47:42.074Z</time>
      </trkpt>
      <trkpt lat="49.46329" lon="1.29752">
        <ele>154</ele>
        <time>2023-03-14T13:47:46.584Z</time>
      </trkpt>
      <trkpt lat="49.46335" lon="1.29754">
        <ele>154</ele>
        <time>2023-03-14T13:47:50.991Z</time>
      </trkpt>
      <trkpt lat="49.46341" lon="1.29756">
        <ele>154</ele>
        <time>2023-03-14T13:47:55.636Z</time>
      </trkpt>
      <trkpt lat="49.46347" lon="1.29756">
        <ele>154</ele>
        <time>2023-03-14T13:48:00.161Z</time>
      </trkpt>
      <trkpt lat="49.46352" lon="1.29757">
        <ele>154</ele>
        <time>2023-03-14T13:48:04.687Z</time>
      </trkpt>
      <trkpt lat="49.46358" lon="1.29757">
        <ele>154</ele>
        <time>2023-03-14T13:48:09.213Z</time>
      </trkpt>
      <trkpt lat="49.46363" lon="1.29758">
        <ele>154</ele>
        <time>2023-03-14T13:48:13.620Z</time>
      </trkpt>
      <trkpt lat="49.46369" lon="1.29758">
        <ele>154</ele>
        <time>2023-03-14T13:48:18.156Z</time>
      </trkpt>
      <trkpt lat="49.46375" lon="1.29759">
        <ele>154</ele>
        <time>2023-03-14T13:48:22.552Z</time>
      </trkpt>
      <trkpt lat="49.46381" lon="1.29758">
        <ele>155</ele>
        <time>2023-03-14T13:48:27.178Z</time>
      </trkpt>
      <trkpt lat="49.46387" lon="1.29758">
        <ele>155</ele>
        <time>2023-03-14T13:48:31.604Z</time>
      </trkpt>
      <trkpt lat="49.46393" lon="1.29758">
        <ele>155</ele>
        <time>2023-03-14T13:48:36.249Z</time>
      </trkpt>
      <trkpt lat="49.46398" lon="1.29759">
        <ele>155</ele>
        <time>2023-03-14T13:48:40.777Z</time>
      </trkpt>
      <trkpt lat="49.46404" lon="1.29759">
        <ele>155</ele>
        <time>2023-03-14T13:48:45.182Z</time>
      </trkpt>
      <trkpt lat="49.4641" lon="1.29758">
        <ele>155</ele>
        <time>2023-03-14T13:48:49.708Z</time>
      </trkpt>
      <trkpt lat="49.46415" lon="1.29757">
        <ele>155</ele>
        <time>2023-03-14T13:48:53.757Z</time>
      </trkpt>
      <trkpt lat="49.4642" lon="1.29755">
        <ele>155</ele>
        <time>2023-03-14T13:48:58.283Z</time>
      </trkpt>
      <trkpt lat="49.46423" lon="1.2976">
        <ele>155</ele>
        <time>2023-03-14T13:49:02.809Z</time>
      </trkpt>
      <trkpt lat="49.46428" lon="1.29761">
        <ele>155</ele>
        <time>2023-03-14T13:49:06.858Z</time>
      </trkpt>
      <trkpt lat="49.46431" lon="1.29764">
        <ele>156</ele>
        <time>2023-03-14T13:49:11.442Z</time>
      </trkpt>
      <trkpt lat="49.4643" lon="1.29769">
        <ele>156</ele>
        <time>2023-03-14T13:49:34.251Z</time>
      </trkpt>
      <trkpt lat="49.4643" lon="1.29768">
        <ele>156</ele>
        <time>2023-03-14T13:49:39.016Z</time>
      </trkpt>
      <trkpt lat="49.46429" lon="1.29771">
        <ele>156</ele>
        <time>2023-03-14T13:49:43.541Z</time>
      </trkpt>
      <trkpt lat="49.46432" lon="1.29778">
        <ele>156</ele>
        <time>2023-03-14T13:49:47.591Z</time>
      </trkpt>
      <trkpt lat="49.46435" lon="1.29786">
        <ele>156</ele>
        <time>2023-03-14T13:49:52.236Z</time>
      </trkpt>
      <trkpt lat="49.46437" lon="1.29794">
        <ele>157</ele>
        <time>2023-03-14T13:49:56.418Z</time>
      </trkpt>
      <trkpt lat="49.46439" lon="1.29802">
        <ele>157</ele>
        <time>2023-03-14T13:50:00.335Z</time>
      </trkpt>
      <trkpt lat="49.4644" lon="1.29811">
        <ele>157</ele>
        <time>2023-03-14T13:50:04.860Z</time>
      </trkpt>
      <trkpt lat="49.4644" lon="1.2982">
        <ele>158</ele>
        <time>2023-03-14T13:50:09.300Z</time>
      </trkpt>
      <trkpt lat="49.4644" lon="1.29828">
        <ele>158</ele>
        <time>2023-03-14T13:50:13.392Z</time>
      </trkpt>
      <trkpt lat="49.4644" lon="1.29836">
        <ele>158</ele>
        <time>2023-03-14T13:50:17.842Z</time>
      </trkpt>
      <trkpt lat="49.46439" lon="1.29845">
        <ele>158</ele>
        <time>2023-03-14T13:50:22.249Z</time>
      </trkpt>
      <trkpt lat="49.4644" lon="1.29853">
        <ele>158</ele>
        <time>2023-03-14T13:50:26.295Z</time>
      </trkpt>
      <trkpt lat="49.46439" lon="1.29861">
        <ele>158</ele>
        <time>2023-03-14T13:50:30.824Z</time>
      </trkpt>
      <trkpt lat="49.46438" lon="1.29869">
        <ele>158</ele>
        <time>2023-03-14T13:50:35.588Z</time>
      </trkpt>
      <trkpt lat="49.46438" lon="1.29879">
        <ele>158</ele>
        <time>2023-03-14T13:50:40.233Z</time>
      </trkpt>
      <trkpt lat="49.46438" lon="1.29888">
        <ele>158</ele>
        <time>2023-03-14T13:50:44.745Z</time>
      </trkpt>
      <trkpt lat="49.46438" lon="1.29896">
        <ele>158</ele>
        <time>2023-03-14T13:50:49.166Z</time>
      </trkpt>
      <trkpt lat="49.46437" lon="1.29905">
        <ele>158</ele>
        <time>2023-03-14T13:50:53.692Z</time>
      </trkpt>
      <trkpt lat="49.46437" lon="1.29913">
        <ele>158</ele>
        <time>2023-03-14T13:50:58.255Z</time>
      </trkpt>
      <trkpt lat="49.46437" lon="1.29922">
        <ele>158</ele>
        <time>2023-03-14T13:51:02.624Z</time>
      </trkpt>
      <trkpt lat="49.46437" lon="1.2993">
        <ele>158</ele>
        <time>2023-03-14T13:51:07.256Z</time>
      </trkpt>
      <trkpt lat="49.46436" lon="1.29938">
        <ele>158</ele>
        <time>2023-03-14T13:51:11.438Z</time>
      </trkpt>
      <trkpt lat="49.46435" lon="1.29948">
        <ele>158</ele>
        <time>2023-03-14T13:51:16.083Z</time>
      </trkpt>
      <trkpt lat="49.46435" lon="1.29957">
        <ele>158</ele>
        <time>2023-03-14T13:51:20.609Z</time>
      </trkpt>
      <trkpt lat="49.46434" lon="1.29966">
        <ele>158</ele>
        <time>2023-03-14T13:51:24.777Z</time>
      </trkpt>
      <trkpt lat="49.46434" lon="1.29975">
        <ele>158</ele>
        <time>2023-03-14T13:51:29.422Z</time>
      </trkpt>
      <trkpt lat="49.46434" lon="1.29983">
        <ele>158</ele>
        <time>2023-03-14T13:51:33.948Z</time>
      </trkpt>
      <trkpt lat="49.46433" lon="1.29992">
        <ele>159</ele>
        <time>2023-03-14T13:51:38.593Z</time>
      </trkpt>
      <trkpt lat="49.46433" lon="1.30001">
        <ele>159</ele>
        <time>2023-03-14T13:51:43Z</time>
      </trkpt>
      <trkpt lat="49.46432" lon="1.3001">
        <ele>159</ele>
        <time>2023-03-14T13:51:47.526Z</time>
      </trkpt>
      <trkpt lat="49.46433" lon="1.30018">
        <ele>159</ele>
        <time>2023-03-14T13:51:52.051Z</time>
      </trkpt>
      <trkpt lat="49.46433" lon="1.30026">
        <ele>159</ele>
        <time>2023-03-14T13:51:56.577Z</time>
      </trkpt>
      <trkpt lat="49.46434" lon="1.30036">
        <ele>159</ele>
        <time>2023-03-14T13:52:01.222Z</time>
      </trkpt>
      <trkpt lat="49.46434" lon="1.30044">
        <ele>160</ele>
        <time>2023-03-14T13:52:05.748Z</time>
      </trkpt>
      <trkpt lat="49.46432" lon="1.30053">
        <ele>160</ele>
        <time>2023-03-14T13:52:10.393Z</time>
      </trkpt>
      <trkpt lat="49.46431" lon="1.30061">
        <ele>160</ele>
        <time>2023-03-14T13:52:15.038Z</time>
      </trkpt>
      <trkpt lat="49.46431" lon="1.30069">
        <ele>160</ele>
        <time>2023-03-14T13:52:19.683Z</time>
      </trkpt>
      <trkpt lat="49.46431" lon="1.30077">
        <ele>160</ele>
        <time>2023-03-14T13:52:24.296Z</time>
      </trkpt>
      <trkpt lat="49.46431" lon="1.30086">
        <ele>160</ele>
        <time>2023-03-14T13:52:28.854Z</time>
      </trkpt>
      <trkpt lat="49.46431" lon="1.30093">
        <ele>160</ele>
        <time>2023-03-14T13:52:33.022Z</time>
      </trkpt>
      <trkpt lat="49.46431" lon="1.30101">
        <ele>160</ele>
        <time>2023-03-14T13:52:37.191Z</time>
      </trkpt>
      <trkpt lat="49.4643" lon="1.30109">
        <ele>160</ele>
        <time>2023-03-14T13:52:41.836Z</time>
      </trkpt>
      <trkpt lat="49.4643" lon="1.30118">
        <ele>160</ele>
        <time>2023-03-14T13:52:46.289Z</time>
      </trkpt>
      <trkpt lat="49.4643" lon="1.30125">
        <ele>160</ele>
        <time>2023-03-14T13:52:50.406Z</time>
      </trkpt>
      <trkpt lat="49.46429" lon="1.30134">
        <ele>160</ele>
        <time>2023-03-14T13:52:54.341Z</time>
      </trkpt>
      <trkpt lat="49.46429" lon="1.30142">
        <ele>160</ele>
        <time>2023-03-14T13:52:58.986Z</time>
      </trkpt>
      <trkpt lat="49.46428" lon="1.3015">
        <ele>160</ele>
        <time>2023-03-14T13:53:03.393Z</time>
      </trkpt>
      <trkpt lat="49.46427" lon="1.30159">
        <ele>160</ele>
        <time>2023-03-14T13:53:07.919Z</time>
      </trkpt>
      <trkpt lat="49.46427" lon="1.30166">
        <ele>160</ele>
        <time>2023-03-14T13:53:11.849Z</time>
      </trkpt>
      <trkpt lat="49.46426" lon="1.30174">
        <ele>160</ele>
        <time>2023-03-14T13:53:16.018Z</time>
      </trkpt>
      <trkpt lat="49.46426" lon="1.30182">
        <ele>159</ele>
        <time>2023-03-14T13:53:20.633Z</time>
      </trkpt>
      <trkpt lat="49.46427" lon="1.3019">
        <ele>159</ele>
        <time>2023-03-14T13:53:25.177Z</time>
      </trkpt>
      <trkpt lat="49.46431" lon="1.30196">
        <ele>158</ele>
        <time>2023-03-14T13:53:29.238Z</time>
      </trkpt>
      <trkpt lat="49.46434" lon="1.30201">
        <ele>158</ele>
        <time>2023-03-14T13:53:33.406Z</time>
      </trkpt>
      <trkpt lat="49.46437" lon="1.30207">
        <ele>158</ele>
        <time>2023-03-14T13:53:37.442Z</time>
      </trkpt>
      <trkpt lat="49.4644" lon="1.30212">
        <ele>158</ele>
        <time>2023-03-14T13:53:41.624Z</time>
      </trkpt>
      <trkpt lat="49.46445" lon="1.30217">
        <ele>158</ele>
        <time>2023-03-14T13:53:46.269Z</time>
      </trkpt>
      <trkpt lat="49.46448" lon="1.30225">
        <ele>158</ele>
        <time>2023-03-14T13:53:50.795Z</time>
      </trkpt>
      <trkpt lat="49.46451" lon="1.30231">
        <ele>158</ele>
        <time>2023-03-14T13:53:54.845Z</time>
      </trkpt>
      <trkpt lat="49.46454" lon="1.30237">
        <ele>157</ele>
        <time>2023-03-14T13:53:59.013Z</time>
      </trkpt>
      <trkpt lat="49.46457" lon="1.30244">
        <ele>157</ele>
        <time>2023-03-14T13:54:03.658Z</time>
      </trkpt>
      <trkpt lat="49.4646" lon="1.30249">
        <ele>156</ele>
        <time>2023-03-14T13:54:07.588Z</time>
      </trkpt>
      <trkpt lat="49.46465" lon="1.30255">
        <ele>156</ele>
        <time>2023-03-14T13:54:12.233Z</time>
      </trkpt>
      <trkpt lat="49.46468" lon="1.30261">
        <ele>156</ele>
        <time>2023-03-14T13:54:16.294Z</time>
      </trkpt>
      <trkpt lat="49.46471" lon="1.30267">
        <ele>156</ele>
        <time>2023-03-14T13:54:20.690Z</time>
      </trkpt>
      <trkpt lat="49.46474" lon="1.30275">
        <ele>156</ele>
        <time>2023-03-14T13:54:25.292Z</time>
      </trkpt>
      <trkpt lat="49.46476" lon="1.30282">
        <ele>156</ele>
        <time>2023-03-14T13:54:29.292Z</time>
      </trkpt>
      <trkpt lat="49.46479" lon="1.30288">
        <ele>156</ele>
        <time>2023-03-14T13:54:33.433Z</time>
      </trkpt>
      <trkpt lat="49.46483" lon="1.30295">
        <ele>156</ele>
        <time>2023-03-14T13:54:37.959Z</time>
      </trkpt>
      <trkpt lat="49.46486" lon="1.30301">
        <ele>155</ele>
        <time>2023-03-14T13:54:42.604Z</time>
      </trkpt>
      <trkpt lat="49.4649" lon="1.30308">
        <ele>155</ele>
        <time>2023-03-14T13:54:47.249Z</time>
      </trkpt>
      <trkpt lat="49.46493" lon="1.30316">
        <ele>155</ele>
        <time>2023-03-14T13:54:51.775Z</time>
      </trkpt>
      <trkpt lat="49.46497" lon="1.30322">
        <ele>154</ele>
        <time>2023-03-14T13:54:56.420Z</time>
      </trkpt>
      <trkpt lat="49.46501" lon="1.30328">
        <ele>154</ele>
        <time>2023-03-14T13:55:00.827Z</time>
      </trkpt>
      <trkpt lat="49.46505" lon="1.30335">
        <ele>154</ele>
        <time>2023-03-14T13:55:05.442Z</time>
      </trkpt>
      <trkpt lat="49.46508" lon="1.30342">
        <ele>154</ele>
        <time>2023-03-14T13:55:09.878Z</time>
      </trkpt>
      <trkpt lat="49.46511" lon="1.30348">
        <ele>153</ele>
        <time>2023-03-14T13:55:13.809Z</time>
      </trkpt>
      <trkpt lat="49.46513" lon="1.30354">
        <ele>153</ele>
        <time>2023-03-14T13:55:17.858Z</time>
      </trkpt>
      <trkpt lat="49.46517" lon="1.30359">
        <ele>153</ele>
        <time>2023-03-14T13:55:22.027Z</time>
      </trkpt>
      <trkpt lat="49.46521" lon="1.30365">
        <ele>153</ele>
        <time>2023-03-14T13:55:26.553Z</time>
      </trkpt>
      <trkpt lat="49.46524" lon="1.30372">
        <ele>153</ele>
        <time>2023-03-14T13:55:30.602Z</time>
      </trkpt>
      <trkpt lat="49.46527" lon="1.30379">
        <ele>153</ele>
        <time>2023-03-14T13:55:35.009Z</time>
      </trkpt>
      <trkpt lat="49.46531" lon="1.30388">
        <ele>153</ele>
        <time>2023-03-14T13:55:39.654Z</time>
      </trkpt>
      <trkpt lat="49.46534" lon="1.30395">
        <ele>153</ele>
        <time>2023-03-14T13:55:44.180Z</time>
      </trkpt>
      <trkpt lat="49.46538" lon="1.30402">
        <ele>153</ele>
        <time>2023-03-14T13:55:48.705Z</time>
      </trkpt>
      <trkpt lat="49.46541" lon="1.30409">
        <ele>152</ele>
        <time>2023-03-14T13:55:53.231Z</time>
      </trkpt>
      <trkpt lat="49.46544" lon="1.30416">
        <ele>153</ele>
        <time>2023-03-14T13:55:57.872Z</time>
      </trkpt>
      <trkpt lat="49.46547" lon="1.30423">
        <ele>153</ele>
        <time>2023-03-14T13:56:02.402Z</time>
      </trkpt>
      <trkpt lat="49.46551" lon="1.3043">
        <ele>153</ele>
        <time>2023-03-14T13:56:07.018Z</time>
      </trkpt>
      <trkpt lat="49.46554" lon="1.30437">
        <ele>153</ele>
        <time>2023-03-14T13:56:11.442Z</time>
      </trkpt>
      <trkpt lat="49.46557" lon="1.30443">
        <ele>153</ele>
        <time>2023-03-14T13:56:15.619Z</time>
      </trkpt>
      <trkpt lat="49.46559" lon="1.30449">
        <ele>153</ele>
        <time>2023-03-14T13:56:19.553Z</time>
      </trkpt>
      <trkpt lat="49.46563" lon="1.30455">
        <ele>153</ele>
        <time>2023-03-14T13:56:24.198Z</time>
      </trkpt>
      <trkpt lat="49.46566" lon="1.30462">
        <ele>152</ele>
        <time>2023-03-14T13:56:28.723Z</time>
      </trkpt>
      <trkpt lat="49.46568" lon="1.30469">
        <ele>152</ele>
        <time>2023-03-14T13:56:33.296Z</time>
      </trkpt>
      <trkpt lat="49.46571" lon="1.30475">
        <ele>152</ele>
        <time>2023-03-14T13:56:37.418Z</time>
      </trkpt>
      <trkpt lat="49.46574" lon="1.30482">
        <ele>152</ele>
        <time>2023-03-14T13:56:41.825Z</time>
      </trkpt>
      <trkpt lat="49.46577" lon="1.30488">
        <ele>152</ele>
        <time>2023-03-14T13:56:45.993Z</time>
      </trkpt>
      <trkpt lat="49.4658" lon="1.30495">
        <ele>152</ele>
        <time>2023-03-14T13:56:50.043Z</time>
      </trkpt>
      <trkpt lat="49.46581" lon="1.30502">
        <ele>152</ele>
        <time>2023-03-14T13:56:54.568Z</time>
      </trkpt>
      <trkpt lat="49.46582" lon="1.3051">
        <ele>152</ele>
        <time>2023-03-14T13:56:58.618Z</time>
      </trkpt>
      <trkpt lat="49.46583" lon="1.30518">
        <ele>151</ele>
        <time>2023-03-14T13:57:02.792Z</time>
      </trkpt>
      <trkpt lat="49.46585" lon="1.30526">
        <ele>151</ele>
        <time>2023-03-14T13:57:06.836Z</time>
      </trkpt>
      <trkpt lat="49.46587" lon="1.30533">
        <ele>151</ele>
        <time>2023-03-14T13:57:11.442Z</time>
      </trkpt>
      <trkpt lat="49.46588" lon="1.30542">
        <ele>151</ele>
        <time>2023-03-14T13:57:16.007Z</time>
      </trkpt>
      <trkpt lat="49.4659" lon="1.3055">
        <ele>151</ele>
        <time>2023-03-14T13:57:20.652Z</time>
      </trkpt>
      <trkpt lat="49.46591" lon="1.30558">
        <ele>151</ele>
        <time>2023-03-14T13:57:25.177Z</time>
      </trkpt>
      <trkpt lat="49.46592" lon="1.30567">
        <ele>151</ele>
        <time>2023-03-14T13:57:29.822Z</time>
      </trkpt>
      <trkpt lat="49.46593" lon="1.30574">
        <ele>151</ele>
        <time>2023-03-14T13:57:33.991Z</time>
      </trkpt>
      <trkpt lat="49.46594" lon="1.30581">
        <ele>151</ele>
        <time>2023-03-14T13:57:38.040Z</time>
      </trkpt>
      <trkpt lat="49.46596" lon="1.3059">
        <ele>151</ele>
        <time>2023-03-14T13:57:42.804Z</time>
      </trkpt>
      <trkpt lat="49.46598" lon="1.30598">
        <ele>151</ele>
        <time>2023-03-14T13:57:47.442Z</time>
      </trkpt>
      <trkpt lat="49.46599" lon="1.30607">
        <ele>151</ele>
        <time>2023-03-14T13:57:52.213Z</time>
      </trkpt>
      <trkpt lat="49.46601" lon="1.30614">
        <ele>151</ele>
        <time>2023-03-14T13:57:56.295Z</time>
      </trkpt>
      <trkpt lat="49.46602" lon="1.30621">
        <ele>151</ele>
        <time>2023-03-14T13:58:00.299Z</time>
      </trkpt>
      <trkpt lat="49.46603" lon="1.3063">
        <ele>151</ele>
        <time>2023-03-14T13:58:04.838Z</time>
      </trkpt>
      <trkpt lat="49.46605" lon="1.30638">
        <ele>151</ele>
        <time>2023-03-14T13:58:09.293Z</time>
      </trkpt>
      <trkpt lat="49.46606" lon="1.30646">
        <ele>151</ele>
        <time>2023-03-14T13:58:13.413Z</time>
      </trkpt>
      <trkpt lat="49.46608" lon="1.30654">
        <ele>151</ele>
        <time>2023-03-14T13:58:18.416Z</time>
      </trkpt>
      <trkpt lat="49.46609" lon="1.30662">
        <ele>151</ele>
        <time>2023-03-14T13:58:22.465Z</time>
      </trkpt>
      <trkpt lat="49.46611" lon="1.3067">
        <ele>151</ele>
        <time>2023-03-14T13:58:26.872Z</time>
      </trkpt>
      <trkpt lat="49.46612" lon="1.30677">
        <ele>151</ele>
        <time>2023-03-14T13:58:31.304Z</time>
      </trkpt>
      <trkpt lat="49.46615" lon="1.30684">
        <ele>151</ele>
        <time>2023-03-14T13:58:35.804Z</time>
      </trkpt>
      <trkpt lat="49.46616" lon="1.30691">
        <ele>151</ele>
        <time>2023-03-14T13:58:40.442Z</time>
      </trkpt>
      <trkpt lat="49.46618" lon="1.30699">
        <ele>151</ele>
        <time>2023-03-14T13:58:45.213Z</time>
      </trkpt>
      <trkpt lat="49.46619" lon="1.30706">
        <ele>151</ele>
        <time>2023-03-14T13:58:49.305Z</time>
      </trkpt>
      <trkpt lat="49.46621" lon="1.30713">
        <ele>151</ele>
        <time>2023-03-14T13:58:53.431Z</time>
      </trkpt>
      <trkpt lat="49.46623" lon="1.3072">
        <ele>151</ele>
        <time>2023-03-14T13:58:57.600Z</time>
      </trkpt>
      <trkpt lat="49.46624" lon="1.30727">
        <ele>151</ele>
        <time>2023-03-14T13:59:01.654Z</time>
      </trkpt>
      <trkpt lat="49.46625" lon="1.30736">
        <ele>152</ele>
        <time>2023-03-14T13:59:06.056Z</time>
      </trkpt>
      <trkpt lat="49.46627" lon="1.30743">
        <ele>152</ele>
        <time>2023-03-14T13:59:10.442Z</time>
      </trkpt>
      <trkpt lat="49.46629" lon="1.30752">
        <ele>152</ele>
        <time>2023-03-14T13:59:15.096Z</time>
      </trkpt>
      <trkpt lat="49.46631" lon="1.3076">
        <ele>152</ele>
        <time>2023-03-14T13:59:19.634Z</time>
      </trkpt>
      <trkpt lat="49.46633" lon="1.30768">
        <ele>151</ele>
        <time>2023-03-14T13:59:24.040Z</time>
      </trkpt>
      <trkpt lat="49.46635" lon="1.30775">
        <ele>151</ele>
        <time>2023-03-14T13:59:28.209Z</time>
      </trkpt>
      <trkpt lat="49.46637" lon="1.30782">
        <ele>151</ele>
        <time>2023-03-14T13:59:32.258Z</time>
      </trkpt>
      <trkpt lat="49.46639" lon="1.30791">
        <ele>151</ele>
        <time>2023-03-14T13:59:36.784Z</time>
      </trkpt>
      <trkpt lat="49.4664" lon="1.30798">
        <ele>150</ele>
        <time>2023-03-14T13:59:40.849Z</time>
      </trkpt>
      <trkpt lat="49.46642" lon="1.30806">
        <ele>150</ele>
        <time>2023-03-14T13:59:44.764Z</time>
      </trkpt>
      <trkpt lat="49.46645" lon="1.30814">
        <ele>150</ele>
        <time>2023-03-14T13:59:49.297Z</time>
      </trkpt>
      <trkpt lat="49.46648" lon="1.30821">
        <ele>149</ele>
        <time>2023-03-14T13:59:53.816Z</time>
      </trkpt>
      <trkpt lat="49.4665" lon="1.30828">
        <ele>149</ele>
        <time>2023-03-14T13:59:57.865Z</time>
      </trkpt>
      <trkpt lat="49.46652" lon="1.30835">
        <ele>149</ele>
        <time>2023-03-14T14:00:02.034Z</time>
      </trkpt>
      <trkpt lat="49.46653" lon="1.30842">
        <ele>149</ele>
        <time>2023-03-14T14:00:06.560Z</time>
      </trkpt>
      <trkpt lat="49.46655" lon="1.30851">
        <ele>149</ele>
        <time>2023-03-14T14:00:11.205Z</time>
      </trkpt>
      <trkpt lat="49.46658" lon="1.30859">
        <ele>149</ele>
        <time>2023-03-14T14:00:15.850Z</time>
      </trkpt>
      <trkpt lat="49.4666" lon="1.30867">
        <ele>149</ele>
        <time>2023-03-14T14:00:20.302Z</time>
      </trkpt>
      <trkpt lat="49.46661" lon="1.30877">
        <ele>149</ele>
        <time>2023-03-14T14:00:24.901Z</time>
      </trkpt>
      <trkpt lat="49.46664" lon="1.30884">
        <ele>149</ele>
        <time>2023-03-14T14:00:28.832Z</time>
      </trkpt>
      <trkpt lat="49.46666" lon="1.30891">
        <ele>149</ele>
        <time>2023-03-14T14:00:33.493Z</time>
      </trkpt>
      <trkpt lat="49.46669" lon="1.30897">
        <ele>149</ele>
        <time>2023-03-14T14:00:37.407Z</time>
      </trkpt>
      <trkpt lat="49.46672" lon="1.30904">
        <ele>148</ele>
        <time>2023-03-14T14:00:42.052Z</time>
      </trkpt>
      <trkpt lat="49.46675" lon="1.30912">
        <ele>148</ele>
        <time>2023-03-14T14:00:46.697Z</time>
      </trkpt>
      <trkpt lat="49.46678" lon="1.30919">
        <ele>148</ele>
        <time>2023-03-14T14:00:50.746Z</time>
      </trkpt>
      <trkpt lat="49.4668" lon="1.30926">
        <ele>148</ele>
        <time>2023-03-14T14:00:54.796Z</time>
      </trkpt>
      <trkpt lat="49.46681" lon="1.30934">
        <ele>149</ele>
        <time>2023-03-14T14:00:58.845Z</time>
      </trkpt>
      <trkpt lat="49.46684" lon="1.30943">
        <ele>149</ele>
        <time>2023-03-14T14:01:03.847Z</time>
      </trkpt>
      <trkpt lat="49.46687" lon="1.3095">
        <ele>149</ele>
        <time>2023-03-14T14:01:08.492Z</time>
      </trkpt>
      <trkpt lat="49.4669" lon="1.30957">
        <ele>149</ele>
        <time>2023-03-14T14:01:12.542Z</time>
      </trkpt>
      <trkpt lat="49.46692" lon="1.30964">
        <ele>149</ele>
        <time>2023-03-14T14:01:16.591Z</time>
      </trkpt>
      <trkpt lat="49.46695" lon="1.30972">
        <ele>149</ele>
        <time>2023-03-14T14:01:21.236Z</time>
      </trkpt>
      <trkpt lat="49.46699" lon="1.30979">
        <ele>149</ele>
        <time>2023-03-14T14:01:25.762Z</time>
      </trkpt>
      <trkpt lat="49.46702" lon="1.30987">
        <ele>148</ele>
        <time>2023-03-14T14:01:30.407Z</time>
      </trkpt>
      <trkpt lat="49.46706" lon="1.30993">
        <ele>148</ele>
        <time>2023-03-14T14:01:34.442Z</time>
      </trkpt>
      <trkpt lat="49.4671" lon="1.31">
        <ele>149</ele>
        <time>2023-03-14T14:01:38.847Z</time>
      </trkpt>
      <trkpt lat="49.46713" lon="1.31007">
        <ele>149</ele>
        <time>2023-03-14T14:01:42.793Z</time>
      </trkpt>
      <trkpt lat="49.46716" lon="1.31014">
        <ele>149</ele>
        <time>2023-03-14T14:01:47.297Z</time>
      </trkpt>
      <trkpt lat="49.4672" lon="1.31019">
        <ele>148</ele>
        <time>2023-03-14T14:01:51.295Z</time>
      </trkpt>
      <trkpt lat="49.46724" lon="1.31024">
        <ele>148</ele>
        <time>2023-03-14T14:01:55.418Z</time>
      </trkpt>
      <trkpt lat="49.46727" lon="1.31031">
        <ele>148</ele>
        <time>2023-03-14T14:01:59.825Z</time>
      </trkpt>
      <trkpt lat="49.46732" lon="1.31037">
        <ele>148</ele>
        <time>2023-03-14T14:02:04.442Z</time>
      </trkpt>
      <trkpt lat="49.46736" lon="1.31043">
        <ele>147</ele>
        <time>2023-03-14T14:02:08.996Z</time>
      </trkpt>
      <trkpt lat="49.4674" lon="1.31047">
        <ele>148</ele>
        <time>2023-03-14T14:02:13.402Z</time>
      </trkpt>
      <trkpt lat="49.46744" lon="1.31053">
        <ele>148</ele>
        <time>2023-03-14T14:02:17.442Z</time>
      </trkpt>
      <trkpt lat="49.46748" lon="1.31059">
        <ele>148</ele>
        <time>2023-03-14T14:02:21.620Z</time>
      </trkpt>
      <trkpt lat="49.46752" lon="1.31065">
        <ele>148</ele>
        <time>2023-03-14T14:02:26.212Z</time>
      </trkpt>
      <trkpt lat="49.46757" lon="1.31069">
        <ele>148</ele>
        <time>2023-03-14T14:02:30.672Z</time>
      </trkpt>
      <trkpt lat="49.46761" lon="1.31074">
        <ele>146</ele>
        <time>2023-03-14T14:02:35.198Z</time>
      </trkpt>
      <trkpt lat="49.46766" lon="1.3108">
        <ele>147</ele>
        <time>2023-03-14T14:02:39.843Z</time>
      </trkpt>
      <trkpt lat="49.4677" lon="1.31086">
        <ele>147</ele>
        <time>2023-03-14T14:02:44.369Z</time>
      </trkpt>
      <trkpt lat="49.46774" lon="1.3109">
        <ele>147</ele>
        <time>2023-03-14T14:02:48.418Z</time>
      </trkpt>
      <trkpt lat="49.46779" lon="1.31094">
        <ele>147</ele>
        <time>2023-03-14T14:02:52.587Z</time>
      </trkpt>
      <trkpt lat="49.46783" lon="1.311">
        <ele>145</ele>
        <time>2023-03-14T14:02:57.244Z</time>
      </trkpt>
      <trkpt lat="49.46787" lon="1.31106">
        <ele>145</ele>
        <time>2023-03-14T14:03:01.758Z</time>
      </trkpt>
      <trkpt lat="49.46791" lon="1.31111">
        <ele>145</ele>
        <time>2023-03-14T14:03:06.307Z</time>
      </trkpt>
      <trkpt lat="49.46796" lon="1.31116">
        <ele>145</ele>
        <time>2023-03-14T14:03:10.690Z</time>
      </trkpt>
      <trkpt lat="49.46799" lon="1.3112">
        <ele>145</ele>
        <time>2023-03-14T14:03:14.740Z</time>
      </trkpt>
      <trkpt lat="49.46803" lon="1.31124">
        <ele>145</ele>
        <time>2023-03-14T14:03:18.789Z</time>
      </trkpt>
      <trkpt lat="49.46807" lon="1.31128">
        <ele>144</ele>
        <time>2023-03-14T14:03:23.315Z</time>
      </trkpt>
      <trkpt lat="49.46811" lon="1.31135">
        <ele>144</ele>
        <time>2023-03-14T14:03:27.841Z</time>
      </trkpt>
      <trkpt lat="49.46814" lon="1.3114">
        <ele>144</ele>
        <time>2023-03-14T14:03:32.367Z</time>
      </trkpt>
      <trkpt lat="49.46819" lon="1.31143">
        <ele>144</ele>
        <time>2023-03-14T14:03:36.416Z</time>
      </trkpt>
      <trkpt lat="49.46822" lon="1.31148">
        <ele>145</ele>
        <time>2023-03-14T14:03:40.942Z</time>
      </trkpt>
      <trkpt lat="49.46824" lon="1.3115">
        <ele>145</ele>
        <time>2023-03-14T14:03:44.991Z</time>
      </trkpt>
      <trkpt lat="49.46828" lon="1.31152">
        <ele>145</ele>
        <time>2023-03-14T14:03:50.202Z</time>
      </trkpt>
      <trkpt lat="49.46828" lon="1.31152">
        <ele>145</ele>
        <time>2023-03-14T14:03:54.043Z</time>
      </trkpt>
      <trkpt lat="49.46833" lon="1.31153">
        <ele>145</ele>
        <time>2023-03-14T14:03:57.973Z</time>
      </trkpt>
      <trkpt lat="49.46837" lon="1.31161">
        <ele>145</ele>
        <time>2023-03-14T14:05:22.303Z</time>
      </trkpt>
      <trkpt lat="49.46838" lon="1.31163">
        <ele>145</ele>
        <time>2023-03-14T14:05:27.300Z</time>
      </trkpt>
      <trkpt lat="49.46839" lon="1.31165">
        <ele>145</ele>
        <time>2023-03-14T14:05:31.785Z</time>
      </trkpt>
      <trkpt lat="49.4684" lon="1.3117">
        <ele>145</ele>
        <time>2023-03-14T14:05:35.835Z</time>
      </trkpt>
      <trkpt lat="49.46845" lon="1.31176">
        <ele>145</ele>
        <time>2023-03-14T14:05:40.003Z</time>
      </trkpt>
      <trkpt lat="49.46851" lon="1.3118">
        <ele>146</ele>
        <time>2023-03-14T14:05:44.052Z</time>
      </trkpt>
      <trkpt lat="49.46857" lon="1.31184">
        <ele>146</ele>
        <time>2023-03-14T14:05:48.816Z</time>
      </trkpt>
      <trkpt lat="49.46862" lon="1.31188">
        <ele>146</ele>
        <time>2023-03-14T14:05:53.342Z</time>
      </trkpt>
      <trkpt lat="49.46867" lon="1.31192">
        <ele>146</ele>
        <time>2023-03-14T14:05:57.868Z</time>
      </trkpt>
      <trkpt lat="49.46872" lon="1.31196">
        <ele>146</ele>
        <time>2023-03-14T14:06:02.392Z</time>
      </trkpt>
      <trkpt lat="49.46877" lon="1.31202">
        <ele>148</ele>
        <time>2023-03-14T14:06:06.801Z</time>
      </trkpt>
      <trkpt lat="49.46882" lon="1.31205">
        <ele>148</ele>
        <time>2023-03-14T14:06:11.298Z</time>
      </trkpt>
      <trkpt lat="49.46887" lon="1.3121">
        <ele>148</ele>
        <time>2023-03-14T14:06:15.313Z</time>
      </trkpt>
      <trkpt lat="49.46891" lon="1.31214">
        <ele>148</ele>
        <time>2023-03-14T14:06:19.295Z</time>
      </trkpt>
      <trkpt lat="49.46896" lon="1.31219">
        <ele>148</ele>
        <time>2023-03-14T14:06:23.832Z</time>
      </trkpt>
      <trkpt lat="49.469" lon="1.31223">
        <ele>148</ele>
        <time>2023-03-14T14:06:28.442Z</time>
      </trkpt>
      <trkpt lat="49.46904" lon="1.31229">
        <ele>148</ele>
        <time>2023-03-14T14:06:32.974Z</time>
      </trkpt>
      <trkpt lat="49.46908" lon="1.31235">
        <ele>148</ele>
        <time>2023-03-14T14:06:37.410Z</time>
      </trkpt>
      <trkpt lat="49.46911" lon="1.31241">
        <ele>148</ele>
        <time>2023-03-14T14:06:41.442Z</time>
      </trkpt>
      <trkpt lat="49.46915" lon="1.31248">
        <ele>148</ele>
        <time>2023-03-14T14:06:45.442Z</time>
      </trkpt>
      <trkpt lat="49.46918" lon="1.31254">
        <ele>148</ele>
        <time>2023-03-14T14:06:49.439Z</time>
      </trkpt>
      <trkpt lat="49.46921" lon="1.3126">
        <ele>148</ele>
        <time>2023-03-14T14:06:53.607Z</time>
      </trkpt>
      <trkpt lat="49.46924" lon="1.31267">
        <ele>148</ele>
        <time>2023-03-14T14:06:58.133Z</time>
      </trkpt>
      <trkpt lat="49.46927" lon="1.31274">
        <ele>148</ele>
        <time>2023-03-14T14:07:02.778Z</time>
      </trkpt>
      <trkpt lat="49.46929" lon="1.31281">
        <ele>148</ele>
        <time>2023-03-14T14:07:07.303Z</time>
      </trkpt>
      <trkpt lat="49.46933" lon="1.31287">
        <ele>148</ele>
        <time>2023-03-14T14:07:11.830Z</time>
      </trkpt>
      <trkpt lat="49.46936" lon="1.31292">
        <ele>148</ele>
        <time>2023-03-14T14:07:15.998Z</time>
      </trkpt>
      <trkpt lat="49.46939" lon="1.31297">
        <ele>148</ele>
        <time>2023-03-14T14:07:20.048Z</time>
      </trkpt>
      <trkpt lat="49.46942" lon="1.31304">
        <ele>148</ele>
        <time>2023-03-14T14:07:24.574Z</time>
      </trkpt>
      <trkpt lat="49.46945" lon="1.31311">
        <ele>148</ele>
        <time>2023-03-14T14:07:29.219Z</time>
      </trkpt>
      <trkpt lat="49.46949" lon="1.31317">
        <ele>148</ele>
        <time>2023-03-14T14:07:33.297Z</time>
      </trkpt>
      <trkpt lat="49.46954" lon="1.31322">
        <ele>148</ele>
        <time>2023-03-14T14:07:37.379Z</time>
      </trkpt>
      <trkpt lat="49.46958" lon="1.31327">
        <ele>148</ele>
        <time>2023-03-14T14:07:41.843Z</time>
      </trkpt>
      <trkpt lat="49.46963" lon="1.31334">
        <ele>148</ele>
        <time>2023-03-14T14:07:46.299Z</time>
      </trkpt>
      <trkpt lat="49.46966" lon="1.31339">
        <ele>148</ele>
        <time>2023-03-14T14:07:50.335Z</time>
      </trkpt>
      <trkpt lat="49.46969" lon="1.31346">
        <ele>148</ele>
        <time>2023-03-14T14:07:54.825Z</time>
      </trkpt>
      <trkpt lat="49.46972" lon="1.31352">
        <ele>148</ele>
        <time>2023-03-14T14:07:58.756Z</time>
      </trkpt>
      <trkpt lat="49.46975" lon="1.31359">
        <ele>148</ele>
        <time>2023-03-14T14:08:03.282Z</time>
      </trkpt>
      <trkpt lat="49.46978" lon="1.31367">
        <ele>148</ele>
        <time>2023-03-14T14:08:07.808Z</time>
      </trkpt>
      <trkpt lat="49.46981" lon="1.31373">
        <ele>148</ele>
        <time>2023-03-14T14:08:12.333Z</time>
      </trkpt>
      <trkpt lat="49.46984" lon="1.31381">
        <ele>147</ele>
        <time>2023-03-14T14:08:16.859Z</time>
      </trkpt>
      <trkpt lat="49.46986" lon="1.31388">
        <ele>147</ele>
        <time>2023-03-14T14:08:21.623Z</time>
      </trkpt>
      <trkpt lat="49.46988" lon="1.31395">
        <ele>147</ele>
        <time>2023-03-14T14:08:25.673Z</time>
      </trkpt>
      <trkpt lat="49.46989" lon="1.31402">
        <ele>147</ele>
        <time>2023-03-14T14:08:29.603Z</time>
      </trkpt>
      <trkpt lat="49.46991" lon="1.3141">
        <ele>147</ele>
        <time>2023-03-14T14:08:34.248Z</time>
      </trkpt>
      <trkpt lat="49.46993" lon="1.31418">
        <ele>147</ele>
        <time>2023-03-14T14:08:38.893Z</time>
      </trkpt>
      <trkpt lat="49.46994" lon="1.31427">
        <ele>147</ele>
        <time>2023-03-14T14:08:43.294Z</time>
      </trkpt>
      <trkpt lat="49.46996" lon="1.31435">
        <ele>146</ele>
        <time>2023-03-14T14:08:47.826Z</time>
      </trkpt>
      <trkpt lat="49.46999" lon="1.31442">
        <ele>146</ele>
        <time>2023-03-14T14:08:52.442Z</time>
      </trkpt>
      <trkpt lat="49.47003" lon="1.31448">
        <ele>146</ele>
        <time>2023-03-14T14:08:56.996Z</time>
      </trkpt>
      <trkpt lat="49.47007" lon="1.31455">
        <ele>146</ele>
        <time>2023-03-14T14:09:01.641Z</time>
      </trkpt>
      <trkpt lat="49.47009" lon="1.31462">
        <ele>146</ele>
        <time>2023-03-14T14:09:06.167Z</time>
      </trkpt>
      <trkpt lat="49.47012" lon="1.31471">
        <ele>146</ele>
        <time>2023-03-14T14:09:10.693Z</time>
      </trkpt>
      <trkpt lat="49.47015" lon="1.31478">
        <ele>147</ele>
        <time>2023-03-14T14:09:15.292Z</time>
      </trkpt>
      <trkpt lat="49.47019" lon="1.31484">
        <ele>147</ele>
        <time>2023-03-14T14:09:19.864Z</time>
      </trkpt>
      <trkpt lat="49.47023" lon="1.3149">
        <ele>147</ele>
        <time>2023-03-14T14:09:24.628Z</time>
      </trkpt>
      <trkpt lat="49.47026" lon="1.31498">
        <ele>147</ele>
        <time>2023-03-14T14:09:29.035Z</time>
      </trkpt>
      <trkpt lat="49.4703" lon="1.31504">
        <ele>147</ele>
        <time>2023-03-14T14:09:33.680Z</time>
      </trkpt>
      <trkpt lat="49.47034" lon="1.3151">
        <ele>147</ele>
        <time>2023-03-14T14:09:37.744Z</time>
      </trkpt>
      <trkpt lat="49.47038" lon="1.31514">
        <ele>147</ele>
        <time>2023-03-14T14:09:42.299Z</time>
      </trkpt>
      <trkpt lat="49.47041" lon="1.31514">
        <ele>147</ele>
        <time>2023-03-14T14:09:45.828Z</time>
      </trkpt>
      <trkpt lat="49.47045" lon="1.31519">
        <ele>148</ele>
        <time>2023-03-14T14:09:50.306Z</time>
      </trkpt>
      <trkpt lat="49.47049" lon="1.31524">
        <ele>148</ele>
        <time>2023-03-14T14:09:54.403Z</time>
      </trkpt>
      <trkpt lat="49.47052" lon="1.31532">
        <ele>148</ele>
        <time>2023-03-14T14:09:59.048Z</time>
      </trkpt>
      <trkpt lat="49.47055" lon="1.31539">
        <ele>148</ele>
        <time>2023-03-14T14:10:03.492Z</time>
      </trkpt>
      <trkpt lat="49.47057" lon="1.31548">
        <ele>147</ele>
        <time>2023-03-14T14:10:07.981Z</time>
      </trkpt>
      <trkpt lat="49.4706" lon="1.31556">
        <ele>147</ele>
        <time>2023-03-14T14:10:12.626Z</time>
      </trkpt>
      <trkpt lat="49.47062" lon="1.31565">
        <ele>147</ele>
        <time>2023-03-14T14:10:17.167Z</time>
      </trkpt>
      <trkpt lat="49.47064" lon="1.31572">
        <ele>146</ele>
        <time>2023-03-14T14:10:21.082Z</time>
      </trkpt>
      <trkpt lat="49.47067" lon="1.3158">
        <ele>146</ele>
        <time>2023-03-14T14:10:25.574Z</time>
      </trkpt>
      <trkpt lat="49.4707" lon="1.31586">
        <ele>147</ele>
        <time>2023-03-14T14:10:29.538Z</time>
      </trkpt>
      <trkpt lat="49.47072" lon="1.31593">
        <ele>147</ele>
        <time>2023-03-14T14:10:33.945Z</time>
      </trkpt>
      <trkpt lat="49.47074" lon="1.316">
        <ele>146</ele>
        <time>2023-03-14T14:10:37.995Z</time>
      </trkpt>
      <trkpt lat="49.47075" lon="1.31606">
        <ele>146</ele>
        <time>2023-03-14T14:10:42.044Z</time>
      </trkpt>
      <trkpt lat="49.47078" lon="1.31614">
        <ele>146</ele>
        <time>2023-03-14T14:10:46.808Z</time>
      </trkpt>
      <trkpt lat="49.47081" lon="1.31621">
        <ele>146</ele>
        <time>2023-03-14T14:10:51.293Z</time>
      </trkpt>
      <trkpt lat="49.47083" lon="1.3163">
        <ele>147</ele>
        <time>2023-03-14T14:10:55.860Z</time>
      </trkpt>
      <trkpt lat="49.47086" lon="1.31638">
        <ele>147</ele>
        <time>2023-03-14T14:11:00.574Z</time>
      </trkpt>
      <trkpt lat="49.47089" lon="1.31647">
        <ele>147</ele>
        <time>2023-03-14T14:11:05.031Z</time>
      </trkpt>
      <trkpt lat="49.47091" lon="1.31655">
        <ele>147</ele>
        <time>2023-03-14T14:11:09.552Z</time>
      </trkpt>
      <trkpt lat="49.47094" lon="1.31663">
        <ele>147</ele>
        <time>2023-03-14T14:11:14.015Z</time>
      </trkpt>
      <trkpt lat="49.47097" lon="1.31671">
        <ele>147</ele>
        <time>2023-03-14T14:11:18.370Z</time>
      </trkpt>
      <trkpt lat="49.47099" lon="1.31679">
        <ele>146</ele>
        <time>2023-03-14T14:11:22.896Z</time>
      </trkpt>
      <trkpt lat="49.47101" lon="1.31686">
        <ele>146</ele>
        <time>2023-03-14T14:11:26.827Z</time>
      </trkpt>
      <trkpt lat="49.47103" lon="1.31691">
        <ele>146</ele>
        <time>2023-03-14T14:11:30.995Z</time>
      </trkpt>
      <trkpt lat="49.47107" lon="1.31698">
        <ele>146</ele>
        <time>2023-03-14T14:11:35.619Z</time>
      </trkpt>
      <trkpt lat="49.47109" lon="1.31704">
        <ele>146</ele>
        <time>2023-03-14T14:11:39.570Z</time>
      </trkpt>
      <trkpt lat="49.47112" lon="1.3171">
        <ele>146</ele>
        <time>2023-03-14T14:11:43.620Z</time>
      </trkpt>
      <trkpt lat="49.47116" lon="1.31716">
        <ele>146</ele>
        <time>2023-03-14T14:11:47.788Z</time>
      </trkpt>
      <trkpt lat="49.47119" lon="1.31723">
        <ele>146</ele>
        <time>2023-03-14T14:11:52.371Z</time>
      </trkpt>
      <trkpt lat="49.47123" lon="1.3173">
        <ele>146</ele>
        <time>2023-03-14T14:11:56.840Z</time>
      </trkpt>
      <trkpt lat="49.47127" lon="1.31734">
        <ele>143</ele>
        <time>2023-03-14T14:12:00.890Z</time>
      </trkpt>
      <trkpt lat="49.47131" lon="1.31738">
        <ele>143</ele>
        <time>2023-03-14T14:12:05.416Z</time>
      </trkpt>
      <trkpt lat="49.47134" lon="1.31744">
        <ele>143</ele>
        <time>2023-03-14T14:12:09.942Z</time>
      </trkpt>
      <trkpt lat="49.47136" lon="1.31751">
        <ele>143</ele>
        <time>2023-03-14T14:12:13.872Z</time>
      </trkpt>
      <trkpt lat="49.47139" lon="1.31758">
        <ele>143</ele>
        <time>2023-03-14T14:12:17.802Z</time>
      </trkpt>
      <trkpt lat="49.47141" lon="1.31766">
        <ele>144</ele>
        <time>2023-03-14T14:12:22.442Z</time>
      </trkpt>
      <trkpt lat="49.47142" lon="1.31774">
        <ele>144</ele>
        <time>2023-03-14T14:12:26.616Z</time>
      </trkpt>
      <trkpt lat="49.47145" lon="1.31779">
        <ele>144</ele>
        <time>2023-03-14T14:12:30.784Z</time>
      </trkpt>
      <trkpt lat="49.47148" lon="1.31783">
        <ele>144</ele>
        <time>2023-03-14T14:12:35.295Z</time>
      </trkpt>
      <trkpt lat="49.47149" lon="1.31792">
        <ele>143</ele>
        <time>2023-03-14T14:12:39.836Z</time>
      </trkpt>
      <trkpt lat="49.4715" lon="1.31798">
        <ele>143</ele>
        <time>2023-03-14T14:12:44.005Z</time>
      </trkpt>
      <trkpt lat="49.47151" lon="1.31807">
        <ele>143</ele>
        <time>2023-03-14T14:12:48.650Z</time>
      </trkpt>
      <trkpt lat="49.47153" lon="1.31814">
        <ele>139</ele>
        <time>2023-03-14T14:12:53.295Z</time>
      </trkpt>
      <trkpt lat="49.47155" lon="1.31822">
        <ele>138</ele>
        <time>2023-03-14T14:12:57.821Z</time>
      </trkpt>
      <trkpt lat="49.47156" lon="1.31829">
        <ele>138</ele>
        <time>2023-03-14T14:13:02.481Z</time>
      </trkpt>
      <trkpt lat="49.47158" lon="1.31836">
        <ele>138</ele>
        <time>2023-03-14T14:13:06.981Z</time>
      </trkpt>
      <trkpt lat="49.47159" lon="1.31844">
        <ele>138</ele>
        <time>2023-03-14T14:13:11.398Z</time>
      </trkpt>
      <trkpt lat="49.4716" lon="1.31851">
        <ele>139</ele>
        <time>2023-03-14T14:13:16.043Z</time>
      </trkpt>
      <trkpt lat="49.47162" lon="1.31858">
        <ele>139</ele>
        <time>2023-03-14T14:13:20.130Z</time>
      </trkpt>
      <trkpt lat="49.47162" lon="1.31864">
        <ele>139</ele>
        <time>2023-03-14T14:13:24.142Z</time>
      </trkpt>
      <trkpt lat="49.47162" lon="1.31871">
        <ele>139</ele>
        <time>2023-03-14T14:13:28.192Z</time>
      </trkpt>
      <trkpt lat="49.47163" lon="1.31879">
        <ele>138</ele>
        <time>2023-03-14T14:13:32.837Z</time>
      </trkpt>
      <trkpt lat="49.47164" lon="1.31885">
        <ele>138</ele>
        <time>2023-03-14T14:13:36.886Z</time>
      </trkpt>
      <trkpt lat="49.47164" lon="1.31892">
        <ele>138</ele>
        <time>2023-03-14T14:13:40.817Z</time>
      </trkpt>
      <trkpt lat="49.47164" lon="1.31899">
        <ele>138</ele>
        <time>2023-03-14T14:13:44.985Z</time>
      </trkpt>
      <trkpt lat="49.47165" lon="1.31908">
        <ele>139</ele>
        <time>2023-03-14T14:13:49.392Z</time>
      </trkpt>
      <trkpt lat="49.47166" lon="1.31915">
        <ele>139</ele>
        <time>2023-03-14T14:13:53.442Z</time>
      </trkpt>
      <trkpt lat="49.47166" lon="1.31923">
        <ele>139</ele>
        <time>2023-03-14T14:13:57.491Z</time>
      </trkpt>
      <trkpt lat="49.47167" lon="1.31931">
        <ele>139</ele>
        <time>2023-03-14T14:14:02.136Z</time>
      </trkpt>
      <trkpt lat="49.47168" lon="1.3194">
        <ele>139</ele>
        <time>2023-03-14T14:14:06.662Z</time>
      </trkpt>
      <trkpt lat="49.47167" lon="1.31952">
        <ele>139</ele>
        <time>2023-03-14T14:14:11.188Z</time>
      </trkpt>
      <trkpt lat="49.47167" lon="1.31962">
        <ele>140</ele>
        <time>2023-03-14T14:14:15.237Z</time>
      </trkpt>
      <trkpt lat="49.47168" lon="1.31972">
        <ele>140</ele>
        <time>2023-03-14T14:14:19.406Z</time>
      </trkpt>
      <trkpt lat="49.47168" lon="1.31981">
        <ele>140</ele>
        <time>2023-03-14T14:14:23.813Z</time>
      </trkpt>
      <trkpt lat="49.4717" lon="1.31989">
        <ele>141</ele>
        <time>2023-03-14T14:14:28.442Z</time>
      </trkpt>
      <trkpt lat="49.47171" lon="1.31996">
        <ele>141</ele>
        <time>2023-03-14T14:14:32.984Z</time>
      </trkpt>
      <trkpt lat="49.47172" lon="1.32004">
        <ele>141</ele>
        <time>2023-03-14T14:14:37.629Z</time>
      </trkpt>
      <trkpt lat="49.47174" lon="1.32012">
        <ele>141</ele>
        <time>2023-03-14T14:14:42.318Z</time>
      </trkpt>
      <trkpt lat="49.47174" lon="1.32017">
        <ele>143</ele>
        <time>2023-03-14T14:14:46.799Z</time>
      </trkpt>
      <trkpt lat="49.47175" lon="1.32024">
        <ele>143</ele>
        <time>2023-03-14T14:14:51.299Z</time>
      </trkpt>
      <trkpt lat="49.47177" lon="1.32029">
        <ele>143</ele>
        <time>2023-03-14T14:14:55.294Z</time>
      </trkpt>
      <trkpt lat="49.47178" lon="1.32035">
        <ele>143</ele>
        <time>2023-03-14T14:14:59.437Z</time>
      </trkpt>
      <trkpt lat="49.47179" lon="1.32042">
        <ele>145</ele>
        <time>2023-03-14T14:15:03.442Z</time>
      </trkpt>
      <trkpt lat="49.47181" lon="1.3205">
        <ele>138</ele>
        <time>2023-03-14T14:15:08Z</time>
      </trkpt>
      <trkpt lat="49.47181" lon="1.32057">
        <ele>138</ele>
        <time>2023-03-14T14:15:12.049Z</time>
      </trkpt>
      <trkpt lat="49.47181" lon="1.32066">
        <ele>138</ele>
        <time>2023-03-14T14:15:16.218Z</time>
      </trkpt>
      <trkpt lat="49.47181" lon="1.32077">
        <ele>140</ele>
        <time>2023-03-14T14:15:20.870Z</time>
      </trkpt>
      <trkpt lat="49.47182" lon="1.32086">
        <ele>140</ele>
        <time>2023-03-14T14:15:24.912Z</time>
      </trkpt>
      <trkpt lat="49.47183" lon="1.32095">
        <ele>140</ele>
        <time>2023-03-14T14:15:29.439Z</time>
      </trkpt>
      <trkpt lat="49.47185" lon="1.32102">
        <ele>143</ele>
        <time>2023-03-14T14:15:33.845Z</time>
      </trkpt>
      <trkpt lat="49.47185" lon="1.3211">
        <ele>143</ele>
        <time>2023-03-14T14:15:37.992Z</time>
      </trkpt>
      <trkpt lat="49.47185" lon="1.3212">
        <ele>143</ele>
        <time>2023-03-14T14:15:42.540Z</time>
      </trkpt>
      <trkpt lat="49.47184" lon="1.32127">
        <ele>145</ele>
        <time>2023-03-14T14:15:46.589Z</time>
      </trkpt>
      <trkpt lat="49.47184" lon="1.32135">
        <ele>145</ele>
        <time>2023-03-14T14:15:50.639Z</time>
      </trkpt>
      <trkpt lat="49.47184" lon="1.32142">
        <ele>145</ele>
        <time>2023-03-14T14:15:54.807Z</time>
      </trkpt>
      <trkpt lat="49.47185" lon="1.32149">
        <ele>145</ele>
        <time>2023-03-14T14:15:58.857Z</time>
      </trkpt>
      <trkpt lat="49.47186" lon="1.32155">
        <ele>146</ele>
        <time>2023-03-14T14:16:03.025Z</time>
      </trkpt>
      <trkpt lat="49.47186" lon="1.32163">
        <ele>146</ele>
        <time>2023-03-14T14:16:07.075Z</time>
      </trkpt>
      <trkpt lat="49.47188" lon="1.32173">
        <ele>146</ele>
        <time>2023-03-14T14:16:11.601Z</time>
      </trkpt>
      <trkpt lat="49.47189" lon="1.32181">
        <ele>146</ele>
        <time>2023-03-14T14:16:15.650Z</time>
      </trkpt>
      <trkpt lat="49.47189" lon="1.32189">
        <ele>146</ele>
        <time>2023-03-14T14:16:19.700Z</time>
      </trkpt>
      <trkpt lat="49.47189" lon="1.32198">
        <ele>146</ele>
        <time>2023-03-14T14:16:24.302Z</time>
      </trkpt>
      <trkpt lat="49.47189" lon="1.32207">
        <ele>146</ele>
        <time>2023-03-14T14:16:28.871Z</time>
      </trkpt>
      <trkpt lat="49.4719" lon="1.32214">
        <ele>144</ele>
        <time>2023-03-14T14:16:32.801Z</time>
      </trkpt>
      <trkpt lat="49.4719" lon="1.3222">
        <ele>144</ele>
        <time>2023-03-14T14:16:36.731Z</time>
      </trkpt>
      <trkpt lat="49.47192" lon="1.32227">
        <ele>144</ele>
        <time>2023-03-14T14:16:41.294Z</time>
      </trkpt>
      <trkpt lat="49.47193" lon="1.32235">
        <ele>144</ele>
        <time>2023-03-14T14:16:45.426Z</time>
      </trkpt>
      <trkpt lat="49.47194" lon="1.32244">
        <ele>143</ele>
        <time>2023-03-14T14:16:49.442Z</time>
      </trkpt>
      <trkpt lat="49.47195" lon="1.32253">
        <ele>143</ele>
        <time>2023-03-14T14:16:53.406Z</time>
      </trkpt>
      <trkpt lat="49.47196" lon="1.32261">
        <ele>143</ele>
        <time>2023-03-14T14:16:58.051Z</time>
      </trkpt>
      <trkpt lat="49.47197" lon="1.3227">
        <ele>141</ele>
        <time>2023-03-14T14:17:02.563Z</time>
      </trkpt>
      <trkpt lat="49.47198" lon="1.32278">
        <ele>141</ele>
        <time>2023-03-14T14:17:06.626Z</time>
      </trkpt>
      <trkpt lat="49.47198" lon="1.32287">
        <ele>141</ele>
        <time>2023-03-14T14:17:11.152Z</time>
      </trkpt>
      <trkpt lat="49.47198" lon="1.32295">
        <ele>140</ele>
        <time>2023-03-14T14:17:15.202Z</time>
      </trkpt>
      <trkpt lat="49.47198" lon="1.32303">
        <ele>140</ele>
        <time>2023-03-14T14:17:19.847Z</time>
      </trkpt>
      <trkpt lat="49.47199" lon="1.3231">
        <ele>140</ele>
        <time>2023-03-14T14:17:24.015Z</time>
      </trkpt>
      <trkpt lat="49.472" lon="1.32318">
        <ele>140</ele>
        <time>2023-03-14T14:17:28.184Z</time>
      </trkpt>
      <trkpt lat="49.47201" lon="1.32325">
        <ele>137</ele>
        <time>2023-03-14T14:17:32.233Z</time>
      </trkpt>
      <trkpt lat="49.47202" lon="1.32332">
        <ele>137</ele>
        <time>2023-03-14T14:17:36.403Z</time>
      </trkpt>
      <trkpt lat="49.47204" lon="1.32338">
        <ele>137</ele>
        <time>2023-03-14T14:17:40.459Z</time>
      </trkpt>
      <trkpt lat="49.47205" lon="1.32345">
        <ele>137</ele>
        <time>2023-03-14T14:17:44.442Z</time>
      </trkpt>
      <trkpt lat="49.47206" lon="1.32351">
        <ele>132</ele>
        <time>2023-03-14T14:17:48.431Z</time>
      </trkpt>
      <trkpt lat="49.47209" lon="1.32357">
        <ele>130</ele>
        <time>2023-03-14T14:17:52.600Z</time>
      </trkpt>
      <trkpt lat="49.47211" lon="1.32364">
        <ele>130</ele>
        <time>2023-03-14T14:17:57.232Z</time>
      </trkpt>
      <trkpt lat="49.47213" lon="1.32369">
        <ele>130</ele>
        <time>2023-03-14T14:18:01.175Z</time>
      </trkpt>
      <trkpt lat="49.47216" lon="1.32376">
        <ele>125</ele>
        <time>2023-03-14T14:18:05.820Z</time>
      </trkpt>
      <trkpt lat="49.47219" lon="1.3238">
        <ele>125</ele>
        <time>2023-03-14T14:18:09.964Z</time>
      </trkpt>
      <trkpt lat="49.47222" lon="1.32385">
        <ele>125</ele>
        <time>2023-03-14T14:18:14.038Z</time>
      </trkpt>
      <trkpt lat="49.47224" lon="1.32391">
        <ele>125</ele>
        <time>2023-03-14T14:18:18.551Z</time>
      </trkpt>
      <trkpt lat="49.47226" lon="1.32397">
        <ele>125</ele>
        <time>2023-03-14T14:18:23.062Z</time>
      </trkpt>
      <trkpt lat="49.47227" lon="1.32402">
        <ele>125</ele>
        <time>2023-03-14T14:18:27.633Z</time>
      </trkpt>
      <trkpt lat="49.47227" lon="1.32409">
        <ele>120</ele>
        <time>2023-03-14T14:18:32.142Z</time>
      </trkpt>
      <trkpt lat="49.47226" lon="1.32416">
        <ele>120</ele>
        <time>2023-03-14T14:18:36.192Z</time>
      </trkpt>
      <trkpt lat="49.47227" lon="1.32424">
        <ele>120</ele>
        <time>2023-03-14T14:18:40.241Z</time>
      </trkpt>
      <trkpt lat="49.47227" lon="1.32432">
        <ele>117</ele>
        <time>2023-03-14T14:18:44.383Z</time>
      </trkpt>
      <trkpt lat="49.47228" lon="1.32441">
        <ele>117</ele>
        <time>2023-03-14T14:18:48.816Z</time>
      </trkpt>
      <trkpt lat="49.47228" lon="1.32449">
        <ele>117</ele>
        <time>2023-03-14T14:18:52.985Z</time>
      </trkpt>
      <trkpt lat="49.47227" lon="1.32456">
        <ele>117</ele>
        <time>2023-03-14T14:18:57.035Z</time>
      </trkpt>
      <trkpt lat="49.47226" lon="1.32465">
        <ele>114</ele>
        <time>2023-03-14T14:19:00.965Z</time>
      </trkpt>
      <trkpt lat="49.47226" lon="1.32475">
        <ele>114</ele>
        <time>2023-03-14T14:19:05.015Z</time>
      </trkpt>
      <trkpt lat="49.47227" lon="1.32485">
        <ele>114</ele>
        <time>2023-03-14T14:19:09.660Z</time>
      </trkpt>
      <trkpt lat="49.47228" lon="1.32496">
        <ele>112</ele>
        <time>2023-03-14T14:19:14.185Z</time>
      </trkpt>
      <trkpt lat="49.47227" lon="1.32505">
        <ele>112</ele>
        <time>2023-03-14T14:19:18.210Z</time>
      </trkpt>
      <trkpt lat="49.47227" lon="1.32516">
        <ele>111</ele>
        <time>2023-03-14T14:19:22.764Z</time>
      </trkpt>
      <trkpt lat="49.47227" lon="1.32526">
        <ele>111</ele>
        <time>2023-03-14T14:19:27.303Z</time>
      </trkpt>
      <trkpt lat="49.47228" lon="1.32536">
        <ele>111</ele>
        <time>2023-03-14T14:19:31.813Z</time>
      </trkpt>
      <trkpt lat="49.47228" lon="1.32545">
        <ele>110</ele>
        <time>2023-03-14T14:19:35.862Z</time>
      </trkpt>
      <trkpt lat="49.47228" lon="1.32553">
        <ele>110</ele>
        <time>2023-03-14T14:19:40.017Z</time>
      </trkpt>
      <trkpt lat="49.47229" lon="1.32563">
        <ele>110</ele>
        <time>2023-03-14T14:19:45.096Z</time>
      </trkpt>
      <trkpt lat="49.4723" lon="1.32572">
        <ele>109</ele>
        <time>2023-03-14T14:19:49.642Z</time>
      </trkpt>
      <trkpt lat="49.47232" lon="1.32581">
        <ele>109</ele>
        <time>2023-03-14T14:19:54.085Z</time>
      </trkpt>
      <trkpt lat="49.47232" lon="1.32589">
        <ele>109</ele>
        <time>2023-03-14T14:19:58.129Z</time>
      </trkpt>
      <trkpt lat="49.47233" lon="1.32597">
        <ele>109</ele>
        <time>2023-03-14T14:20:02.184Z</time>
      </trkpt>
      <trkpt lat="49.47234" lon="1.32605">
        <ele>109</ele>
        <time>2023-03-14T14:20:06.710Z</time>
      </trkpt>
      <trkpt lat="49.47236" lon="1.32614">
        <ele>109</ele>
        <time>2023-03-14T14:20:11.236Z</time>
      </trkpt>
      <trkpt lat="49.47237" lon="1.32622">
        <ele>114</ele>
        <time>2023-03-14T14:20:15.881Z</time>
      </trkpt>
      <trkpt lat="49.47237" lon="1.3263">
        <ele>113</ele>
        <time>2023-03-14T14:20:20.293Z</time>
      </trkpt>
      <trkpt lat="49.47238" lon="1.32637">
        <ele>113</ele>
        <time>2023-03-14T14:20:24.297Z</time>
      </trkpt>
      <trkpt lat="49.47237" lon="1.32645">
        <ele>113</ele>
        <time>2023-03-14T14:20:28.863Z</time>
      </trkpt>
      <trkpt lat="49.47237" lon="1.32654">
        <ele>112</ele>
        <time>2023-03-14T14:20:32.794Z</time>
      </trkpt>
      <trkpt lat="49.47237" lon="1.32661">
        <ele>112</ele>
        <time>2023-03-14T14:20:36.843Z</time>
      </trkpt>
      <trkpt lat="49.47237" lon="1.32669">
        <ele>112</ele>
        <time>2023-03-14T14:20:41.488Z</time>
      </trkpt>
      <trkpt lat="49.47236" lon="1.32678">
        <ele>112</ele>
        <time>2023-03-14T14:20:46.014Z</time>
      </trkpt>
      <trkpt lat="49.47236" lon="1.32687">
        <ele>111</ele>
        <time>2023-03-14T14:20:50.540Z</time>
      </trkpt>
      <trkpt lat="49.47236" lon="1.32696">
        <ele>111</ele>
        <time>2023-03-14T14:20:55.185Z</time>
      </trkpt>
      <trkpt lat="49.47236" lon="1.32705">
        <ele>111</ele>
        <time>2023-03-14T14:20:59.592Z</time>
      </trkpt>
      <trkpt lat="49.47237" lon="1.32713">
        <ele>111</ele>
        <time>2023-03-14T14:21:04.230Z</time>
      </trkpt>
      <trkpt lat="49.47237" lon="1.3272">
        <ele>111</ele>
        <time>2023-03-14T14:21:08.167Z</time>
      </trkpt>
      <trkpt lat="49.47236" lon="1.32728">
        <ele>111</ele>
        <time>2023-03-14T14:21:12.574Z</time>
      </trkpt>
      <trkpt lat="49.47236" lon="1.32735">
        <ele>111</ele>
        <time>2023-03-14T14:21:16.624Z</time>
      </trkpt>
      <trkpt lat="49.47236" lon="1.32743">
        <ele>110</ele>
        <time>2023-03-14T14:21:21.149Z</time>
      </trkpt>
      <trkpt lat="49.47236" lon="1.32752">
        <ele>110</ele>
        <time>2023-03-14T14:21:25.675Z</time>
      </trkpt>
      <trkpt lat="49.47236" lon="1.3276">
        <ele>110</ele>
        <time>2023-03-14T14:21:30.201Z</time>
      </trkpt>
      <trkpt lat="49.47235" lon="1.32769">
        <ele>110</ele>
        <time>2023-03-14T14:21:34.861Z</time>
      </trkpt>
      <trkpt lat="49.47234" lon="1.32778">
        <ele>110</ele>
        <time>2023-03-14T14:21:39.289Z</time>
      </trkpt>
      <trkpt lat="49.47233" lon="1.32786">
        <ele>110</ele>
        <time>2023-03-14T14:21:43.422Z</time>
      </trkpt>
      <trkpt lat="49.47234" lon="1.32789">
        <ele>110</ele>
        <time>2023-03-14T14:21:48.186Z</time>
      </trkpt>
      <trkpt lat="49.47234" lon="1.32792">
        <ele>111</ele>
        <time>2023-03-14T14:21:52.831Z</time>
      </trkpt>
      <trkpt lat="49.47233" lon="1.328">
        <ele>111</ele>
        <time>2023-03-14T14:21:56.880Z</time>
      </trkpt>
      <trkpt lat="49.47234" lon="1.32809">
        <ele>111</ele>
        <time>2023-03-14T14:22:01.406Z</time>
      </trkpt>
      <trkpt lat="49.47233" lon="1.32819">
        <ele>111</ele>
        <time>2023-03-14T14:22:06.051Z</time>
      </trkpt>
      <trkpt lat="49.47234" lon="1.32828">
        <ele>112</ele>
        <time>2023-03-14T14:22:10.577Z</time>
      </trkpt>
      <trkpt lat="49.47233" lon="1.32837">
        <ele>112</ele>
        <time>2023-03-14T14:22:14.984Z</time>
      </trkpt>
      <trkpt lat="49.47233" lon="1.32846">
        <ele>112</ele>
        <time>2023-03-14T14:22:19.629Z</time>
      </trkpt>
      <trkpt lat="49.47233" lon="1.32855">
        <ele>112</ele>
        <time>2023-03-14T14:22:24.275Z</time>
      </trkpt>
      <trkpt lat="49.47233" lon="1.32864">
        <ele>112</ele>
        <time>2023-03-14T14:22:28.800Z</time>
      </trkpt>
      <trkpt lat="49.47233" lon="1.32872">
        <ele>112</ele>
        <time>2023-03-14T14:22:33.207Z</time>
      </trkpt>
      <trkpt lat="49.47232" lon="1.32881">
        <ele>114</ele>
        <time>2023-03-14T14:22:37.733Z</time>
      </trkpt>
      <trkpt lat="49.47231" lon="1.3289">
        <ele>114</ele>
        <time>2023-03-14T14:22:41.782Z</time>
      </trkpt>
      <trkpt lat="49.4723" lon="1.32897">
        <ele>114</ele>
        <time>2023-03-14T14:22:45.832Z</time>
      </trkpt>
      <trkpt lat="49.4723" lon="1.32904">
        <ele>116</ele>
        <time>2023-03-14T14:22:50.001Z</time>
      </trkpt>
      <trkpt lat="49.4723" lon="1.32912">
        <ele>116</ele>
        <time>2023-03-14T14:22:54.442Z</time>
      </trkpt>
      <trkpt lat="49.47231" lon="1.3292">
        <ele>116</ele>
        <time>2023-03-14T14:22:59.052Z</time>
      </trkpt>
      <trkpt lat="49.47232" lon="1.32926">
        <ele>116</ele>
        <time>2023-03-14T14:23:03.221Z</time>
      </trkpt>
      <trkpt lat="49.47233" lon="1.32932">
        <ele>118</ele>
        <time>2023-03-14T14:23:07.302Z</time>
      </trkpt>
      <trkpt lat="49.47234" lon="1.32939">
        <ele>118</ele>
        <time>2023-03-14T14:23:11.439Z</time>
      </trkpt>
      <trkpt lat="49.47235" lon="1.32946">
        <ele>118</ele>
        <time>2023-03-14T14:23:15.442Z</time>
      </trkpt>
      <trkpt lat="49.47236" lon="1.32952">
        <ele>118</ele>
        <time>2023-03-14T14:23:19.419Z</time>
      </trkpt>
      <trkpt lat="49.47237" lon="1.32958">
        <ele>111</ele>
        <time>2023-03-14T14:23:24.183Z</time>
      </trkpt>
      <trkpt lat="49.47238" lon="1.32965">
        <ele>113</ele>
        <time>2023-03-14T14:23:28.828Z</time>
      </trkpt>
      <trkpt lat="49.4724" lon="1.32971">
        <ele>113</ele>
        <time>2023-03-14T14:23:33.442Z</time>
      </trkpt>
      <trkpt lat="49.47239" lon="1.32978">
        <ele>113</ele>
        <time>2023-03-14T14:23:37.999Z</time>
      </trkpt>
      <trkpt lat="49.47239" lon="1.32983">
        <ele>113</ele>
        <time>2023-03-14T14:23:42.516Z</time>
      </trkpt>
      <trkpt lat="49.47238" lon="1.32987">
        <ele>114</ele>
        <time>2023-03-14T14:23:46.575Z</time>
      </trkpt>
      <trkpt lat="49.47238" lon="1.32992">
        <ele>114</ele>
        <time>2023-03-14T14:23:51.180Z</time>
      </trkpt>
      <trkpt lat="49.47237" lon="1.32997">
        <ele>114</ele>
        <time>2023-03-14T14:23:55.150Z</time>
      </trkpt>
      <trkpt lat="49.47236" lon="1.33004">
        <ele>114</ele>
        <time>2023-03-14T14:23:59.795Z</time>
      </trkpt>
      <trkpt lat="49.47236" lon="1.33009">
        <ele>116</ele>
        <time>2023-03-14T14:24:04.440Z</time>
      </trkpt>
      <trkpt lat="49.47235" lon="1.33015">
        <ele>114</ele>
        <time>2023-03-14T14:24:08.609Z</time>
      </trkpt>
      <trkpt lat="49.47233" lon="1.33022">
        <ele>114</ele>
        <time>2023-03-14T14:24:12.659Z</time>
      </trkpt>
      <trkpt lat="49.47233" lon="1.3303">
        <ele>114</ele>
        <time>2023-03-14T14:24:16.827Z</time>
      </trkpt>
      <trkpt lat="49.47233" lon="1.33037">
        <ele>114</ele>
        <time>2023-03-14T14:24:20.996Z</time>
      </trkpt>
      <trkpt lat="49.47233" lon="1.33045">
        <ele>113</ele>
        <time>2023-03-14T14:24:25.045Z</time>
      </trkpt>
      <trkpt lat="49.47233" lon="1.33053">
        <ele>113</ele>
        <time>2023-03-14T14:24:29.214Z</time>
      </trkpt>
      <trkpt lat="49.47233" lon="1.33057">
        <ele>113</ele>
        <time>2023-03-14T14:24:33.859Z</time>
      </trkpt>
      <trkpt lat="49.47235" lon="1.33056">
        <ele>113</ele>
        <time>2023-03-14T14:27:29.814Z</time>
      </trkpt>
      <trkpt lat="49.47235" lon="1.33062">
        <ele>113</ele>
        <time>2023-03-14T14:27:34.442Z</time>
      </trkpt>
      <trkpt lat="49.47234" lon="1.33069">
        <ele>113</ele>
        <time>2023-03-14T14:27:38.628Z</time>
      </trkpt>
      <trkpt lat="49.47231" lon="1.33076">
        <ele>111</ele>
        <time>2023-03-14T14:27:42.796Z</time>
      </trkpt>
      <trkpt lat="49.4723" lon="1.33081">
        <ele>111</ele>
        <time>2023-03-14T14:27:47.322Z</time>
      </trkpt>
      <trkpt lat="49.47227" lon="1.33086">
        <ele>111</ele>
        <time>2023-03-14T14:27:51.848Z</time>
      </trkpt>
      <trkpt lat="49.47225" lon="1.33092">
        <ele>111</ele>
        <time>2023-03-14T14:27:56.017Z</time>
      </trkpt>
      <trkpt lat="49.47223" lon="1.33098">
        <ele>109</ele>
        <time>2023-03-14T14:28:00.066Z</time>
      </trkpt>
      <trkpt lat="49.47222" lon="1.33103">
        <ele>109</ele>
        <time>2023-03-14T14:28:04.235Z</time>
      </trkpt>
      <trkpt lat="49.4722" lon="1.33108">
        <ele>109</ele>
        <time>2023-03-14T14:28:08.404Z</time>
      </trkpt>
      <trkpt lat="49.47217" lon="1.33114">
        <ele>109</ele>
        <time>2023-03-14T14:28:12.442Z</time>
      </trkpt>
      <trkpt lat="49.47215" lon="1.3312">
        <ele>109</ele>
        <time>2023-03-14T14:28:16.979Z</time>
      </trkpt>
      <trkpt lat="49.47214" lon="1.33126">
        <ele>107</ele>
        <time>2023-03-14T14:28:21.029Z</time>
      </trkpt>
      <trkpt lat="49.47212" lon="1.33133">
        <ele>107</ele>
        <time>2023-03-14T14:28:25.680Z</time>
      </trkpt>
      <trkpt lat="49.47211" lon="1.3314">
        <ele>107</ele>
        <time>2023-03-14T14:28:29.604Z</time>
      </trkpt>
      <trkpt lat="49.47209" lon="1.33148">
        <ele>107</ele>
        <time>2023-03-14T14:28:33.730Z</time>
      </trkpt>
      <trkpt lat="49.47206" lon="1.33156">
        <ele>104</ele>
        <time>2023-03-14T14:28:38.061Z</time>
      </trkpt>
      <trkpt lat="49.47203" lon="1.33163">
        <ele>104</ele>
        <time>2023-03-14T14:28:41.991Z</time>
      </trkpt>
      <trkpt lat="49.47202" lon="1.3317">
        <ele>104</ele>
        <time>2023-03-14T14:28:46.040Z</time>
      </trkpt>
      <trkpt lat="49.47199" lon="1.33177">
        <ele>104</ele>
        <time>2023-03-14T14:28:50.805Z</time>
      </trkpt>
      <trkpt lat="49.47197" lon="1.33185">
        <ele>102</ele>
        <time>2023-03-14T14:28:55.415Z</time>
      </trkpt>
      <trkpt lat="49.47194" lon="1.33193">
        <ele>102</ele>
        <time>2023-03-14T14:28:59.857Z</time>
      </trkpt>
      <trkpt lat="49.47191" lon="1.33201">
        <ele>102</ele>
        <time>2023-03-14T14:29:04.442Z</time>
      </trkpt>
      <trkpt lat="49.47188" lon="1.33208">
        <ele>102</ele>
        <time>2023-03-14T14:29:09.040Z</time>
      </trkpt>
      <trkpt lat="49.47186" lon="1.33215">
        <ele>100</ele>
        <time>2023-03-14T14:29:13.434Z</time>
      </trkpt>
      <trkpt lat="49.47184" lon="1.33222">
        <ele>100</ele>
        <time>2023-03-14T14:29:17.960Z</time>
      </trkpt>
      <trkpt lat="49.47181" lon="1.3323">
        <ele>100</ele>
        <time>2023-03-14T14:29:22.539Z</time>
      </trkpt>
      <trkpt lat="49.47178" lon="1.33237">
        <ele>97</ele>
        <time>2023-03-14T14:29:26.417Z</time>
      </trkpt>
      <trkpt lat="49.47176" lon="1.33245">
        <ele>97</ele>
        <time>2023-03-14T14:29:30.824Z</time>
      </trkpt>
      <trkpt lat="49.47173" lon="1.33253">
        <ele>97</ele>
        <time>2023-03-14T14:29:35.295Z</time>
      </trkpt>
      <trkpt lat="49.47172" lon="1.33262">
        <ele>97</ele>
        <time>2023-03-14T14:29:39.876Z</time>
      </trkpt>
      <trkpt lat="49.4717" lon="1.3327">
        <ele>96</ele>
        <time>2023-03-14T14:29:44.401Z</time>
      </trkpt>
      <trkpt lat="49.47168" lon="1.33277">
        <ele>96</ele>
        <time>2023-03-14T14:29:48.442Z</time>
      </trkpt>
      <trkpt lat="49.47166" lon="1.33284">
        <ele>96</ele>
        <time>2023-03-14T14:29:53.096Z</time>
      </trkpt>
      <trkpt lat="49.47164" lon="1.33291">
        <ele>96</ele>
        <time>2023-03-14T14:29:57.027Z</time>
      </trkpt>
      <trkpt lat="49.47162" lon="1.33298">
        <ele>94</ele>
        <time>2023-03-14T14:30:00.957Z</time>
      </trkpt>
      <trkpt lat="49.47162" lon="1.33305">
        <ele>94</ele>
        <time>2023-03-14T14:30:05.599Z</time>
      </trkpt>
      <trkpt lat="49.4716" lon="1.33312">
        <ele>94</ele>
        <time>2023-03-14T14:30:10.009Z</time>
      </trkpt>
      <trkpt lat="49.47157" lon="1.33321">
        <ele>92</ele>
        <time>2023-03-14T14:30:14.654Z</time>
      </trkpt>
      <trkpt lat="49.47156" lon="1.33329">
        <ele>92</ele>
        <time>2023-03-14T14:30:19.418Z</time>
      </trkpt>
      <trkpt lat="49.47154" lon="1.33337">
        <ele>92</ele>
        <time>2023-03-14T14:30:24.132Z</time>
      </trkpt>
      <trkpt lat="49.47152" lon="1.33345">
        <ele>93</ele>
        <time>2023-03-14T14:30:28.589Z</time>
      </trkpt>
      <trkpt lat="49.4715" lon="1.33353">
        <ele>91</ele>
        <time>2023-03-14T14:30:32.996Z</time>
      </trkpt>
      <trkpt lat="49.47148" lon="1.3336">
        <ele>91</ele>
        <time>2023-03-14T14:30:37.046Z</time>
      </trkpt>
      <trkpt lat="49.47146" lon="1.33368">
        <ele>91</ele>
        <time>2023-03-14T14:30:41.572Z</time>
      </trkpt>
      <trkpt lat="49.47144" lon="1.33376">
        <ele>89</ele>
        <time>2023-03-14T14:30:45.621Z</time>
      </trkpt>
      <trkpt lat="49.47142" lon="1.33384">
        <ele>89</ele>
        <time>2023-03-14T14:30:49.552Z</time>
      </trkpt>
      <trkpt lat="49.47141" lon="1.33391">
        <ele>89</ele>
        <time>2023-03-14T14:30:53.601Z</time>
      </trkpt>
      <trkpt lat="49.4714" lon="1.33399">
        <ele>89</ele>
        <time>2023-03-14T14:30:57.651Z</time>
      </trkpt>
      <trkpt lat="49.47139" lon="1.33407">
        <ele>87</ele>
        <time>2023-03-14T14:31:02.415Z</time>
      </trkpt>
      <trkpt lat="49.47137" lon="1.33415">
        <ele>87</ele>
        <time>2023-03-14T14:31:06.442Z</time>
      </trkpt>
      <trkpt lat="49.47136" lon="1.33422">
        <ele>87</ele>
        <time>2023-03-14T14:31:10.632Z</time>
      </trkpt>
      <trkpt lat="49.47135" lon="1.33429">
        <ele>87</ele>
        <time>2023-03-14T14:31:14.563Z</time>
      </trkpt>
      <trkpt lat="49.47133" lon="1.33437">
        <ele>85</ele>
        <time>2023-03-14T14:31:18.613Z</time>
      </trkpt>
      <trkpt lat="49.47131" lon="1.33444">
        <ele>85</ele>
        <time>2023-03-14T14:31:23.301Z</time>
      </trkpt>
      <trkpt lat="49.47129" lon="1.33451">
        <ele>85</ele>
        <time>2023-03-14T14:31:27.380Z</time>
      </trkpt>
      <trkpt lat="49.47128" lon="1.3346">
        <ele>84</ele>
        <time>2023-03-14T14:31:31.834Z</time>
      </trkpt>
      <trkpt lat="49.47126" lon="1.33467">
        <ele>84</ele>
        <time>2023-03-14T14:31:36.002Z</time>
      </trkpt>
      <trkpt lat="49.47124" lon="1.33474">
        <ele>85</ele>
        <time>2023-03-14T14:31:40.647Z</time>
      </trkpt>
      <trkpt lat="49.47123" lon="1.33482">
        <ele>85</ele>
        <time>2023-03-14T14:31:44.816Z</time>
      </trkpt>
      <trkpt lat="49.47122" lon="1.33491">
        <ele>84</ele>
        <time>2023-03-14T14:31:49.580Z</time>
      </trkpt>
      <trkpt lat="49.47121" lon="1.33497">
        <ele>84</ele>
        <time>2023-03-14T14:31:54.106Z</time>
      </trkpt>
      <trkpt lat="49.4712" lon="1.33505">
        <ele>84</ele>
        <time>2023-03-14T14:31:58.632Z</time>
      </trkpt>
      <trkpt lat="49.47119" lon="1.33512">
        <ele>84</ele>
        <time>2023-03-14T14:32:03.158Z</time>
      </trkpt>
      <trkpt lat="49.47118" lon="1.33518">
        <ele>83</ele>
        <time>2023-03-14T14:32:07.208Z</time>
      </trkpt>
      <trkpt lat="49.47116" lon="1.33523">
        <ele>83</ele>
        <time>2023-03-14T14:32:11.295Z</time>
      </trkpt>
      <trkpt lat="49.47117" lon="1.33528">
        <ele>83</ele>
        <time>2023-03-14T14:32:15.426Z</time>
      </trkpt>
      <trkpt lat="49.47118" lon="1.33533">
        <ele>83</ele>
        <time>2023-03-14T14:32:19.595Z</time>
      </trkpt>
      <trkpt lat="49.47116" lon="1.3354">
        <ele>83</ele>
        <time>2023-03-14T14:32:23.644Z</time>
      </trkpt>
      <trkpt lat="49.47114" lon="1.33547">
        <ele>83</ele>
        <time>2023-03-14T14:32:28.254Z</time>
      </trkpt>
      <trkpt lat="49.47112" lon="1.33553">
        <ele>83</ele>
        <time>2023-03-14T14:32:32.220Z</time>
      </trkpt>
      <trkpt lat="49.47112" lon="1.33561">
        <ele>83</ele>
        <time>2023-03-14T14:32:36.865Z</time>
      </trkpt>
      <trkpt lat="49.47111" lon="1.33568">
        <ele>83</ele>
        <time>2023-03-14T14:32:41.562Z</time>
      </trkpt>
      <trkpt lat="49.47109" lon="1.33575">
        <ele>83</ele>
        <time>2023-03-14T14:32:45.560Z</time>
      </trkpt>
      <trkpt lat="49.47109" lon="1.33582">
        <ele>83</ele>
        <time>2023-03-14T14:32:49.609Z</time>
      </trkpt>
      <trkpt lat="49.47108" lon="1.33587">
        <ele>83</ele>
        <time>2023-03-14T14:32:53.659Z</time>
      </trkpt>
      <trkpt lat="49.47107" lon="1.33594">
        <ele>83</ele>
        <time>2023-03-14T14:32:57.827Z</time>
      </trkpt>
      <trkpt lat="49.47105" lon="1.336">
        <ele>83</ele>
        <time>2023-03-14T14:33:01.996Z</time>
      </trkpt>
      <trkpt lat="49.47103" lon="1.33607">
        <ele>83</ele>
        <time>2023-03-14T14:33:06.641Z</time>
      </trkpt>
      <trkpt lat="49.47101" lon="1.33615">
        <ele>83</ele>
        <time>2023-03-14T14:33:10.810Z</time>
      </trkpt>
      <trkpt lat="49.47101" lon="1.33622">
        <ele>83</ele>
        <time>2023-03-14T14:33:14.860Z</time>
      </trkpt>
      <trkpt lat="49.471" lon="1.33631">
        <ele>84</ele>
        <time>2023-03-14T14:33:19.442Z</time>
      </trkpt>
      <trkpt lat="49.47099" lon="1.33638">
        <ele>84</ele>
        <time>2023-03-14T14:33:23.435Z</time>
      </trkpt>
      <trkpt lat="49.47098" lon="1.33646">
        <ele>84</ele>
        <time>2023-03-14T14:33:27.604Z</time>
      </trkpt>
      <trkpt lat="49.47096" lon="1.33653">
        <ele>84</ele>
        <time>2023-03-14T14:33:31.653Z</time>
      </trkpt>
      <trkpt lat="49.47095" lon="1.3366">
        <ele>84</ele>
        <time>2023-03-14T14:33:35.822Z</time>
      </trkpt>
      <trkpt lat="49.47093" lon="1.33668">
        <ele>84</ele>
        <time>2023-03-14T14:33:39.991Z</time>
      </trkpt>
      <trkpt lat="49.47092" lon="1.33676">
        <ele>84</ele>
        <time>2023-03-14T14:33:44.636Z</time>
      </trkpt>
      <trkpt lat="49.47091" lon="1.33682">
        <ele>84</ele>
        <time>2023-03-14T14:33:48.805Z</time>
      </trkpt>
      <trkpt lat="49.4709" lon="1.33688">
        <ele>84</ele>
        <time>2023-03-14T14:33:52.854Z</time>
      </trkpt>
      <trkpt lat="49.47089" lon="1.33696">
        <ele>84</ele>
        <time>2023-03-14T14:33:57.294Z</time>
      </trkpt>
      <trkpt lat="49.47088" lon="1.33702">
        <ele>84</ele>
        <time>2023-03-14T14:34:01.430Z</time>
      </trkpt>
      <trkpt lat="49.47084" lon="1.33707">
        <ele>84</ele>
        <time>2023-03-14T14:34:06.194Z</time>
      </trkpt>
      <trkpt lat="49.4708" lon="1.33712">
        <ele>85</ele>
        <time>2023-03-14T14:34:10.720Z</time>
      </trkpt>
      <trkpt lat="49.47075" lon="1.33716">
        <ele>85</ele>
        <time>2023-03-14T14:34:14.770Z</time>
      </trkpt>
      <trkpt lat="49.47072" lon="1.33721">
        <ele>85</ele>
        <time>2023-03-14T14:34:18.819Z</time>
      </trkpt>
      <trkpt lat="49.4707" lon="1.33727">
        <ele>85</ele>
        <time>2023-03-14T14:34:23.442Z</time>
      </trkpt>
      <trkpt lat="49.47067" lon="1.33733">
        <ele>82</ele>
        <time>2023-03-14T14:34:27.395Z</time>
      </trkpt>
      <trkpt lat="49.47066" lon="1.33738">
        <ele>83</ele>
        <time>2023-03-14T14:34:31.442Z</time>
      </trkpt>
      <trkpt lat="49.47064" lon="1.33743">
        <ele>83</ele>
        <time>2023-03-14T14:34:35.613Z</time>
      </trkpt>
      <trkpt lat="49.47062" lon="1.33751">
        <ele>83</ele>
        <time>2023-03-14T14:34:40.307Z</time>
      </trkpt>
      <trkpt lat="49.47058" lon="1.33759">
        <ele>83</ele>
        <time>2023-03-14T14:34:44.918Z</time>
      </trkpt>
      <trkpt lat="49.47056" lon="1.33766">
        <ele>84</ele>
        <time>2023-03-14T14:34:48.834Z</time>
      </trkpt>
      <trkpt lat="49.47054" lon="1.33773">
        <ele>84</ele>
        <time>2023-03-14T14:34:53.003Z</time>
      </trkpt>
      <trkpt lat="49.47052" lon="1.33779">
        <ele>84</ele>
        <time>2023-03-14T14:34:57.052Z</time>
      </trkpt>
      <trkpt lat="49.4705" lon="1.33789">
        <ele>84</ele>
        <time>2023-03-14T14:35:01.816Z</time>
      </trkpt>
      <trkpt lat="49.47047" lon="1.33796">
        <ele>85</ele>
        <time>2023-03-14T14:35:05.866Z</time>
      </trkpt>
      <trkpt lat="49.47043" lon="1.33802">
        <ele>85</ele>
        <time>2023-03-14T14:35:10.392Z</time>
      </trkpt>
      <trkpt lat="49.4704" lon="1.33808">
        <ele>83</ele>
        <time>2023-03-14T14:35:14.442Z</time>
      </trkpt>
      <trkpt lat="49.47037" lon="1.33816">
        <ele>83</ele>
        <time>2023-03-14T14:35:18.610Z</time>
      </trkpt>
      <trkpt lat="49.47035" lon="1.33824">
        <ele>82</ele>
        <time>2023-03-14T14:35:22.541Z</time>
      </trkpt>
      <trkpt lat="49.47034" lon="1.33832">
        <ele>82</ele>
        <time>2023-03-14T14:35:27.186Z</time>
      </trkpt>
      <trkpt lat="49.47032" lon="1.33841">
        <ele>82</ele>
        <time>2023-03-14T14:35:31.593Z</time>
      </trkpt>
      <trkpt lat="49.47031" lon="1.3385">
        <ele>82</ele>
        <time>2023-03-14T14:35:35.642Z</time>
      </trkpt>
      <trkpt lat="49.4703" lon="1.33858">
        <ele>82</ele>
        <time>2023-03-14T14:35:39.811Z</time>
      </trkpt>
      <trkpt lat="49.47029" lon="1.33867">
        <ele>82</ele>
        <time>2023-03-14T14:35:44.814Z</time>
      </trkpt>
      <trkpt lat="49.4703" lon="1.33877">
        <ele>82</ele>
        <time>2023-03-14T14:35:49.816Z</time>
      </trkpt>
      <trkpt lat="49.4703" lon="1.33884">
        <ele>82</ele>
        <time>2023-03-14T14:35:53.866Z</time>
      </trkpt>
      <trkpt lat="49.4703" lon="1.33892">
        <ele>82</ele>
        <time>2023-03-14T14:35:58.034Z</time>
      </trkpt>
      <trkpt lat="49.47031" lon="1.339">
        <ele>82</ele>
        <time>2023-03-14T14:36:02.680Z</time>
      </trkpt>
      <trkpt lat="49.47033" lon="1.33902">
        <ele>82</ele>
        <time>2023-03-14T14:36:07.206Z</time>
      </trkpt>
      <trkpt lat="49.47033" lon="1.33907">
        <ele>82</ele>
        <time>2023-03-14T14:36:20.784Z</time>
      </trkpt>
      <trkpt lat="49.47034" lon="1.33915">
        <ele>82</ele>
        <time>2023-03-14T14:36:24.833Z</time>
      </trkpt>
      <trkpt lat="49.47036" lon="1.33924">
        <ele>82</ele>
        <time>2023-03-14T14:36:29.598Z</time>
      </trkpt>
      <trkpt lat="49.47036" lon="1.33924">
        <ele>82</ele>
        <time>2023-03-14T14:36:34.243Z</time>
      </trkpt>
      <trkpt lat="49.47036" lon="1.33924">
        <ele>82</ele>
        <time>2023-03-14T14:36:39.007Z</time>
      </trkpt>
      <trkpt lat="49.47037" lon="1.33925">
        <ele>82</ele>
        <time>2023-03-14T14:36:43.652Z</time>
      </trkpt>
      <trkpt lat="49.47038" lon="1.33928">
        <ele>82</ele>
        <time>2023-03-14T14:36:47.821Z</time>
      </trkpt>
      <trkpt lat="49.47039" lon="1.33933">
        <ele>82</ele>
        <time>2023-03-14T14:36:53.097Z</time>
      </trkpt>
      <trkpt lat="49.4704" lon="1.33938">
        <ele>82</ele>
        <time>2023-03-14T14:36:57.230Z</time>
      </trkpt>
      <trkpt lat="49.4704" lon="1.33944">
        <ele>82</ele>
        <time>2023-03-14T14:37:01.161Z</time>
      </trkpt>
      <trkpt lat="49.47042" lon="1.3395">
        <ele>85</ele>
        <time>2023-03-14T14:37:05.687Z</time>
      </trkpt>
      <trkpt lat="49.47043" lon="1.33955">
        <ele>85</ele>
        <time>2023-03-14T14:37:09.737Z</time>
      </trkpt>
      <trkpt lat="49.47045" lon="1.33961">
        <ele>84</ele>
        <time>2023-03-14T14:37:14.739Z</time>
      </trkpt>
      <trkpt lat="49.47045" lon="1.33969">
        <ele>84</ele>
        <time>2023-03-14T14:37:18.789Z</time>
      </trkpt>
      <trkpt lat="49.47047" lon="1.33975">
        <ele>84</ele>
        <time>2023-03-14T14:37:22.838Z</time>
      </trkpt>
      <trkpt lat="49.47049" lon="1.33982">
        <ele>84</ele>
        <time>2023-03-14T14:37:27.442Z</time>
      </trkpt>
      <trkpt lat="49.47052" lon="1.33988">
        <ele>82</ele>
        <time>2023-03-14T14:37:31.414Z</time>
      </trkpt>
      <trkpt lat="49.47053" lon="1.33995">
        <ele>82</ele>
        <time>2023-03-14T14:37:35.442Z</time>
      </trkpt>
      <trkpt lat="49.47055" lon="1.34001">
        <ele>82</ele>
        <time>2023-03-14T14:37:39.632Z</time>
      </trkpt>
      <trkpt lat="49.47057" lon="1.34007">
        <ele>82</ele>
        <time>2023-03-14T14:37:43.801Z</time>
      </trkpt>
      <trkpt lat="49.47061" lon="1.34012">
        <ele>82</ele>
        <time>2023-03-14T14:37:47.851Z</time>
      </trkpt>
      <trkpt lat="49.47063" lon="1.34018">
        <ele>80</ele>
        <time>2023-03-14T14:37:52.019Z</time>
      </trkpt>
      <trkpt lat="49.47065" lon="1.34025">
        <ele>80</ele>
        <time>2023-03-14T14:37:56.188Z</time>
      </trkpt>
      <trkpt lat="49.47068" lon="1.34032">
        <ele>80</ele>
        <time>2023-03-14T14:38:00.833Z</time>
      </trkpt>
      <trkpt lat="49.47071" lon="1.34038">
        <ele>83</ele>
        <time>2023-03-14T14:38:05.442Z</time>
      </trkpt>
      <trkpt lat="49.47075" lon="1.34042">
        <ele>82</ele>
        <time>2023-03-14T14:38:09.409Z</time>
      </trkpt>
      <trkpt lat="49.47078" lon="1.34048">
        <ele>82</ele>
        <time>2023-03-14T14:38:13.442Z</time>
      </trkpt>
      <trkpt lat="49.47082" lon="1.34054">
        <ele>82</ele>
        <time>2023-03-14T14:38:17.627Z</time>
      </trkpt>
      <trkpt lat="49.47085" lon="1.3406">
        <ele>82</ele>
        <time>2023-03-14T14:38:21.796Z</time>
      </trkpt>
      <trkpt lat="49.47089" lon="1.34064">
        <ele>82</ele>
        <time>2023-03-14T14:38:25.846Z</time>
      </trkpt>
      <trkpt lat="49.47098" lon="1.3408">
        <ele>82</ele>
        <time>2023-03-14T14:38:44.784Z</time>
      </trkpt>
      <trkpt lat="49.47099" lon="1.34082">
        <ele>82</ele>
        <time>2023-03-14T14:38:49.191Z</time>
      </trkpt>
      <trkpt lat="49.47099" lon="1.34088">
        <ele>82</ele>
        <time>2023-03-14T14:38:53.836Z</time>
      </trkpt>
      <trkpt lat="49.47101" lon="1.34097">
        <ele>82</ele>
        <time>2023-03-14T14:38:58.838Z</time>
      </trkpt>
      <trkpt lat="49.47102" lon="1.34104">
        <ele>80</ele>
        <time>2023-03-14T14:39:03.442Z</time>
      </trkpt>
      <trkpt lat="49.47104" lon="1.34111">
        <ele>80</ele>
        <time>2023-03-14T14:39:07.414Z</time>
      </trkpt>
      <trkpt lat="49.47106" lon="1.34117">
        <ele>80</ele>
        <time>2023-03-14T14:39:11.583Z</time>
      </trkpt>
      <trkpt lat="49.47106" lon="1.34125">
        <ele>80</ele>
        <time>2023-03-14T14:39:16.109Z</time>
      </trkpt>
      <trkpt lat="49.47107" lon="1.34132">
        <ele>78</ele>
        <time>2023-03-14T14:39:20.159Z</time>
      </trkpt>
      <trkpt lat="49.47109" lon="1.34138">
        <ele>78</ele>
        <time>2023-03-14T14:39:24.804Z</time>
      </trkpt>
      <trkpt lat="49.4711" lon="1.34142">
        <ele>78</ele>
        <time>2023-03-14T14:39:29.959Z</time>
      </trkpt>
      <trkpt lat="49.47111" lon="1.3415">
        <ele>78</ele>
        <time>2023-03-14T14:39:33.975Z</time>
      </trkpt>
      <trkpt lat="49.47112" lon="1.34158">
        <ele>77</ele>
        <time>2023-03-14T14:39:38.025Z</time>
      </trkpt>
      <trkpt lat="49.47109" lon="1.34165">
        <ele>77</ele>
        <time>2023-03-14T14:39:42.789Z</time>
      </trkpt>
      <trkpt lat="49.47103" lon="1.34169">
        <ele>77</ele>
        <time>2023-03-14T14:39:47.434Z</time>
      </trkpt>
      <trkpt lat="49.47098" lon="1.34171">
        <ele>77</ele>
        <time>2023-03-14T14:39:51.603Z</time>
      </trkpt>
      <trkpt lat="49.47093" lon="1.34174">
        <ele>77</ele>
        <time>2023-03-14T14:39:55.653Z</time>
      </trkpt>
      <trkpt lat="49.47088" lon="1.34178">
        <ele>77</ele>
        <time>2023-03-14T14:39:59.821Z</time>
      </trkpt>
      <trkpt lat="49.47088" lon="1.34187">
        <ele>77</ele>
        <time>2023-03-14T14:40:04.442Z</time>
      </trkpt>
      <trkpt lat="49.4709" lon="1.34193">
        <ele>77</ele>
        <time>2023-03-14T14:40:08.442Z</time>
      </trkpt>
      <trkpt lat="49.47094" lon="1.34198">
        <ele>77</ele>
        <time>2023-03-14T14:40:13.042Z</time>
      </trkpt>
      <trkpt lat="49.47094" lon="1.34197">
        <ele>77</ele>
        <time>2023-03-14T14:40:56.299Z</time>
      </trkpt>
      <trkpt lat="49.47095" lon="1.34198">
        <ele>77</ele>
        <time>2023-03-14T14:41:00.301Z</time>
      </trkpt>
      <trkpt lat="49.47096" lon="1.34201">
        <ele>77</ele>
        <time>2023-03-14T14:41:05.302Z</time>
      </trkpt>
      <trkpt lat="49.471" lon="1.34204">
        <ele>76</ele>
        <time>2023-03-14T14:41:10.115Z</time>
      </trkpt>
      <trkpt lat="49.47102" lon="1.34207">
        <ele>76</ele>
        <time>2023-03-14T14:41:14.442Z</time>
      </trkpt>
      <trkpt lat="49.47105" lon="1.34214">
        <ele>76</ele>
        <time>2023-03-14T14:41:19.048Z</time>
      </trkpt>
      <trkpt lat="49.47107" lon="1.3422">
        <ele>76</ele>
        <time>2023-03-14T14:41:23.216Z</time>
      </trkpt>
      <trkpt lat="49.4711" lon="1.34224">
        <ele>76</ele>
        <time>2023-03-14T14:41:27.862Z</time>
      </trkpt>
      <trkpt lat="49.47113" lon="1.34228">
        <ele>76</ele>
        <time>2023-03-14T14:41:32.030Z</time>
      </trkpt>
      <trkpt lat="49.47116" lon="1.34235">
        <ele>76</ele>
        <time>2023-03-14T14:41:37.302Z</time>
      </trkpt>
      <trkpt lat="49.47118" lon="1.34241">
        <ele>76</ele>
        <time>2023-03-14T14:41:41.440Z</time>
      </trkpt>
      <trkpt lat="49.47121" lon="1.34246">
        <ele>76</ele>
        <time>2023-03-14T14:41:45.609Z</time>
      </trkpt>
      <trkpt lat="49.47124" lon="1.34251">
        <ele>76</ele>
        <time>2023-03-14T14:41:50.254Z</time>
      </trkpt>
      <trkpt lat="49.47126" lon="1.34256">
        <ele>75</ele>
        <time>2023-03-14T14:41:54.423Z</time>
      </trkpt>
      <trkpt lat="49.47127" lon="1.34261">
        <ele>75</ele>
        <time>2023-03-14T14:41:59.187Z</time>
      </trkpt>
      <trkpt lat="49.4713" lon="1.34263">
        <ele>75</ele>
        <time>2023-03-14T14:42:03.781Z</time>
      </trkpt>
      <trkpt lat="49.47134" lon="1.34267">
        <ele>76</ele>
        <time>2023-03-14T14:42:07.763Z</time>
      </trkpt>
      <trkpt lat="49.47137" lon="1.34271">
        <ele>76</ele>
        <time>2023-03-14T14:42:12.300Z</time>
      </trkpt>
      <trkpt lat="49.47139" lon="1.34277">
        <ele>76</ele>
        <time>2023-03-14T14:42:16.219Z</time>
      </trkpt>
      <trkpt lat="49.47138" lon="1.3428">
        <ele>76</ele>
        <time>2023-03-14T14:42:20.857Z</time>
      </trkpt>
      <trkpt lat="49.47132" lon="1.34279">
        <ele>76</ele>
        <time>2023-03-14T14:42:24.795Z</time>
      </trkpt>
      <trkpt lat="49.47127" lon="1.34275">
        <ele>76</ele>
        <time>2023-03-14T14:42:28.845Z</time>
      </trkpt>
      <trkpt lat="49.47117" lon="1.3426">
        <ele>76</ele>
        <time>2023-03-14T14:43:47.294Z</time>
      </trkpt>
      <trkpt lat="49.47114" lon="1.34262">
        <ele>76</ele>
        <time>2023-03-14T14:43:52.307Z</time>
      </trkpt>
      <trkpt lat="49.4711" lon="1.34265">
        <ele>76</ele>
        <time>2023-03-14T14:43:57.305Z</time>
      </trkpt>
      <trkpt lat="49.47106" lon="1.34269">
        <ele>76</ele>
        <time>2023-03-14T14:44:01.828Z</time>
      </trkpt>
      <trkpt lat="49.47101" lon="1.3427">
        <ele>76</ele>
        <time>2023-03-14T14:44:06.950Z</time>
      </trkpt>
      <trkpt lat="49.47097" lon="1.3427">
        <ele>76</ele>
        <time>2023-03-14T14:44:10.999Z</time>
      </trkpt>
      <trkpt lat="49.47093" lon="1.34273">
        <ele>76</ele>
        <time>2023-03-14T14:44:15.049Z</time>
      </trkpt>
      <trkpt lat="49.47088" lon="1.34275">
        <ele>76</ele>
        <time>2023-03-14T14:44:19.788Z</time>
      </trkpt>
      <trkpt lat="49.47084" lon="1.34277">
        <ele>76</ele>
        <time>2023-03-14T14:44:24.295Z</time>
      </trkpt>
      <trkpt lat="49.4708" lon="1.34279">
        <ele>76</ele>
        <time>2023-03-14T14:44:28.389Z</time>
      </trkpt>
      <trkpt lat="49.47075" lon="1.34282">
        <ele>76</ele>
        <time>2023-03-14T14:44:33.034Z</time>
      </trkpt>
      <trkpt lat="49.47071" lon="1.34284">
        <ele>76</ele>
        <time>2023-03-14T14:44:37.203Z</time>
      </trkpt>
      <trkpt lat="49.47067" lon="1.34286">
        <ele>76</ele>
        <time>2023-03-14T14:44:41.610Z</time>
      </trkpt>
      <trkpt lat="49.47062" lon="1.34287">
        <ele>76</ele>
        <time>2023-03-14T14:44:45.779Z</time>
      </trkpt>
      <trkpt lat="49.47058" lon="1.34287">
        <ele>76</ele>
        <time>2023-03-14T14:44:50.186Z</time>
      </trkpt>
      <trkpt lat="49.47052" lon="1.34288">
        <ele>76</ele>
        <time>2023-03-14T14:44:54.712Z</time>
      </trkpt>
      <trkpt lat="49.47047" lon="1.3429">
        <ele>76</ele>
        <time>2023-03-14T14:44:59.238Z</time>
      </trkpt>
      <trkpt lat="49.47043" lon="1.34293">
        <ele>76</ele>
        <time>2023-03-14T14:45:03.980Z</time>
      </trkpt>
      <trkpt lat="49.47041" lon="1.343">
        <ele>76</ele>
        <time>2023-03-14T14:45:07.933Z</time>
      </trkpt>
      <trkpt lat="49.47042" lon="1.34307">
        <ele>76</ele>
        <time>2023-03-14T14:45:11.863Z</time>
      </trkpt>
      <trkpt lat="49.47043" lon="1.34314">
        <ele>76</ele>
        <time>2023-03-14T14:45:16.303Z</time>
      </trkpt>
      <trkpt lat="49.47045" lon="1.34321">
        <ele>76</ele>
        <time>2023-03-14T14:45:20.439Z</time>
      </trkpt>
      <trkpt lat="49.47047" lon="1.34326">
        <ele>76</ele>
        <time>2023-03-14T14:45:24.442Z</time>
      </trkpt>
      <trkpt lat="49.47047" lon="1.34333">
        <ele>76</ele>
        <time>2023-03-14T14:45:29.015Z</time>
      </trkpt>
      <trkpt lat="49.47042" lon="1.34336">
        <ele>76</ele>
        <time>2023-03-14T14:45:33.460Z</time>
      </trkpt>
      <trkpt lat="49.47038" lon="1.34336">
        <ele>76</ele>
        <time>2023-03-14T14:45:37.955Z</time>
      </trkpt>
      <trkpt lat="49.47035" lon="1.34337">
        <ele>76</ele>
        <time>2023-03-14T14:45:41.878Z</time>
      </trkpt>
      <trkpt lat="49.47031" lon="1.34339">
        <ele>76</ele>
        <time>2023-03-14T14:45:45.809Z</time>
      </trkpt>
      <trkpt lat="49.47028" lon="1.34343">
        <ele>76</ele>
        <time>2023-03-14T14:45:49.858Z</time>
      </trkpt>
      <trkpt lat="49.47025" lon="1.34348">
        <ele>76</ele>
        <time>2023-03-14T14:45:54.861Z</time>
      </trkpt>
      <trkpt lat="49.47022" lon="1.34352">
        <ele>76</ele>
        <time>2023-03-14T14:45:59.030Z</time>
      </trkpt>
      <trkpt lat="49.47018" lon="1.34355">
        <ele>76</ele>
        <time>2023-03-14T14:46:03.794Z</time>
      </trkpt>
      <trkpt lat="49.47014" lon="1.34359">
        <ele>76</ele>
        <time>2023-03-14T14:46:08.165Z</time>
      </trkpt>
      <trkpt lat="49.47011" lon="1.34362">
        <ele>79</ele>
        <time>2023-03-14T14:46:12.204Z</time>
      </trkpt>
      <trkpt lat="49.47007" lon="1.34366">
        <ele>79</ele>
        <time>2023-03-14T14:46:16.062Z</time>
      </trkpt>
      <trkpt lat="49.47003" lon="1.34369">
        <ele>79</ele>
        <time>2023-03-14T14:46:20.231Z</time>
      </trkpt>
      <trkpt lat="49.47001" lon="1.34374">
        <ele>79</ele>
        <time>2023-03-14T14:46:24.876Z</time>
      </trkpt>
      <trkpt lat="49.47002" lon="1.34383">
        <ele>80</ele>
        <time>2023-03-14T14:46:29.402Z</time>
      </trkpt>
      <trkpt lat="49.47003" lon="1.34391">
        <ele>80</ele>
        <time>2023-03-14T14:46:34.047Z</time>
      </trkpt>
      <trkpt lat="49.47005" lon="1.34397">
        <ele>80</ele>
        <time>2023-03-14T14:46:38.216Z</time>
      </trkpt>
      <trkpt lat="49.47006" lon="1.34403">
        <ele>81</ele>
        <time>2023-03-14T14:46:42.266Z</time>
      </trkpt>
      <trkpt lat="49.47007" lon="1.3441">
        <ele>81</ele>
        <time>2023-03-14T14:46:45.839Z</time>
      </trkpt>
      <trkpt lat="49.47009" lon="1.34418">
        <ele>81</ele>
        <time>2023-03-14T14:46:50.841Z</time>
      </trkpt>
      <trkpt lat="49.4701" lon="1.34423">
        <ele>81</ele>
        <time>2023-03-14T14:46:55.010Z</time>
      </trkpt>
      <trkpt lat="49.47009" lon="1.34426">
        <ele>81</ele>
        <time>2023-03-14T14:46:59.060Z</time>
      </trkpt>
      <trkpt lat="49.47009" lon="1.34428">
        <ele>81</ele>
        <time>2023-03-14T14:47:03.824Z</time>
      </trkpt>
      <trkpt lat="49.47006" lon="1.34435">
        <ele>81</ele>
        <time>2023-03-14T14:47:08.442Z</time>
      </trkpt>
      <trkpt lat="49.47007" lon="1.34441">
        <ele>81</ele>
        <time>2023-03-14T14:47:12.995Z</time>
      </trkpt>
      <trkpt lat="49.47008" lon="1.34447">
        <ele>81</ele>
        <time>2023-03-14T14:47:17.442Z</time>
      </trkpt>
      <trkpt lat="49.47012" lon="1.34451">
        <ele>81</ele>
        <time>2023-03-14T14:47:21.993Z</time>
      </trkpt>
      <trkpt lat="49.47015" lon="1.34455">
        <ele>79</ele>
        <time>2023-03-14T14:47:25.978Z</time>
      </trkpt>
      <trkpt lat="49.47017" lon="1.34463">
        <ele>80</ele>
        <time>2023-03-14T14:47:30.623Z</time>
      </trkpt>
      <trkpt lat="49.4702" lon="1.3447">
        <ele>80</ele>
        <time>2023-03-14T14:47:35.293Z</time>
      </trkpt>
      <trkpt lat="49.47021" lon="1.34477">
        <ele>80</ele>
        <time>2023-03-14T14:47:39.437Z</time>
      </trkpt>
      <trkpt lat="49.47018" lon="1.34483">
        <ele>80</ele>
        <time>2023-03-14T14:47:44.082Z</time>
      </trkpt>
      <trkpt lat="49.47018" lon="1.3449">
        <ele>81</ele>
        <time>2023-03-14T14:47:48.264Z</time>
      </trkpt>
      <trkpt lat="49.47017" lon="1.34496">
        <ele>81</ele>
        <time>2023-03-14T14:47:52.182Z</time>
      </trkpt>
      <trkpt lat="49.47014" lon="1.34505">
        <ele>81</ele>
        <time>2023-03-14T14:47:56.827Z</time>
      </trkpt>
      <trkpt lat="49.47013" lon="1.34513">
        <ele>82</ele>
        <time>2023-03-14T14:48:00.996Z</time>
      </trkpt>
      <trkpt lat="49.47012" lon="1.34522">
        <ele>82</ele>
        <time>2023-03-14T14:48:05.562Z</time>
      </trkpt>
      <trkpt lat="49.4701" lon="1.34531">
        <ele>82</ele>
        <time>2023-03-14T14:48:10.048Z</time>
      </trkpt>
      <trkpt lat="49.4701" lon="1.34539">
        <ele>82</ele>
        <time>2023-03-14T14:48:14.217Z</time>
      </trkpt>
      <trkpt lat="49.47011" lon="1.34548">
        <ele>82</ele>
        <time>2023-03-14T14:48:18.862Z</time>
      </trkpt>
      <trkpt lat="49.4701" lon="1.34555">
        <ele>82</ele>
        <time>2023-03-14T14:48:23.507Z</time>
      </trkpt>
      <trkpt lat="49.47008" lon="1.34562">
        <ele>82</ele>
        <time>2023-03-14T14:48:27.557Z</time>
      </trkpt>
      <trkpt lat="49.47006" lon="1.3457">
        <ele>82</ele>
        <time>2023-03-14T14:48:32.083Z</time>
      </trkpt>
      <trkpt lat="49.47004" lon="1.34577">
        <ele>82</ele>
        <time>2023-03-14T14:48:36.222Z</time>
      </trkpt>
      <trkpt lat="49.47" lon="1.34584">
        <ele>82</ele>
        <time>2023-03-14T14:48:40.182Z</time>
      </trkpt>
      <trkpt lat="49.46997" lon="1.34591">
        <ele>82</ele>
        <time>2023-03-14T14:48:44.827Z</time>
      </trkpt>
      <trkpt lat="49.46993" lon="1.34597">
        <ele>81</ele>
        <time>2023-03-14T14:48:49.449Z</time>
      </trkpt>
      <trkpt lat="49.4699" lon="1.34603">
        <ele>81</ele>
        <time>2023-03-14T14:48:53.403Z</time>
      </trkpt>
      <trkpt lat="49.46987" lon="1.34609">
        <ele>81</ele>
        <time>2023-03-14T14:48:57.442Z</time>
      </trkpt>
      <trkpt lat="49.46983" lon="1.34614">
        <ele>82</ele>
        <time>2023-03-14T14:49:01.621Z</time>
      </trkpt>
      <trkpt lat="49.46979" lon="1.34618">
        <ele>82</ele>
        <time>2023-03-14T14:49:05.790Z</time>
      </trkpt>
      <trkpt lat="49.46975" lon="1.34622">
        <ele>82</ele>
        <time>2023-03-14T14:49:10.197Z</time>
      </trkpt>
      <trkpt lat="49.46971" lon="1.34627">
        <ele>81</ele>
        <time>2023-03-14T14:49:14.247Z</time>
      </trkpt>
      <trkpt lat="49.46968" lon="1.34633">
        <ele>81</ele>
        <time>2023-03-14T14:49:18.416Z</time>
      </trkpt>
      <trkpt lat="49.46965" lon="1.34638">
        <ele>81</ele>
        <time>2023-03-14T14:49:22.442Z</time>
      </trkpt>
      <trkpt lat="49.46962" lon="1.34641">
        <ele>81</ele>
        <time>2023-03-14T14:49:26.396Z</time>
      </trkpt>
      <trkpt lat="49.46958" lon="1.34642">
        <ele>82</ele>
        <time>2023-03-14T14:49:30.442Z</time>
      </trkpt>
      <trkpt lat="49.46953" lon="1.34645">
        <ele>82</ele>
        <time>2023-03-14T14:49:34.614Z</time>
      </trkpt>
      <trkpt lat="49.46948" lon="1.34649">
        <ele>82</ele>
        <time>2023-03-14T14:49:38.783Z</time>
      </trkpt>
      <trkpt lat="49.46944" lon="1.34652">
        <ele>82</ele>
        <time>2023-03-14T14:49:43.190Z</time>
      </trkpt>
      <trkpt lat="49.4694" lon="1.34656">
        <ele>82</ele>
        <time>2023-03-14T14:49:47.835Z</time>
      </trkpt>
      <trkpt lat="49.46936" lon="1.34659">
        <ele>82</ele>
        <time>2023-03-14T14:49:52.004Z</time>
      </trkpt>
      <trkpt lat="49.46932" lon="1.34661">
        <ele>82</ele>
        <time>2023-03-14T14:49:56.173Z</time>
      </trkpt>
      <trkpt lat="49.46926" lon="1.34664">
        <ele>83</ele>
        <time>2023-03-14T14:50:00.699Z</time>
      </trkpt>
      <trkpt lat="49.46921" lon="1.34667">
        <ele>83</ele>
        <time>2023-03-14T14:50:04.749Z</time>
      </trkpt>
      <trkpt lat="49.46917" lon="1.34671">
        <ele>83</ele>
        <time>2023-03-14T14:50:09.299Z</time>
      </trkpt>
      <trkpt lat="49.46912" lon="1.34675">
        <ele>83</ele>
        <time>2023-03-14T14:50:13.306Z</time>
      </trkpt>
      <trkpt lat="49.46906" lon="1.34679">
        <ele>83</ele>
        <time>2023-03-14T14:50:17.850Z</time>
      </trkpt>
      <trkpt lat="49.46902" lon="1.34683">
        <ele>84</ele>
        <time>2023-03-14T14:50:22.019Z</time>
      </trkpt>
      <trkpt lat="49.46897" lon="1.34687">
        <ele>84</ele>
        <time>2023-03-14T14:50:26.545Z</time>
      </trkpt>
      <trkpt lat="49.46893" lon="1.34692">
        <ele>84</ele>
        <time>2023-03-14T14:50:30.595Z</time>
      </trkpt>
      <trkpt lat="49.46889" lon="1.34697">
        <ele>84</ele>
        <time>2023-03-14T14:50:35.121Z</time>
      </trkpt>
      <trkpt lat="49.46885" lon="1.34702">
        <ele>84</ele>
        <time>2023-03-14T14:50:39.171Z</time>
      </trkpt>
      <trkpt lat="49.4688" lon="1.34702">
        <ele>84</ele>
        <time>2023-03-14T14:50:43.578Z</time>
      </trkpt>
      <trkpt lat="49.46875" lon="1.34701">
        <ele>84</ele>
        <time>2023-03-14T14:50:47.627Z</time>
      </trkpt>
      <trkpt lat="49.46871" lon="1.34704">
        <ele>84</ele>
        <time>2023-03-14T14:50:51.796Z</time>
      </trkpt>
      <trkpt lat="49.46868" lon="1.34711">
        <ele>83</ele>
        <time>2023-03-14T14:50:56.203Z</time>
      </trkpt>
      <trkpt lat="49.46868" lon="1.34719">
        <ele>83</ele>
        <time>2023-03-14T14:51:00.133Z</time>
      </trkpt>
      <trkpt lat="49.46869" lon="1.34729">
        <ele>83</ele>
        <time>2023-03-14T14:51:04.540Z</time>
      </trkpt>
      <trkpt lat="49.46865" lon="1.34736">
        <ele>83</ele>
        <time>2023-03-14T14:51:08.590Z</time>
      </trkpt>
      <trkpt lat="49.46861" lon="1.34742">
        <ele>83</ele>
        <time>2023-03-14T14:51:12.640Z</time>
      </trkpt>
      <trkpt lat="49.46857" lon="1.34748">
        <ele>83</ele>
        <time>2023-03-14T14:51:16.808Z</time>
      </trkpt>
      <trkpt lat="49.46853" lon="1.34751">
        <ele>83</ele>
        <time>2023-03-14T14:51:20.858Z</time>
      </trkpt>
      <trkpt lat="49.46849" lon="1.34754">
        <ele>83</ele>
        <time>2023-03-14T14:51:25.294Z</time>
      </trkpt>
      <trkpt lat="49.46845" lon="1.34757">
        <ele>84</ele>
        <time>2023-03-14T14:51:29.791Z</time>
      </trkpt>
      <trkpt lat="49.4684" lon="1.34758">
        <ele>84</ele>
        <time>2023-03-14T14:51:34.203Z</time>
      </trkpt>
      <trkpt lat="49.46837" lon="1.34758">
        <ele>84</ele>
        <time>2023-03-14T14:51:38.293Z</time>
      </trkpt>
      <trkpt lat="49.46833" lon="1.34758">
        <ele>84</ele>
        <time>2023-03-14T14:51:43.009Z</time>
      </trkpt>
      <trkpt lat="49.46829" lon="1.34758">
        <ele>84</ele>
        <time>2023-03-14T14:51:47.181Z</time>
      </trkpt>
      <trkpt lat="49.46825" lon="1.34758">
        <ele>84</ele>
        <time>2023-03-14T14:51:51.112Z</time>
      </trkpt>
      <trkpt lat="49.4682" lon="1.34757">
        <ele>84</ele>
        <time>2023-03-14T14:51:55.757Z</time>
      </trkpt>
      <trkpt lat="49.46816" lon="1.34756">
        <ele>86</ele>
        <time>2023-03-14T14:52:00.299Z</time>
      </trkpt>
      <trkpt lat="49.46812" lon="1.34755">
        <ele>86</ele>
        <time>2023-03-14T14:52:04.809Z</time>
      </trkpt>
      <trkpt lat="49.46807" lon="1.34755">
        <ele>86</ele>
        <time>2023-03-14T14:52:08.859Z</time>
      </trkpt>
      <trkpt lat="49.46803" lon="1.34755">
        <ele>86</ele>
        <time>2023-03-14T14:52:13.027Z</time>
      </trkpt>
      <trkpt lat="49.46799" lon="1.34754">
        <ele>86</ele>
        <time>2023-03-14T14:52:17.553Z</time>
      </trkpt>
      <trkpt lat="49.46795" lon="1.34753">
        <ele>86</ele>
        <time>2023-03-14T14:52:22.080Z</time>
      </trkpt>
      <trkpt lat="49.46791" lon="1.34751">
        <ele>88</ele>
        <time>2023-03-14T14:52:26.248Z</time>
      </trkpt>
      <trkpt lat="49.46787" lon="1.3475">
        <ele>88</ele>
        <time>2023-03-14T14:52:30.655Z</time>
      </trkpt>
      <trkpt lat="49.46783" lon="1.3475">
        <ele>88</ele>
        <time>2023-03-14T14:52:34.824Z</time>
      </trkpt>
      <trkpt lat="49.46779" lon="1.34749">
        <ele>88</ele>
        <time>2023-03-14T14:52:38.874Z</time>
      </trkpt>
      <trkpt lat="49.46774" lon="1.34748">
        <ele>88</ele>
        <time>2023-03-14T14:52:43.400Z</time>
      </trkpt>
      <trkpt lat="49.4677" lon="1.34748">
        <ele>88</ele>
        <time>2023-03-14T14:52:47.442Z</time>
      </trkpt>
      <trkpt lat="49.46766" lon="1.34748">
        <ele>88</ele>
        <time>2023-03-14T14:52:51.442Z</time>
      </trkpt>
      <trkpt lat="49.46762" lon="1.34748">
        <ele>89</ele>
        <time>2023-03-14T14:52:56.025Z</time>
      </trkpt>
      <trkpt lat="49.46758" lon="1.34747">
        <ele>89</ele>
        <time>2023-03-14T14:52:59.956Z</time>
      </trkpt>
      <trkpt lat="49.46754" lon="1.34746">
        <ele>89</ele>
        <time>2023-03-14T14:53:04.482Z</time>
      </trkpt>
      <trkpt lat="49.4675" lon="1.34745">
        <ele>89</ele>
        <time>2023-03-14T14:53:08.442Z</time>
      </trkpt>
      <trkpt lat="49.46745" lon="1.34744">
        <ele>89</ele>
        <time>2023-03-14T14:53:12.938Z</time>
      </trkpt>
      <trkpt lat="49.46741" lon="1.34744">
        <ele>89</ele>
        <time>2023-03-14T14:53:16.869Z</time>
      </trkpt>
      <trkpt lat="49.46736" lon="1.34743">
        <ele>90</ele>
        <time>2023-03-14T14:53:22.244Z</time>
      </trkpt>
      <trkpt lat="49.46732" lon="1.34742">
        <ele>90</ele>
        <time>2023-03-14T14:53:26.302Z</time>
      </trkpt>
      <trkpt lat="49.46727" lon="1.34742">
        <ele>90</ele>
        <time>2023-03-14T14:53:30.805Z</time>
      </trkpt>
      <trkpt lat="49.46722" lon="1.34742">
        <ele>90</ele>
        <time>2023-03-14T14:53:35.807Z</time>
      </trkpt>
      <trkpt lat="49.46718" lon="1.34741">
        <ele>90</ele>
        <time>2023-03-14T14:53:39.857Z</time>
      </trkpt>
      <trkpt lat="49.46714" lon="1.3474">
        <ele>90</ele>
        <time>2023-03-14T14:53:44.442Z</time>
      </trkpt>
      <trkpt lat="49.4671" lon="1.34739">
        <ele>90</ele>
        <time>2023-03-14T14:53:48.975Z</time>
      </trkpt>
      <trkpt lat="49.46706" lon="1.34738">
        <ele>93</ele>
        <time>2023-03-14T14:53:52.959Z</time>
      </trkpt>
      <trkpt lat="49.46702" lon="1.34738">
        <ele>93</ele>
        <time>2023-03-14T14:53:57.008Z</time>
      </trkpt>
      <trkpt lat="49.46698" lon="1.34737">
        <ele>93</ele>
        <time>2023-03-14T14:54:01.653Z</time>
      </trkpt>
      <trkpt lat="49.46695" lon="1.34736">
        <ele>94</ele>
        <time>2023-03-14T14:54:06.179Z</time>
      </trkpt>
      <trkpt lat="49.46691" lon="1.34734">
        <ele>94</ele>
        <time>2023-03-14T14:54:09.991Z</time>
      </trkpt>
      <trkpt lat="49.46687" lon="1.34733">
        <ele>94</ele>
        <time>2023-03-14T14:54:14.993Z</time>
      </trkpt>
      <trkpt lat="49.46683" lon="1.34732">
        <ele>94</ele>
        <time>2023-03-14T14:54:19.043Z</time>
      </trkpt>
      <trkpt lat="49.4668" lon="1.34729">
        <ele>96</ele>
        <time>2023-03-14T14:54:23.569Z</time>
      </trkpt>
      <trkpt lat="49.46676" lon="1.34727">
        <ele>96</ele>
        <time>2023-03-14T14:54:28.131Z</time>
      </trkpt>
      <trkpt lat="49.46673" lon="1.34725">
        <ele>96</ele>
        <time>2023-03-14T14:54:32.145Z</time>
      </trkpt>
      <trkpt lat="49.4667" lon="1.34723">
        <ele>96</ele>
        <time>2023-03-14T14:54:36.195Z</time>
      </trkpt>
      <trkpt lat="49.46666" lon="1.3472">
        <ele>96</ele>
        <time>2023-03-14T14:54:40.840Z</time>
      </trkpt>
      <trkpt lat="49.46662" lon="1.34717">
        <ele>96</ele>
        <time>2023-03-14T14:54:45.008Z</time>
      </trkpt>
      <trkpt lat="49.46659" lon="1.34715">
        <ele>96</ele>
        <time>2023-03-14T14:54:49.656Z</time>
      </trkpt>
      <trkpt lat="49.46655" lon="1.34713">
        <ele>96</ele>
        <time>2023-03-14T14:54:53.703Z</time>
      </trkpt>
      <trkpt lat="49.46651" lon="1.34711">
        <ele>98</ele>
        <time>2023-03-14T14:54:58.289Z</time>
      </trkpt>
      <trkpt lat="49.46647" lon="1.34708">
        <ele>98</ele>
        <time>2023-03-14T14:55:02.875Z</time>
      </trkpt>
      <trkpt lat="49.46644" lon="1.34705">
        <ele>98</ele>
        <time>2023-03-14T14:55:07.381Z</time>
      </trkpt>
      <trkpt lat="49.4664" lon="1.34702">
        <ele>98</ele>
        <time>2023-03-14T14:55:11.442Z</time>
      </trkpt>
      <trkpt lat="49.46636" lon="1.34699">
        <ele>98</ele>
        <time>2023-03-14T14:55:15.973Z</time>
      </trkpt>
      <trkpt lat="49.46632" lon="1.34696">
        <ele>98</ele>
        <time>2023-03-14T14:55:20.026Z</time>
      </trkpt>
      <trkpt lat="49.46628" lon="1.34694">
        <ele>98</ele>
        <time>2023-03-14T14:55:24.195Z</time>
      </trkpt>
      <trkpt lat="49.46624" lon="1.34692">
        <ele>100</ele>
        <time>2023-03-14T14:55:28.244Z</time>
      </trkpt>
      <trkpt lat="49.4662" lon="1.34689">
        <ele>100</ele>
        <time>2023-03-14T14:55:32.415Z</time>
      </trkpt>
      <trkpt lat="49.46616" lon="1.34686">
        <ele>100</ele>
        <time>2023-03-14T14:55:37.058Z</time>
      </trkpt>
      <trkpt lat="49.46612" lon="1.34682">
        <ele>100</ele>
        <time>2023-03-14T14:55:41.823Z</time>
      </trkpt>
      <trkpt lat="49.46608" lon="1.34679">
        <ele>101</ele>
        <time>2023-03-14T14:55:46.293Z</time>
      </trkpt>
      <trkpt lat="49.46604" lon="1.34678">
        <ele>101</ele>
        <time>2023-03-14T14:55:50.917Z</time>
      </trkpt>
      <trkpt lat="49.466" lon="1.34676">
        <ele>101</ele>
        <time>2023-03-14T14:55:54.805Z</time>
      </trkpt>
      <trkpt lat="49.46597" lon="1.34673">
        <ele>106</ele>
        <time>2023-03-14T14:55:59.442Z</time>
      </trkpt>
      <trkpt lat="49.46593" lon="1.34671">
        <ele>106</ele>
        <time>2023-03-14T14:56:03.977Z</time>
      </trkpt>
      <trkpt lat="49.4659" lon="1.34669">
        <ele>106</ele>
        <time>2023-03-14T14:56:08.026Z</time>
      </trkpt>
      <trkpt lat="49.46586" lon="1.34666">
        <ele>106</ele>
        <time>2023-03-14T14:56:11.957Z</time>
      </trkpt>
      <trkpt lat="49.46583" lon="1.34664">
        <ele>106</ele>
        <time>2023-03-14T14:56:16.602Z</time>
      </trkpt>
      <trkpt lat="49.4658" lon="1.34661">
        <ele>106</ele>
        <time>2023-03-14T14:56:21.247Z</time>
      </trkpt>
      <trkpt lat="49.46578" lon="1.34659">
        <ele>106</ele>
        <time>2023-03-14T14:56:25.416Z</time>
      </trkpt>
      <trkpt lat="49.46575" lon="1.34657">
        <ele>106</ele>
        <time>2023-03-14T14:56:29.442Z</time>
      </trkpt>
      <trkpt lat="49.46572" lon="1.34656">
        <ele>106</ele>
        <time>2023-03-14T14:56:33.992Z</time>
      </trkpt>
      <trkpt lat="49.46568" lon="1.34654">
        <ele>112</ele>
        <time>2023-03-14T14:56:38.994Z</time>
      </trkpt>
      <trkpt lat="49.46565" lon="1.34651">
        <ele>113</ele>
        <time>2023-03-14T14:56:43.520Z</time>
      </trkpt>
      <trkpt lat="49.46563" lon="1.3465">
        <ele>113</ele>
        <time>2023-03-14T14:56:47.442Z</time>
      </trkpt>
      <trkpt lat="49.46559" lon="1.34648">
        <ele>113</ele>
        <time>2023-03-14T14:56:51.858Z</time>
      </trkpt>
      <trkpt lat="49.46556" lon="1.34646">
        <ele>113</ele>
        <time>2023-03-14T14:56:57.217Z</time>
      </trkpt>
      <trkpt lat="49.46553" lon="1.34643">
        <ele>113</ele>
        <time>2023-03-14T14:57:01.982Z</time>
      </trkpt>
      <trkpt lat="49.4655" lon="1.34642">
        <ele>113</ele>
        <time>2023-03-14T14:57:06.031Z</time>
      </trkpt>
      <trkpt lat="49.46548" lon="1.3464">
        <ele>113</ele>
        <time>2023-03-14T14:57:09.962Z</time>
      </trkpt>
      <trkpt lat="49.46545" lon="1.34639">
        <ele>113</ele>
        <time>2023-03-14T14:57:15.203Z</time>
      </trkpt>
      <trkpt lat="49.46541" lon="1.34638">
        <ele>120</ele>
        <time>2023-03-14T14:57:19.729Z</time>
      </trkpt>
      <trkpt lat="49.46539" lon="1.34636">
        <ele>120</ele>
        <time>2023-03-14T14:57:24.255Z</time>
      </trkpt>
      <trkpt lat="49.46536" lon="1.34633">
        <ele>120</ele>
        <time>2023-03-14T14:57:29.041Z</time>
      </trkpt>
      <trkpt lat="49.46533" lon="1.34631">
        <ele>120</ele>
        <time>2023-03-14T14:57:33.188Z</time>
      </trkpt>
      <trkpt lat="49.4653" lon="1.34627">
        <ele>120</ele>
        <time>2023-03-14T14:57:37.595Z</time>
      </trkpt>
      <trkpt lat="49.46527" lon="1.34626">
        <ele>120</ele>
        <time>2023-03-14T14:57:42.240Z</time>
      </trkpt>
      <trkpt lat="49.46525" lon="1.34625">
        <ele>120</ele>
        <time>2023-03-14T14:57:46.170Z</time>
      </trkpt>
      <trkpt lat="49.46523" lon="1.34623">
        <ele>122</ele>
        <time>2023-03-14T14:57:50.816Z</time>
      </trkpt>
      <trkpt lat="49.4652" lon="1.34621">
        <ele>122</ele>
        <time>2023-03-14T14:57:55.442Z</time>
      </trkpt>
      <trkpt lat="49.46517" lon="1.34619">
        <ele>122</ele>
        <time>2023-03-14T14:57:59.987Z</time>
      </trkpt>
      <trkpt lat="49.46512" lon="1.34617">
        <ele>127</ele>
        <time>2023-03-14T14:58:08.562Z</time>
      </trkpt>
      <trkpt lat="49.4651" lon="1.34615">
        <ele>127</ele>
        <time>2023-03-14T14:58:12.612Z</time>
      </trkpt>
      <trkpt lat="49.46507" lon="1.34615">
        <ele>127</ele>
        <time>2023-03-14T14:58:17.138Z</time>
      </trkpt>
      <trkpt lat="49.46506" lon="1.34617">
        <ele>127</ele>
        <time>2023-03-14T14:58:21.188Z</time>
      </trkpt>
      <trkpt lat="49.46505" lon="1.34621">
        <ele>127</ele>
        <time>2023-03-14T14:58:25.833Z</time>
      </trkpt>
      <trkpt lat="49.46505" lon="1.34623">
        <ele>127</ele>
        <time>2023-03-14T15:13:24.299Z</time>
      </trkpt>
      <trkpt lat="49.46504" lon="1.34618">
        <ele>127</ele>
        <time>2023-03-14T15:13:28.301Z</time>
      </trkpt>
      <trkpt lat="49.46502" lon="1.34613">
        <ele>127</ele>
        <time>2023-03-14T15:13:33.307Z</time>
      </trkpt>
      <trkpt lat="49.46499" lon="1.3461">
        <ele>127</ele>
        <time>2023-03-14T15:13:37.442Z</time>
      </trkpt>
      <trkpt lat="49.46497" lon="1.34607">
        <ele>127</ele>
        <time>2023-03-14T15:13:41.627Z</time>
      </trkpt>
      <trkpt lat="49.46494" lon="1.34604">
        <ele>127</ele>
        <time>2023-03-14T15:13:46.296Z</time>
      </trkpt>
      <trkpt lat="49.46492" lon="1.346">
        <ele>127</ele>
        <time>2023-03-14T15:13:51.051Z</time>
      </trkpt>
      <trkpt lat="49.46489" lon="1.34597">
        <ele>128</ele>
        <time>2023-03-14T15:13:55.177Z</time>
      </trkpt>
      <trkpt lat="49.46485" lon="1.34594">
        <ele>130</ele>
        <time>2023-03-14T15:13:59.135Z</time>
      </trkpt>
      <trkpt lat="49.4648" lon="1.34591">
        <ele>130</ele>
        <time>2023-03-14T15:14:03.542Z</time>
      </trkpt>
      <trkpt lat="49.46476" lon="1.34588">
        <ele>130</ele>
        <time>2023-03-14T15:14:07.442Z</time>
      </trkpt>
      <trkpt lat="49.46472" lon="1.34585">
        <ele>130</ele>
        <time>2023-03-14T15:14:11.403Z</time>
      </trkpt>
      <trkpt lat="49.46468" lon="1.34582">
        <ele>130</ele>
        <time>2023-03-14T15:14:15.961Z</time>
      </trkpt>
      <trkpt lat="49.46465" lon="1.34581">
        <ele>130</ele>
        <time>2023-03-14T15:14:19.978Z</time>
      </trkpt>
      <trkpt lat="49.46461" lon="1.3458">
        <ele>130</ele>
        <time>2023-03-14T15:14:24.028Z</time>
      </trkpt>
      <trkpt lat="49.46458" lon="1.34578">
        <ele>131</ele>
        <time>2023-03-14T15:14:27.958Z</time>
      </trkpt>
      <trkpt lat="49.46454" lon="1.34575">
        <ele>131</ele>
        <time>2023-03-14T15:14:32.608Z</time>
      </trkpt>
      <trkpt lat="49.4645" lon="1.34573">
        <ele>131</ele>
        <time>2023-03-14T15:14:36.653Z</time>
      </trkpt>
      <trkpt lat="49.46447" lon="1.34572">
        <ele>131</ele>
        <time>2023-03-14T15:14:40.822Z</time>
      </trkpt>
      <trkpt lat="49.46444" lon="1.3457">
        <ele>131</ele>
        <time>2023-03-14T15:14:44.395Z</time>
      </trkpt>
      <trkpt lat="49.4644" lon="1.34567">
        <ele>131</ele>
        <time>2023-03-14T15:14:48.442Z</time>
      </trkpt>
      <trkpt lat="49.46435" lon="1.34565">
        <ele>131</ele>
        <time>2023-03-14T15:14:53.208Z</time>
      </trkpt>
      <trkpt lat="49.46431" lon="1.34562">
        <ele>131</ele>
        <time>2023-03-14T15:14:57.258Z</time>
      </trkpt>
      <trkpt lat="49.46426" lon="1.3456">
        <ele>132</ele>
        <time>2023-03-14T15:15:01.903Z</time>
      </trkpt>
      <trkpt lat="49.46422" lon="1.34557">
        <ele>132</ele>
        <time>2023-03-14T15:15:06.429Z</time>
      </trkpt>
      <trkpt lat="49.46418" lon="1.34554">
        <ele>132</ele>
        <time>2023-03-14T15:15:10.955Z</time>
      </trkpt>
      <trkpt lat="49.46414" lon="1.34552">
        <ele>132</ele>
        <time>2023-03-14T15:15:15.442Z</time>
      </trkpt>
      <trkpt lat="49.46409" lon="1.34549">
        <ele>132</ele>
        <time>2023-03-14T15:15:20.007Z</time>
      </trkpt>
      <trkpt lat="49.46405" lon="1.34546">
        <ele>132</ele>
        <time>2023-03-14T15:15:24.057Z</time>
      </trkpt>
      <trkpt lat="49.46401" lon="1.34544">
        <ele>134</ele>
        <time>2023-03-14T15:15:28.369Z</time>
      </trkpt>
      <trkpt lat="49.46397" lon="1.34542">
        <ele>134</ele>
        <time>2023-03-14T15:15:32.394Z</time>
      </trkpt>
      <trkpt lat="49.46392" lon="1.34538">
        <ele>133</ele>
        <time>2023-03-14T15:15:37.039Z</time>
      </trkpt>
      <trkpt lat="49.46387" lon="1.34535">
        <ele>133</ele>
        <time>2023-03-14T15:15:41.684Z</time>
      </trkpt>
      <trkpt lat="49.46383" lon="1.34532">
        <ele>133</ele>
        <time>2023-03-14T15:15:46.210Z</time>
      </trkpt>
      <trkpt lat="49.46379" lon="1.34529">
        <ele>133</ele>
        <time>2023-03-14T15:15:50.295Z</time>
      </trkpt>
      <trkpt lat="49.46375" lon="1.34526">
        <ele>136</ele>
        <time>2023-03-14T15:15:53.833Z</time>
      </trkpt>
      <trkpt lat="49.4637" lon="1.34523">
        <ele>136</ele>
        <time>2023-03-14T15:15:58.297Z</time>
      </trkpt>
      <trkpt lat="49.46366" lon="1.3452">
        <ele>136</ele>
        <time>2023-03-14T15:16:02.766Z</time>
      </trkpt>
      <trkpt lat="49.46361" lon="1.34516">
        <ele>136</ele>
        <time>2023-03-14T15:16:07.296Z</time>
      </trkpt>
      <trkpt lat="49.46357" lon="1.34512">
        <ele>136</ele>
        <time>2023-03-14T15:16:11.818Z</time>
      </trkpt>
      <trkpt lat="49.46352" lon="1.34509">
        <ele>136</ele>
        <time>2023-03-14T15:16:15.867Z</time>
      </trkpt>
      <trkpt lat="49.46347" lon="1.34507">
        <ele>136</ele>
        <time>2023-03-14T15:16:20.442Z</time>
      </trkpt>
      <trkpt lat="49.46343" lon="1.34504">
        <ele>138</ele>
        <time>2023-03-14T15:16:24.919Z</time>
      </trkpt>
      <trkpt lat="49.46339" lon="1.34502">
        <ele>138</ele>
        <time>2023-03-14T15:16:28.850Z</time>
      </trkpt>
      <trkpt lat="49.46334" lon="1.34498">
        <ele>138</ele>
        <time>2023-03-14T15:16:34.200Z</time>
      </trkpt>
      <trkpt lat="49.46329" lon="1.34494">
        <ele>138</ele>
        <time>2023-03-14T15:16:38.140Z</time>
      </trkpt>
      <trkpt lat="49.46324" lon="1.34491">
        <ele>138</ele>
        <time>2023-03-14T15:16:42.666Z</time>
      </trkpt>
      <trkpt lat="49.4632" lon="1.34488">
        <ele>138</ele>
        <time>2023-03-14T15:16:46.835Z</time>
      </trkpt>
      <trkpt lat="49.46315" lon="1.34485">
        <ele>137</ele>
        <time>2023-03-14T15:16:51.003Z</time>
      </trkpt>
      <trkpt lat="49.4631" lon="1.34482">
        <ele>137</ele>
        <time>2023-03-14T15:16:55.649Z</time>
      </trkpt>
      <trkpt lat="49.46305" lon="1.34479">
        <ele>137</ele>
        <time>2023-03-14T15:16:59.817Z</time>
      </trkpt>
      <trkpt lat="49.46301" lon="1.34476">
        <ele>137</ele>
        <time>2023-03-14T15:17:03.986Z</time>
      </trkpt>
      <trkpt lat="49.46296" lon="1.34472">
        <ele>137</ele>
        <time>2023-03-14T15:17:08.631Z</time>
      </trkpt>
      <trkpt lat="49.46291" lon="1.34469">
        <ele>136</ele>
        <time>2023-03-14T15:17:12.800Z</time>
      </trkpt>
      <trkpt lat="49.46287" lon="1.34466">
        <ele>136</ele>
        <time>2023-03-14T15:17:16.849Z</time>
      </trkpt>
      <trkpt lat="49.46282" lon="1.34463">
        <ele>136</ele>
        <time>2023-03-14T15:17:21.018Z</time>
      </trkpt>
      <trkpt lat="49.46278" lon="1.3446">
        <ele>136</ele>
        <time>2023-03-14T15:17:25.187Z</time>
      </trkpt>
      <trkpt lat="49.46273" lon="1.34456">
        <ele>136</ele>
        <time>2023-03-14T15:17:29.594Z</time>
      </trkpt>
      <trkpt lat="49.46268" lon="1.34453">
        <ele>136</ele>
        <time>2023-03-14T15:17:33.643Z</time>
      </trkpt>
      <trkpt lat="49.46264" lon="1.3445">
        <ele>136</ele>
        <time>2023-03-14T15:17:37.812Z</time>
      </trkpt>
      <trkpt lat="49.46259" lon="1.34447">
        <ele>136</ele>
        <time>2023-03-14T15:17:42.442Z</time>
      </trkpt>
      <trkpt lat="49.46254" lon="1.34444">
        <ele>136</ele>
        <time>2023-03-14T15:17:46.626Z</time>
      </trkpt>
      <trkpt lat="49.4625" lon="1.34441">
        <ele>136</ele>
        <time>2023-03-14T15:17:50.794Z</time>
      </trkpt>
      <trkpt lat="49.46245" lon="1.34438">
        <ele>136</ele>
        <time>2023-03-14T15:17:55.201Z</time>
      </trkpt>
      <trkpt lat="49.46241" lon="1.34434">
        <ele>136</ele>
        <time>2023-03-14T15:17:59.251Z</time>
      </trkpt>
      <trkpt lat="49.46238" lon="1.34428">
        <ele>136</ele>
        <time>2023-03-14T15:18:03.420Z</time>
      </trkpt>
      <trkpt lat="49.46234" lon="1.34424">
        <ele>138</ele>
        <time>2023-03-14T15:18:07.588Z</time>
      </trkpt>
      <trkpt lat="49.4623" lon="1.34419">
        <ele>138</ele>
        <time>2023-03-14T15:18:12.114Z</time>
      </trkpt>
      <trkpt lat="49.46227" lon="1.34414">
        <ele>138</ele>
        <time>2023-03-14T15:18:16.164Z</time>
      </trkpt>
      <trkpt lat="49.46223" lon="1.34409">
        <ele>138</ele>
        <time>2023-03-14T15:18:20.679Z</time>
      </trkpt>
      <trkpt lat="49.4622" lon="1.34402">
        <ele>138</ele>
        <time>2023-03-14T15:18:24.739Z</time>
      </trkpt>
      <trkpt lat="49.46216" lon="1.34397">
        <ele>138</ele>
        <time>2023-03-14T15:18:28.789Z</time>
      </trkpt>
      <trkpt lat="49.46212" lon="1.34392">
        <ele>138</ele>
        <time>2023-03-14T15:18:33.196Z</time>
      </trkpt>
      <trkpt lat="49.46208" lon="1.34388">
        <ele>139</ele>
        <time>2023-03-14T15:18:37.801Z</time>
      </trkpt>
      <trkpt lat="49.46204" lon="1.34384">
        <ele>139</ele>
        <time>2023-03-14T15:18:41.772Z</time>
      </trkpt>
      <trkpt lat="49.462" lon="1.3438">
        <ele>139</ele>
        <time>2023-03-14T15:18:46.417Z</time>
      </trkpt>
      <trkpt lat="49.46196" lon="1.34376">
        <ele>139</ele>
        <time>2023-03-14T15:18:50.442Z</time>
      </trkpt>
      <trkpt lat="49.46192" lon="1.34371">
        <ele>139</ele>
        <time>2023-03-14T15:18:54.873Z</time>
      </trkpt>
      <trkpt lat="49.46188" lon="1.34367">
        <ele>139</ele>
        <time>2023-03-14T15:18:59.399Z</time>
      </trkpt>
      <trkpt lat="49.46185" lon="1.34363">
        <ele>139</ele>
        <time>2023-03-14T15:19:03.442Z</time>
      </trkpt>
      <trkpt lat="49.4618" lon="1.3436">
        <ele>140</ele>
        <time>2023-03-14T15:19:07.975Z</time>
      </trkpt>
      <trkpt lat="49.46176" lon="1.34355">
        <ele>140</ele>
        <time>2023-03-14T15:19:12.620Z</time>
      </trkpt>
      <trkpt lat="49.46173" lon="1.34349">
        <ele>140</ele>
        <time>2023-03-14T15:19:16.789Z</time>
      </trkpt>
      <trkpt lat="49.46168" lon="1.34347">
        <ele>139</ele>
        <time>2023-03-14T15:19:21.302Z</time>
      </trkpt>
      <trkpt lat="49.46164" lon="1.34344">
        <ele>139</ele>
        <time>2023-03-14T15:19:25.301Z</time>
      </trkpt>
      <trkpt lat="49.46161" lon="1.34341">
        <ele>139</ele>
        <time>2023-03-14T15:19:29.414Z</time>
      </trkpt>
      <trkpt lat="49.46156" lon="1.34337">
        <ele>139</ele>
        <time>2023-03-14T15:19:34.059Z</time>
      </trkpt>
      <trkpt lat="49.46152" lon="1.34334">
        <ele>140</ele>
        <time>2023-03-14T15:19:38.228Z</time>
      </trkpt>
      <trkpt lat="49.46148" lon="1.3433">
        <ele>140</ele>
        <time>2023-03-14T15:19:42.396Z</time>
      </trkpt>
      <trkpt lat="49.46144" lon="1.34326">
        <ele>140</ele>
        <time>2023-03-14T15:19:46.803Z</time>
      </trkpt>
      <trkpt lat="49.4614" lon="1.34322">
        <ele>140</ele>
        <time>2023-03-14T15:19:51.442Z</time>
      </trkpt>
      <trkpt lat="49.46136" lon="1.34319">
        <ele>139</ele>
        <time>2023-03-14T15:19:56.131Z</time>
      </trkpt>
      <trkpt lat="49.46132" lon="1.34316">
        <ele>139</ele>
        <time>2023-03-14T15:20:00.143Z</time>
      </trkpt>
      <trkpt lat="49.46128" lon="1.34313">
        <ele>139</ele>
        <time>2023-03-14T15:20:04.788Z</time>
      </trkpt>
      <trkpt lat="49.46124" lon="1.34308">
        <ele>140</ele>
        <time>2023-03-14T15:20:09.296Z</time>
      </trkpt>
      <trkpt lat="49.46119" lon="1.34304">
        <ele>140</ele>
        <time>2023-03-14T15:20:13.840Z</time>
      </trkpt>
      <trkpt lat="49.46115" lon="1.34299">
        <ele>140</ele>
        <time>2023-03-14T15:20:18.834Z</time>
      </trkpt>
      <trkpt lat="49.46112" lon="1.34294">
        <ele>140</ele>
        <time>2023-03-14T15:20:22.773Z</time>
      </trkpt>
      <trkpt lat="49.46108" lon="1.3429">
        <ele>139</ele>
        <time>2023-03-14T15:20:27.418Z</time>
      </trkpt>
      <trkpt lat="49.46104" lon="1.34288">
        <ele>139</ele>
        <time>2023-03-14T15:20:31.587Z</time>
      </trkpt>
      <trkpt lat="49.46099" lon="1.34285">
        <ele>139</ele>
        <time>2023-03-14T15:20:35.994Z</time>
      </trkpt>
      <trkpt lat="49.46095" lon="1.34281">
        <ele>141</ele>
        <time>2023-03-14T15:20:40.639Z</time>
      </trkpt>
      <trkpt lat="49.46091" lon="1.34278">
        <ele>141</ele>
        <time>2023-03-14T15:20:44.808Z</time>
      </trkpt>
      <trkpt lat="49.46087" lon="1.34275">
        <ele>141</ele>
        <time>2023-03-14T15:20:49.442Z</time>
      </trkpt>
      <trkpt lat="49.46083" lon="1.34271">
        <ele>141</ele>
        <time>2023-03-14T15:20:53.621Z</time>
      </trkpt>
      <trkpt lat="49.46078" lon="1.34267">
        <ele>141</ele>
        <time>2023-03-14T15:20:58.267Z</time>
      </trkpt>
      <trkpt lat="49.46075" lon="1.34262">
        <ele>141</ele>
        <time>2023-03-14T15:21:02.435Z</time>
      </trkpt>
      <trkpt lat="49.46072" lon="1.34255">
        <ele>141</ele>
        <time>2023-03-14T15:21:06.842Z</time>
      </trkpt>
      <trkpt lat="49.46069" lon="1.34249">
        <ele>142</ele>
        <time>2023-03-14T15:21:11.442Z</time>
      </trkpt>
      <trkpt lat="49.46067" lon="1.34242">
        <ele>142</ele>
        <time>2023-03-14T15:21:16.013Z</time>
      </trkpt>
      <trkpt lat="49.46065" lon="1.34236">
        <ele>141</ele>
        <time>2023-03-14T15:21:20.182Z</time>
      </trkpt>
      <trkpt lat="49.46063" lon="1.34228">
        <ele>141</ele>
        <time>2023-03-14T15:21:24.827Z</time>
      </trkpt>
      <trkpt lat="49.4606" lon="1.34222">
        <ele>141</ele>
        <time>2023-03-14T15:21:28.996Z</time>
      </trkpt>
      <trkpt lat="49.46059" lon="1.34216">
        <ele>141</ele>
        <time>2023-03-14T15:21:33.045Z</time>
      </trkpt>
      <trkpt lat="49.46056" lon="1.34209">
        <ele>141</ele>
        <time>2023-03-14T15:21:37.571Z</time>
      </trkpt>
      <trkpt lat="49.46053" lon="1.34203">
        <ele>141</ele>
        <time>2023-03-14T15:21:41.978Z</time>
      </trkpt>
      <trkpt lat="49.4605" lon="1.34197">
        <ele>141</ele>
        <time>2023-03-14T15:21:46.028Z</time>
      </trkpt>
      <trkpt lat="49.46047" lon="1.34189">
        <ele>141</ele>
        <time>2023-03-14T15:21:50.792Z</time>
      </trkpt>
      <trkpt lat="49.46044" lon="1.34181">
        <ele>141</ele>
        <time>2023-03-14T15:21:55.437Z</time>
      </trkpt>
      <trkpt lat="49.46042" lon="1.34175">
        <ele>141</ele>
        <time>2023-03-14T15:21:59.606Z</time>
      </trkpt>
      <trkpt lat="49.46039" lon="1.34168">
        <ele>141</ele>
        <time>2023-03-14T15:22:03.774Z</time>
      </trkpt>
      <trkpt lat="49.46037" lon="1.34161">
        <ele>141</ele>
        <time>2023-03-14T15:22:08.419Z</time>
      </trkpt>
      <trkpt lat="49.46034" lon="1.34154">
        <ele>141</ele>
        <time>2023-03-14T15:22:12.588Z</time>
      </trkpt>
      <trkpt lat="49.46032" lon="1.34147">
        <ele>141</ele>
        <time>2023-03-14T15:22:17.233Z</time>
      </trkpt>
      <trkpt lat="49.4603" lon="1.34141">
        <ele>141</ele>
        <time>2023-03-14T15:22:21.402Z</time>
      </trkpt>
      <trkpt lat="49.46027" lon="1.34134">
        <ele>141</ele>
        <time>2023-03-14T15:22:26.040Z</time>
      </trkpt>
      <trkpt lat="49.46025" lon="1.34127">
        <ele>141</ele>
        <time>2023-03-14T15:22:30.216Z</time>
      </trkpt>
      <trkpt lat="49.46022" lon="1.34119">
        <ele>141</ele>
        <time>2023-03-14T15:22:34.861Z</time>
      </trkpt>
      <trkpt lat="49.46019" lon="1.34111">
        <ele>141</ele>
        <time>2023-03-14T15:22:39.863Z</time>
      </trkpt>
      <trkpt lat="49.46016" lon="1.34105">
        <ele>141</ele>
        <time>2023-03-14T15:22:44.442Z</time>
      </trkpt>
      <trkpt lat="49.46014" lon="1.34099">
        <ele>141</ele>
        <time>2023-03-14T15:22:48.439Z</time>
      </trkpt>
      <trkpt lat="49.46011" lon="1.34092">
        <ele>141</ele>
        <time>2023-03-14T15:22:52.607Z</time>
      </trkpt>
      <trkpt lat="49.46009" lon="1.34084">
        <ele>141</ele>
        <time>2023-03-14T15:22:57.133Z</time>
      </trkpt>
      <trkpt lat="49.46007" lon="1.34078">
        <ele>141</ele>
        <time>2023-03-14T15:23:00.945Z</time>
      </trkpt>
      <trkpt lat="49.46003" lon="1.34072">
        <ele>141</ele>
        <time>2023-03-14T15:23:05.590Z</time>
      </trkpt>
      <trkpt lat="49.46002" lon="1.34066">
        <ele>141</ele>
        <time>2023-03-14T15:23:09.639Z</time>
      </trkpt>
      <trkpt lat="49.45999" lon="1.3406">
        <ele>141</ele>
        <time>2023-03-14T15:23:13.808Z</time>
      </trkpt>
      <trkpt lat="49.45997" lon="1.34054">
        <ele>141</ele>
        <time>2023-03-14T15:23:18.442Z</time>
      </trkpt>
      <trkpt lat="49.45995" lon="1.34047">
        <ele>141</ele>
        <time>2023-03-14T15:23:22.622Z</time>
      </trkpt>
      <trkpt lat="49.45992" lon="1.34041">
        <ele>141</ele>
        <time>2023-03-14T15:23:26.790Z</time>
      </trkpt>
      <trkpt lat="49.4599" lon="1.34034">
        <ele>141</ele>
        <time>2023-03-14T15:23:30.840Z</time>
      </trkpt>
      <trkpt lat="49.45986" lon="1.34028">
        <ele>141</ele>
        <time>2023-03-14T15:23:35.009Z</time>
      </trkpt>
      <trkpt lat="49.45983" lon="1.34021">
        <ele>140</ele>
        <time>2023-03-14T15:23:39.177Z</time>
      </trkpt>
      <trkpt lat="49.4598" lon="1.34015">
        <ele>140</ele>
        <time>2023-03-14T15:23:43.584Z</time>
      </trkpt>
      <trkpt lat="49.45978" lon="1.34008">
        <ele>140</ele>
        <time>2023-03-14T15:23:47.634Z</time>
      </trkpt>
      <trkpt lat="49.45975" lon="1.34001">
        <ele>140</ele>
        <time>2023-03-14T15:23:51.802Z</time>
      </trkpt>
      <trkpt lat="49.45972" lon="1.33994">
        <ele>140</ele>
        <time>2023-03-14T15:23:56.293Z</time>
      </trkpt>
      <trkpt lat="49.45969" lon="1.33987">
        <ele>140</ele>
        <time>2023-03-14T15:24:00.854Z</time>
      </trkpt>
      <trkpt lat="49.45966" lon="1.3398">
        <ele>141</ele>
        <time>2023-03-14T15:24:05.023Z</time>
      </trkpt>
      <trkpt lat="49.45962" lon="1.33975">
        <ele>141</ele>
        <time>2023-03-14T15:24:09.192Z</time>
      </trkpt>
      <trkpt lat="49.45957" lon="1.33971">
        <ele>141</ele>
        <time>2023-03-14T15:24:13.837Z</time>
      </trkpt>
      <trkpt lat="49.45953" lon="1.33968">
        <ele>141</ele>
        <time>2023-03-14T15:24:18.005Z</time>
      </trkpt>
      <trkpt lat="49.45948" lon="1.33968">
        <ele>141</ele>
        <time>2023-03-14T15:24:22.650Z</time>
      </trkpt>
      <trkpt lat="49.45943" lon="1.33968">
        <ele>141</ele>
        <time>2023-03-14T15:24:27.254Z</time>
      </trkpt>
      <trkpt lat="49.45939" lon="1.33968">
        <ele>141</ele>
        <time>2023-03-14T15:24:31.226Z</time>
      </trkpt>
      <trkpt lat="49.45935" lon="1.33967">
        <ele>141</ele>
        <time>2023-03-14T15:24:35.394Z</time>
      </trkpt>
      <trkpt lat="49.45931" lon="1.33966">
        <ele>141</ele>
        <time>2023-03-14T15:24:39.920Z</time>
      </trkpt>
      <trkpt lat="49.45926" lon="1.33965">
        <ele>140</ele>
        <time>2023-03-14T15:24:43.851Z</time>
      </trkpt>
      <trkpt lat="49.45922" lon="1.33962">
        <ele>140</ele>
        <time>2023-03-14T15:24:48.442Z</time>
      </trkpt>
      <trkpt lat="49.45917" lon="1.3396">
        <ele>140</ele>
        <time>2023-03-14T15:24:52.426Z</time>
      </trkpt>
      <trkpt lat="49.45913" lon="1.33958">
        <ele>141</ele>
        <time>2023-03-14T15:24:56.595Z</time>
      </trkpt>
      <trkpt lat="49.45909" lon="1.33956">
        <ele>141</ele>
        <time>2023-03-14T15:25:00.644Z</time>
      </trkpt>
      <trkpt lat="49.45903" lon="1.33955">
        <ele>141</ele>
        <time>2023-03-14T15:25:05.409Z</time>
      </trkpt>
      <trkpt lat="49.45899" lon="1.33952">
        <ele>140</ele>
        <time>2023-03-14T15:25:09.442Z</time>
      </trkpt>
      <trkpt lat="49.45894" lon="1.33951">
        <ele>140</ele>
        <time>2023-03-14T15:25:14.190Z</time>
      </trkpt>
      <trkpt lat="49.4589" lon="1.33948">
        <ele>140</ele>
        <time>2023-03-14T15:25:18.153Z</time>
      </trkpt>
      <trkpt lat="49.45885" lon="1.33947">
        <ele>140</ele>
        <time>2023-03-14T15:25:22.679Z</time>
      </trkpt>
      <trkpt lat="49.4588" lon="1.33945">
        <ele>140</ele>
        <time>2023-03-14T15:25:26.609Z</time>
      </trkpt>
      <trkpt lat="49.45875" lon="1.33944">
        <ele>141</ele>
        <time>2023-03-14T15:25:31.300Z</time>
      </trkpt>
      <trkpt lat="49.45871" lon="1.33943">
        <ele>141</ele>
        <time>2023-03-14T15:25:35.185Z</time>
      </trkpt>
      <trkpt lat="49.45866" lon="1.33946">
        <ele>141</ele>
        <time>2023-03-14T15:25:39.829Z</time>
      </trkpt>
      <trkpt lat="49.45866" lon="1.33954">
        <ele>141</ele>
        <time>2023-03-14T15:25:43.998Z</time>
      </trkpt>
      <trkpt lat="49.4587" lon="1.33961">
        <ele>140</ele>
        <time>2023-03-14T15:25:48.048Z</time>
      </trkpt>
      <trkpt lat="49.45873" lon="1.33968">
        <ele>140</ele>
        <time>2023-03-14T15:25:52.216Z</time>
      </trkpt>
      <trkpt lat="49.45876" lon="1.33974">
        <ele>140</ele>
        <time>2023-03-14T15:25:56.858Z</time>
      </trkpt>
      <trkpt lat="49.45878" lon="1.3398">
        <ele>140</ele>
        <time>2023-03-14T15:26:00.911Z</time>
      </trkpt>
      <trkpt lat="49.45879" lon="1.33986">
        <ele>139</ele>
        <time>2023-03-14T15:26:04.841Z</time>
      </trkpt>
      <trkpt lat="49.45881" lon="1.33993">
        <ele>139</ele>
        <time>2023-03-14T15:26:09.010Z</time>
      </trkpt>
      <trkpt lat="49.45883" lon="1.34001">
        <ele>139</ele>
        <time>2023-03-14T15:26:13.774Z</time>
      </trkpt>
      <trkpt lat="49.45885" lon="1.34007">
        <ele>139</ele>
        <time>2023-03-14T15:26:18.181Z</time>
      </trkpt>
      <trkpt lat="49.45887" lon="1.34013">
        <ele>139</ele>
        <time>2023-03-14T15:26:22.230Z</time>
      </trkpt>
      <trkpt lat="49.45889" lon="1.34019">
        <ele>138</ele>
        <time>2023-03-14T15:26:26.399Z</time>
      </trkpt>
      <trkpt lat="49.45891" lon="1.34027">
        <ele>138</ele>
        <time>2023-03-14T15:26:30.806Z</time>
      </trkpt>
      <trkpt lat="49.45893" lon="1.34034">
        <ele>138</ele>
        <time>2023-03-14T15:26:34.855Z</time>
      </trkpt>
      <trkpt lat="49.45895" lon="1.34041">
        <ele>138</ele>
        <time>2023-03-14T15:26:39.024Z</time>
      </trkpt>
      <trkpt lat="49.45896" lon="1.34048">
        <ele>138</ele>
        <time>2023-03-14T15:26:43.193Z</time>
      </trkpt>
      <trkpt lat="49.45897" lon="1.34056">
        <ele>138</ele>
        <time>2023-03-14T15:26:47.838Z</time>
      </trkpt>
      <trkpt lat="49.45898" lon="1.34063">
        <ele>138</ele>
        <time>2023-03-14T15:26:52.006Z</time>
      </trkpt>
      <trkpt lat="49.45899" lon="1.3407">
        <ele>137</ele>
        <time>2023-03-14T15:26:56.175Z</time>
      </trkpt>
      <trkpt lat="49.45899" lon="1.34078">
        <ele>137</ele>
        <time>2023-03-14T15:27:00.820Z</time>
      </trkpt>
      <trkpt lat="49.45899" lon="1.34087">
        <ele>137</ele>
        <time>2023-03-14T15:27:05.822Z</time>
      </trkpt>
      <trkpt lat="49.459" lon="1.34094">
        <ele>137</ele>
        <time>2023-03-14T15:27:09.872Z</time>
      </trkpt>
      <trkpt lat="49.45902" lon="1.341">
        <ele>137</ele>
        <time>2023-03-14T15:27:13.802Z</time>
      </trkpt>
      <trkpt lat="49.45903" lon="1.34109">
        <ele>138</ele>
        <time>2023-03-14T15:27:18.804Z</time>
      </trkpt>
      <trkpt lat="49.45904" lon="1.34116">
        <ele>138</ele>
        <time>2023-03-14T15:27:22.854Z</time>
      </trkpt>
      <trkpt lat="49.45906" lon="1.34123">
        <ele>138</ele>
        <time>2023-03-14T15:27:27.380Z</time>
      </trkpt>
      <trkpt lat="49.45908" lon="1.34129">
        <ele>138</ele>
        <time>2023-03-14T15:27:31.429Z</time>
      </trkpt>
      <trkpt lat="49.4591" lon="1.34136">
        <ele>138</ele>
        <time>2023-03-14T15:27:35.598Z</time>
      </trkpt>
      <trkpt lat="49.45912" lon="1.34143">
        <ele>138</ele>
        <time>2023-03-14T15:27:40.243Z</time>
      </trkpt>
      <trkpt lat="49.45915" lon="1.34149">
        <ele>138</ele>
        <time>2023-03-14T15:27:44.429Z</time>
      </trkpt>
      <trkpt lat="49.45917" lon="1.34155">
        <ele>139</ele>
        <time>2023-03-14T15:27:48.442Z</time>
      </trkpt>
      <trkpt lat="49.45918" lon="1.34163">
        <ele>139</ele>
        <time>2023-03-14T15:27:52.630Z</time>
      </trkpt>
      <trkpt lat="49.45919" lon="1.3417">
        <ele>139</ele>
        <time>2023-03-14T15:27:56.798Z</time>
      </trkpt>
      <trkpt lat="49.4592" lon="1.34177">
        <ele>139</ele>
        <time>2023-03-14T15:28:00.848Z</time>
      </trkpt>
      <trkpt lat="49.45919" lon="1.34184">
        <ele>140</ele>
        <time>2023-03-14T15:28:05.504Z</time>
      </trkpt>
      <trkpt lat="49.45916" lon="1.3419">
        <ele>140</ele>
        <time>2023-03-14T15:28:09.542Z</time>
      </trkpt>
      <trkpt lat="49.45911" lon="1.34195">
        <ele>140</ele>
        <time>2023-03-14T15:28:13.592Z</time>
      </trkpt>
      <trkpt lat="49.45907" lon="1.34199">
        <ele>140</ele>
        <time>2023-03-14T15:28:17.641Z</time>
      </trkpt>
      <trkpt lat="49.45903" lon="1.34204">
        <ele>140</ele>
        <time>2023-03-14T15:28:22.167Z</time>
      </trkpt>
      <trkpt lat="49.459" lon="1.34211">
        <ele>139</ele>
        <time>2023-03-14T15:28:26.812Z</time>
      </trkpt>
      <trkpt lat="49.45896" lon="1.34216">
        <ele>139</ele>
        <time>2023-03-14T15:28:30.862Z</time>
      </trkpt>
      <trkpt lat="49.45893" lon="1.34222">
        <ele>139</ele>
        <time>2023-03-14T15:28:35.030Z</time>
      </trkpt>
      <trkpt lat="49.4589" lon="1.34229">
        <ele>139</ele>
        <time>2023-03-14T15:28:39.199Z</time>
      </trkpt>
      <trkpt lat="49.45888" lon="1.34235">
        <ele>139</ele>
        <time>2023-03-14T15:28:43.248Z</time>
      </trkpt>
      <trkpt lat="49.45886" lon="1.34242">
        <ele>140</ele>
        <time>2023-03-14T15:28:47.417Z</time>
      </trkpt>
      <trkpt lat="49.45884" lon="1.3425">
        <ele>140</ele>
        <time>2023-03-14T15:28:51.585Z</time>
      </trkpt>
      <trkpt lat="49.45881" lon="1.34256">
        <ele>140</ele>
        <time>2023-03-14T15:28:56.142Z</time>
      </trkpt>
      <trkpt lat="49.45879" lon="1.34262">
        <ele>140</ele>
        <time>2023-03-14T15:29:00.161Z</time>
      </trkpt>
      <trkpt lat="49.45875" lon="1.34268">
        <ele>141</ele>
        <time>2023-03-14T15:29:04.210Z</time>
      </trkpt>
      <trkpt lat="49.45872" lon="1.34274">
        <ele>140</ele>
        <time>2023-03-14T15:29:08.855Z</time>
      </trkpt>
      <trkpt lat="49.45869" lon="1.34281">
        <ele>140</ele>
        <time>2023-03-14T15:29:13.298Z</time>
      </trkpt>
      <trkpt lat="49.45866" lon="1.34286">
        <ele>140</ele>
        <time>2023-03-14T15:29:17.431Z</time>
      </trkpt>
      <trkpt lat="49.45863" lon="1.34293">
        <ele>141</ele>
        <time>2023-03-14T15:29:21.599Z</time>
      </trkpt>
      <trkpt lat="49.4586" lon="1.34298">
        <ele>141</ele>
        <time>2023-03-14T15:29:26.125Z</time>
      </trkpt>
      <trkpt lat="49.45856" lon="1.34302">
        <ele>141</ele>
        <time>2023-03-14T15:29:30.442Z</time>
      </trkpt>
      <trkpt lat="49.45852" lon="1.34307">
        <ele>141</ele>
        <time>2023-03-14T15:29:35.075Z</time>
      </trkpt>
      <trkpt lat="49.45849" lon="1.34311">
        <ele>141</ele>
        <time>2023-03-14T15:29:39.226Z</time>
      </trkpt>
      <trkpt lat="49.45845" lon="1.34314">
        <ele>140</ele>
        <time>2023-03-14T15:29:43.309Z</time>
      </trkpt>
      <trkpt lat="49.4584" lon="1.34312">
        <ele>140</ele>
        <time>2023-03-14T15:29:47.802Z</time>
      </trkpt>
      <trkpt lat="49.45837" lon="1.34312">
        <ele>140</ele>
        <time>2023-03-14T15:29:51.851Z</time>
      </trkpt>
      <trkpt lat="49.45833" lon="1.34307">
        <ele>140</ele>
        <time>2023-03-14T15:29:56.854Z</time>
      </trkpt>
      <trkpt lat="49.4583" lon="1.34301">
        <ele>140</ele>
        <time>2023-03-14T15:30:01.260Z</time>
      </trkpt>
      <trkpt lat="49.45828" lon="1.34294">
        <ele>140</ele>
        <time>2023-03-14T15:30:05.429Z</time>
      </trkpt>
      <trkpt lat="49.45825" lon="1.34288">
        <ele>139</ele>
        <time>2023-03-14T15:30:09.955Z</time>
      </trkpt>
      <trkpt lat="49.45822" lon="1.34282">
        <ele>139</ele>
        <time>2023-03-14T15:30:14.442Z</time>
      </trkpt>
      <trkpt lat="49.4582" lon="1.34276">
        <ele>139</ele>
        <time>2023-03-14T15:30:18.411Z</time>
      </trkpt>
      <trkpt lat="49.45818" lon="1.34269">
        <ele>137</ele>
        <time>2023-03-14T15:30:22.937Z</time>
      </trkpt>
      <trkpt lat="49.45815" lon="1.34262">
        <ele>137</ele>
        <time>2023-03-14T15:30:26.867Z</time>
      </trkpt>
      <trkpt lat="49.45813" lon="1.34255">
        <ele>137</ele>
        <time>2023-03-14T15:30:31.036Z</time>
      </trkpt>
      <trkpt lat="49.45811" lon="1.34246">
        <ele>137</ele>
        <time>2023-03-14T15:30:36.304Z</time>
      </trkpt>
      <trkpt lat="49.45809" lon="1.34238">
        <ele>137</ele>
        <time>2023-03-14T15:30:40.692Z</time>
      </trkpt>
      <trkpt lat="49.45805" lon="1.34233">
        <ele>137</ele>
        <time>2023-03-14T15:30:44.733Z</time>
      </trkpt>
      <trkpt lat="49.458" lon="1.34233">
        <ele>137</ele>
        <time>2023-03-14T15:30:48.782Z</time>
      </trkpt>
      <trkpt lat="49.45795" lon="1.34238">
        <ele>137</ele>
        <time>2023-03-14T15:30:52.832Z</time>
      </trkpt>
      <trkpt lat="49.45792" lon="1.34245">
        <ele>137</ele>
        <time>2023-03-14T15:30:57Z</time>
      </trkpt>
      <trkpt lat="49.45789" lon="1.34251">
        <ele>134</ele>
        <time>2023-03-14T15:31:01.050Z</time>
      </trkpt>
      <trkpt lat="49.45785" lon="1.34257">
        <ele>134</ele>
        <time>2023-03-14T15:31:05.814Z</time>
      </trkpt>
      <trkpt lat="49.45781" lon="1.34262">
        <ele>134</ele>
        <time>2023-03-14T15:31:09.863Z</time>
      </trkpt>
      <trkpt lat="49.45777" lon="1.34268">
        <ele>133</ele>
        <time>2023-03-14T15:31:14.032Z</time>
      </trkpt>
      <trkpt lat="49.45773" lon="1.34273">
        <ele>133</ele>
        <time>2023-03-14T15:31:18.201Z</time>
      </trkpt>
      <trkpt lat="49.45769" lon="1.34278">
        <ele>133</ele>
        <time>2023-03-14T15:31:22.257Z</time>
      </trkpt>
      <trkpt lat="49.45766" lon="1.34283">
        <ele>133</ele>
        <time>2023-03-14T15:31:26.180Z</time>
      </trkpt>
      <trkpt lat="49.45762" lon="1.34288">
        <ele>131</ele>
        <time>2023-03-14T15:31:30.230Z</time>
      </trkpt>
      <trkpt lat="49.45758" lon="1.34294">
        <ele>130</ele>
        <time>2023-03-14T15:31:34.875Z</time>
      </trkpt>
      <trkpt lat="49.45755" lon="1.34299">
        <ele>130</ele>
        <time>2023-03-14T15:31:38.805Z</time>
      </trkpt>
      <trkpt lat="49.45751" lon="1.34305">
        <ele>130</ele>
        <time>2023-03-14T15:31:42.855Z</time>
      </trkpt>
      <trkpt lat="49.45748" lon="1.3431">
        <ele>130</ele>
        <time>2023-03-14T15:31:47.023Z</time>
      </trkpt>
      <trkpt lat="49.45744" lon="1.34315">
        <ele>130</ele>
        <time>2023-03-14T15:31:51.192Z</time>
      </trkpt>
      <trkpt lat="49.45741" lon="1.3432">
        <ele>130</ele>
        <time>2023-03-14T15:31:55.241Z</time>
      </trkpt>
      <trkpt lat="49.45737" lon="1.34326">
        <ele>130</ele>
        <time>2023-03-14T15:31:59.410Z</time>
      </trkpt>
      <trkpt lat="49.45734" lon="1.34332">
        <ele>129</ele>
        <time>2023-03-14T15:32:03.442Z</time>
      </trkpt>
      <trkpt lat="49.4573" lon="1.34338">
        <ele>129</ele>
        <time>2023-03-14T15:32:08.223Z</time>
      </trkpt>
      <trkpt lat="49.45727" lon="1.34344">
        <ele>129</ele>
        <time>2023-03-14T15:32:12.273Z</time>
      </trkpt>
      <trkpt lat="49.45724" lon="1.34349">
        <ele>129</ele>
        <time>2023-03-14T15:32:16.442Z</time>
      </trkpt>
      <trkpt lat="49.4572" lon="1.34355">
        <ele>129</ele>
        <time>2023-03-14T15:32:20.491Z</time>
      </trkpt>
      <trkpt lat="49.45717" lon="1.34361">
        <ele>129</ele>
        <time>2023-03-14T15:32:24.540Z</time>
      </trkpt>
      <trkpt lat="49.45714" lon="1.34366">
        <ele>129</ele>
        <time>2023-03-14T15:32:28.590Z</time>
      </trkpt>
      <trkpt lat="49.45711" lon="1.34372">
        <ele>129</ele>
        <time>2023-03-14T15:32:32.639Z</time>
      </trkpt>
      <trkpt lat="49.45708" lon="1.34378">
        <ele>126</ele>
        <time>2023-03-14T15:32:36.808Z</time>
      </trkpt>
      <trkpt lat="49.45704" lon="1.34383">
        <ele>126</ele>
        <time>2023-03-14T15:32:40.857Z</time>
      </trkpt>
      <trkpt lat="49.45701" lon="1.3439">
        <ele>126</ele>
        <time>2023-03-14T15:32:45.860Z</time>
      </trkpt>
      <trkpt lat="49.45698" lon="1.34397">
        <ele>126</ele>
        <time>2023-03-14T15:32:50.028Z</time>
      </trkpt>
      <trkpt lat="49.45695" lon="1.34402">
        <ele>126</ele>
        <time>2023-03-14T15:32:54.792Z</time>
      </trkpt>
      <trkpt lat="49.45691" lon="1.34407">
        <ele>125</ele>
        <time>2023-03-14T15:32:58.842Z</time>
      </trkpt>
      <trkpt lat="49.45687" lon="1.34412">
        <ele>125</ele>
        <time>2023-03-14T15:33:03.010Z</time>
      </trkpt>
      <trkpt lat="49.45684" lon="1.34416">
        <ele>125</ele>
        <time>2023-03-14T15:33:07.179Z</time>
      </trkpt>
      <trkpt lat="49.45681" lon="1.34422">
        <ele>125</ele>
        <time>2023-03-14T15:33:11.229Z</time>
      </trkpt>
      <trkpt lat="49.45678" lon="1.34428">
        <ele>121</ele>
        <time>2023-03-14T15:33:15.397Z</time>
      </trkpt>
      <trkpt lat="49.45675" lon="1.34434">
        <ele>122</ele>
        <time>2023-03-14T15:33:19.442Z</time>
      </trkpt>
      <trkpt lat="49.45671" lon="1.34438">
        <ele>122</ele>
        <time>2023-03-14T15:33:23.615Z</time>
      </trkpt>
      <trkpt lat="49.45668" lon="1.34444">
        <ele>122</ele>
        <time>2023-03-14T15:33:27.784Z</time>
      </trkpt>
      <trkpt lat="49.45664" lon="1.34449">
        <ele>122</ele>
        <time>2023-03-14T15:33:31.833Z</time>
      </trkpt>
      <trkpt lat="49.45661" lon="1.34455">
        <ele>122</ele>
        <time>2023-03-14T15:33:36.002Z</time>
      </trkpt>
      <trkpt lat="49.45657" lon="1.3446">
        <ele>123</ele>
        <time>2023-03-14T15:33:40.051Z</time>
      </trkpt>
      <trkpt lat="49.45653" lon="1.34465">
        <ele>123</ele>
        <time>2023-03-14T15:33:44.815Z</time>
      </trkpt>
      <trkpt lat="49.4565" lon="1.3447">
        <ele>122</ele>
        <time>2023-03-14T15:33:48.865Z</time>
      </trkpt>
      <trkpt lat="49.45646" lon="1.34473">
        <ele>122</ele>
        <time>2023-03-14T15:33:53.033Z</time>
      </trkpt>
      <trkpt lat="49.45641" lon="1.34475">
        <ele>122</ele>
        <time>2023-03-14T15:33:57.202Z</time>
      </trkpt>
      <trkpt lat="49.45636" lon="1.34476">
        <ele>122</ele>
        <time>2023-03-14T15:34:01.847Z</time>
      </trkpt>
      <trkpt lat="49.45632" lon="1.34473">
        <ele>122</ele>
        <time>2023-03-14T15:34:06.297Z</time>
      </trkpt>
      <trkpt lat="49.45628" lon="1.34467">
        <ele>122</ele>
        <time>2023-03-14T15:34:10.422Z</time>
      </trkpt>
      <trkpt lat="49.45626" lon="1.3446">
        <ele>122</ele>
        <time>2023-03-14T15:34:14.591Z</time>
      </trkpt>
      <trkpt lat="49.45623" lon="1.34454">
        <ele>125</ele>
        <time>2023-03-14T15:34:18.640Z</time>
      </trkpt>
      <trkpt lat="49.45621" lon="1.34447">
        <ele>125</ele>
        <time>2023-03-14T15:34:22.809Z</time>
      </trkpt>
      <trkpt lat="49.45619" lon="1.34441">
        <ele>125</ele>
        <time>2023-03-14T15:34:26.858Z</time>
      </trkpt>
      <trkpt lat="49.45616" lon="1.34434">
        <ele>125</ele>
        <time>2023-03-14T15:34:31.027Z</time>
      </trkpt>
      <trkpt lat="49.45613" lon="1.34428">
        <ele>123</ele>
        <time>2023-03-14T15:34:35.196Z</time>
      </trkpt>
      <trkpt lat="49.4561" lon="1.3442">
        <ele>123</ele>
        <time>2023-03-14T15:34:39.841Z</time>
      </trkpt>
      <trkpt lat="49.45608" lon="1.34414">
        <ele>123</ele>
        <time>2023-03-14T15:34:44.009Z</time>
      </trkpt>
      <trkpt lat="49.45606" lon="1.34406">
        <ele>123</ele>
        <time>2023-03-14T15:34:48.442Z</time>
      </trkpt>
      <trkpt lat="49.45604" lon="1.344">
        <ele>121</ele>
        <time>2023-03-14T15:34:52.442Z</time>
      </trkpt>
      <trkpt lat="49.45602" lon="1.34393">
        <ele>121</ele>
        <time>2023-03-14T15:34:56.991Z</time>
      </trkpt>
      <trkpt lat="49.45599" lon="1.34387">
        <ele>121</ele>
        <time>2023-03-14T15:35:01.041Z</time>
      </trkpt>
      <trkpt lat="49.45597" lon="1.3438">
        <ele>128</ele>
        <time>2023-03-14T15:35:05.654Z</time>
      </trkpt>
      <trkpt lat="49.45595" lon="1.34373">
        <ele>126</ele>
        <time>2023-03-14T15:35:09.616Z</time>
      </trkpt>
      <trkpt lat="49.45592" lon="1.34366">
        <ele>126</ele>
        <time>2023-03-14T15:35:13.785Z</time>
      </trkpt>
      <trkpt lat="49.4559" lon="1.34359">
        <ele>126</ele>
        <time>2023-03-14T15:35:17.834Z</time>
      </trkpt>
      <trkpt lat="49.45588" lon="1.34352">
        <ele>126</ele>
        <time>2023-03-14T15:35:22.003Z</time>
      </trkpt>
      <trkpt lat="49.45585" lon="1.34346">
        <ele>124</ele>
        <time>2023-03-14T15:35:26.052Z</time>
      </trkpt>
      <trkpt lat="49.45582" lon="1.34339">
        <ele>124</ele>
        <time>2023-03-14T15:35:30.816Z</time>
      </trkpt>
      <trkpt lat="49.45579" lon="1.34332">
        <ele>124</ele>
        <time>2023-03-14T15:35:35.304Z</time>
      </trkpt>
      <trkpt lat="49.45575" lon="1.34326">
        <ele>124</ele>
        <time>2023-03-14T15:35:39.868Z</time>
      </trkpt>
      <trkpt lat="49.45573" lon="1.3432">
        <ele>124</ele>
        <time>2023-03-14T15:35:44.037Z</time>
      </trkpt>
      <trkpt lat="49.4557" lon="1.34313">
        <ele>123</ele>
        <time>2023-03-14T15:35:48.801Z</time>
      </trkpt>
      <trkpt lat="49.45566" lon="1.34306">
        <ele>130</ele>
        <time>2023-03-14T15:35:53.298Z</time>
      </trkpt>
      <trkpt lat="49.45563" lon="1.343">
        <ele>130</ele>
        <time>2023-03-14T15:35:57.853Z</time>
      </trkpt>
      <trkpt lat="49.4556" lon="1.34294">
        <ele>130</ele>
        <time>2023-03-14T15:36:02.021Z</time>
      </trkpt>
      <trkpt lat="49.45557" lon="1.34288">
        <ele>129</ele>
        <time>2023-03-14T15:36:06.190Z</time>
      </trkpt>
      <trkpt lat="49.45555" lon="1.34281">
        <ele>129</ele>
        <time>2023-03-14T15:36:10.835Z</time>
      </trkpt>
      <trkpt lat="49.45553" lon="1.34274">
        <ele>129</ele>
        <time>2023-03-14T15:36:15.300Z</time>
      </trkpt>
      <trkpt lat="49.45551" lon="1.34267">
        <ele>129</ele>
        <time>2023-03-14T15:36:19.767Z</time>
      </trkpt>
      <trkpt lat="49.45548" lon="1.34262">
        <ele>127</ele>
        <time>2023-03-14T15:36:23.817Z</time>
      </trkpt>
      <trkpt lat="49.45545" lon="1.34256">
        <ele>127</ele>
        <time>2023-03-14T15:36:27.986Z</time>
      </trkpt>
      <trkpt lat="49.45543" lon="1.34249">
        <ele>127</ele>
        <time>2023-03-14T15:36:32.562Z</time>
      </trkpt>
      <trkpt lat="49.4554" lon="1.34243">
        <ele>130</ele>
        <time>2023-03-14T15:36:36.561Z</time>
      </trkpt>
      <trkpt lat="49.45538" lon="1.34236">
        <ele>128</ele>
        <time>2023-03-14T15:36:40.968Z</time>
      </trkpt>
      <trkpt lat="49.45535" lon="1.34229">
        <ele>128</ele>
        <time>2023-03-14T15:36:45.017Z</time>
      </trkpt>
      <trkpt lat="49.45533" lon="1.34221">
        <ele>128</ele>
        <time>2023-03-14T15:36:49.781Z</time>
      </trkpt>
      <trkpt lat="49.4553" lon="1.34215">
        <ele>128</ele>
        <time>2023-03-14T15:36:54.303Z</time>
      </trkpt>
      <trkpt lat="49.45528" lon="1.34207">
        <ele>128</ele>
        <time>2023-03-14T15:36:58.833Z</time>
      </trkpt>
      <trkpt lat="49.45526" lon="1.342">
        <ele>128</ele>
        <time>2023-03-14T15:37:03.812Z</time>
      </trkpt>
      <trkpt lat="49.45524" lon="1.34192">
        <ele>128</ele>
        <time>2023-03-14T15:37:08.242Z</time>
      </trkpt>
      <trkpt lat="49.45522" lon="1.34186">
        <ele>128</ele>
        <time>2023-03-14T15:37:12.411Z</time>
      </trkpt>
      <trkpt lat="49.4552" lon="1.34179">
        <ele>129</ele>
        <time>2023-03-14T15:37:17.017Z</time>
      </trkpt>
      <trkpt lat="49.45518" lon="1.34173">
        <ele>129</ele>
        <time>2023-03-14T15:37:20.986Z</time>
      </trkpt>
      <trkpt lat="49.45516" lon="1.34166">
        <ele>129</ele>
        <time>2023-03-14T15:37:25.036Z</time>
      </trkpt>
      <trkpt lat="49.45514" lon="1.34159">
        <ele>129</ele>
        <time>2023-03-14T15:37:29.681Z</time>
      </trkpt>
      <trkpt lat="49.45513" lon="1.34152">
        <ele>131</ele>
        <time>2023-03-14T15:37:33.730Z</time>
      </trkpt>
      <trkpt lat="49.45512" lon="1.34144">
        <ele>131</ele>
        <time>2023-03-14T15:37:38.306Z</time>
      </trkpt>
      <trkpt lat="49.45511" lon="1.34136">
        <ele>131</ele>
        <time>2023-03-14T15:37:42.425Z</time>
      </trkpt>
      <trkpt lat="49.45509" lon="1.34128">
        <ele>131</ele>
        <time>2023-03-14T15:37:46.950Z</time>
      </trkpt>
      <trkpt lat="49.45508" lon="1.34121">
        <ele>131</ele>
        <time>2023-03-14T15:37:51.442Z</time>
      </trkpt>
      <trkpt lat="49.45507" lon="1.34113">
        <ele>131</ele>
        <time>2023-03-14T15:37:55.938Z</time>
      </trkpt>
      <trkpt lat="49.45507" lon="1.34105">
        <ele>131</ele>
        <time>2023-03-14T15:37:59.814Z</time>
      </trkpt>
      <trkpt lat="49.45507" lon="1.34098">
        <ele>131</ele>
        <time>2023-03-14T15:38:04.298Z</time>
      </trkpt>
      <trkpt lat="49.45506" lon="1.3409">
        <ele>132</ele>
        <time>2023-03-14T15:38:08.833Z</time>
      </trkpt>
      <trkpt lat="49.45506" lon="1.34082">
        <ele>132</ele>
        <time>2023-03-14T15:38:12.796Z</time>
      </trkpt>
      <trkpt lat="49.45505" lon="1.34075">
        <ele>132</ele>
        <time>2023-03-14T15:38:17.203Z</time>
      </trkpt>
      <trkpt lat="49.45505" lon="1.34068">
        <ele>132</ele>
        <time>2023-03-14T15:38:21.314Z</time>
      </trkpt>
      <trkpt lat="49.45504" lon="1.3406">
        <ele>132</ele>
        <time>2023-03-14T15:38:25.421Z</time>
      </trkpt>
      <trkpt lat="49.45503" lon="1.34053">
        <ele>132</ele>
        <time>2023-03-14T15:38:29.589Z</time>
      </trkpt>
      <trkpt lat="49.45503" lon="1.34046">
        <ele>132</ele>
        <time>2023-03-14T15:38:33.996Z</time>
      </trkpt>
      <trkpt lat="49.45503" lon="1.34038">
        <ele>133</ele>
        <time>2023-03-14T15:38:38.442Z</time>
      </trkpt>
      <trkpt lat="49.45503" lon="1.34031">
        <ele>133</ele>
        <time>2023-03-14T15:38:42.442Z</time>
      </trkpt>
      <trkpt lat="49.45503" lon="1.34023">
        <ele>133</ele>
        <time>2023-03-14T15:38:47.097Z</time>
      </trkpt>
      <trkpt lat="49.45503" lon="1.34015">
        <ele>133</ele>
        <time>2023-03-14T15:38:51.147Z</time>
      </trkpt>
      <trkpt lat="49.45503" lon="1.34007">
        <ele>133</ele>
        <time>2023-03-14T15:38:55.196Z</time>
      </trkpt>
      <trkpt lat="49.45501" lon="1.33999">
        <ele>133</ele>
        <time>2023-03-14T15:38:59.841Z</time>
      </trkpt>
      <trkpt lat="49.455" lon="1.33991">
        <ele>133</ele>
        <time>2023-03-14T15:39:04.010Z</time>
      </trkpt>
      <trkpt lat="49.455" lon="1.33982">
        <ele>133</ele>
        <time>2023-03-14T15:39:08.655Z</time>
      </trkpt>
      <trkpt lat="49.455" lon="1.33974">
        <ele>133</ele>
        <time>2023-03-14T15:39:13.181Z</time>
      </trkpt>
      <trkpt lat="49.45499" lon="1.33966">
        <ele>133</ele>
        <time>2023-03-14T15:39:17.230Z</time>
      </trkpt>
      <trkpt lat="49.45498" lon="1.33958">
        <ele>134</ele>
        <time>2023-03-14T15:39:21.399Z</time>
      </trkpt>
      <trkpt lat="49.45497" lon="1.33941">
        <ele>134</ele>
        <time>2023-03-14T15:39:30.213Z</time>
      </trkpt>
      <trkpt lat="49.45495" lon="1.33933">
        <ele>134</ele>
        <time>2023-03-14T15:39:34.858Z</time>
      </trkpt>
      <trkpt lat="49.45495" lon="1.33925">
        <ele>134</ele>
        <time>2023-03-14T15:39:39.026Z</time>
      </trkpt>
      <trkpt lat="49.45495" lon="1.33917">
        <ele>134</ele>
        <time>2023-03-14T15:39:43.195Z</time>
      </trkpt>
      <trkpt lat="49.45494" lon="1.3391">
        <ele>134</ele>
        <time>2023-03-14T15:39:47.244Z</time>
      </trkpt>
      <trkpt lat="49.45493" lon="1.33901">
        <ele>134</ele>
        <time>2023-03-14T15:39:51.413Z</time>
      </trkpt>
      <trkpt lat="49.45492" lon="1.33893">
        <ele>134</ele>
        <time>2023-03-14T15:39:55.581Z</time>
      </trkpt>
      <trkpt lat="49.45491" lon="1.33886">
        <ele>134</ele>
        <time>2023-03-14T15:39:59.631Z</time>
      </trkpt>
      <trkpt lat="49.4549" lon="1.33877">
        <ele>134</ele>
        <time>2023-03-14T15:40:03.800Z</time>
      </trkpt>
      <trkpt lat="49.45491" lon="1.3387">
        <ele>134</ele>
        <time>2023-03-14T15:40:08.087Z</time>
      </trkpt>
      <trkpt lat="49.4549" lon="1.33863">
        <ele>134</ele>
        <time>2023-03-14T15:40:12.256Z</time>
      </trkpt>
      <trkpt lat="49.45489" lon="1.33856">
        <ele>134</ele>
        <time>2023-03-14T15:40:16.442Z</time>
      </trkpt>
      <trkpt lat="49.45489" lon="1.33848">
        <ele>134</ele>
        <time>2023-03-14T15:40:20.593Z</time>
      </trkpt>
      <trkpt lat="49.45489" lon="1.3384">
        <ele>134</ele>
        <time>2023-03-14T15:40:24.643Z</time>
      </trkpt>
      <trkpt lat="49.4549" lon="1.33833">
        <ele>134</ele>
        <time>2023-03-14T15:40:28.811Z</time>
      </trkpt>
      <trkpt lat="49.45489" lon="1.33826">
        <ele>134</ele>
        <time>2023-03-14T15:40:32.861Z</time>
      </trkpt>
      <trkpt lat="49.45489" lon="1.33819">
        <ele>134</ele>
        <time>2023-03-14T15:40:37.029Z</time>
      </trkpt>
      <trkpt lat="49.45487" lon="1.33812">
        <ele>134</ele>
        <time>2023-03-14T15:40:41.198Z</time>
      </trkpt>
      <trkpt lat="49.45481" lon="1.33809">
        <ele>133</ele>
        <time>2023-03-14T15:40:45.843Z</time>
      </trkpt>
      <trkpt lat="49.45476" lon="1.33812">
        <ele>133</ele>
        <time>2023-03-14T15:40:50.012Z</time>
      </trkpt>
      <trkpt lat="49.45471" lon="1.33817">
        <ele>133</ele>
        <time>2023-03-14T15:40:54.538Z</time>
      </trkpt>
      <trkpt lat="49.45466" lon="1.33819">
        <ele>133</ele>
        <time>2023-03-14T15:40:58.587Z</time>
      </trkpt>
      <trkpt lat="49.45462" lon="1.3382">
        <ele>133</ele>
        <time>2023-03-14T15:41:02.637Z</time>
      </trkpt>
      <trkpt lat="49.45456" lon="1.33821">
        <ele>134</ele>
        <time>2023-03-14T15:41:07.043Z</time>
      </trkpt>
      <trkpt lat="49.45451" lon="1.33822">
        <ele>134</ele>
        <time>2023-03-14T15:41:11.808Z</time>
      </trkpt>
      <trkpt lat="49.45446" lon="1.33822">
        <ele>134</ele>
        <time>2023-03-14T15:41:16.442Z</time>
      </trkpt>
      <trkpt lat="49.45441" lon="1.33822">
        <ele>134</ele>
        <time>2023-03-14T15:41:20.621Z</time>
      </trkpt>
      <trkpt lat="49.45436" lon="1.33824">
        <ele>134</ele>
        <time>2023-03-14T15:41:24.790Z</time>
      </trkpt>
      <trkpt lat="49.45431" lon="1.33825">
        <ele>134</ele>
        <time>2023-03-14T15:41:29.435Z</time>
      </trkpt>
      <trkpt lat="49.45427" lon="1.33826">
        <ele>138</ele>
        <time>2023-03-14T15:41:34.084Z</time>
      </trkpt>
      <trkpt lat="49.45422" lon="1.33827">
        <ele>138</ele>
        <time>2023-03-14T15:41:38.248Z</time>
      </trkpt>
      <trkpt lat="49.45417" lon="1.33827">
        <ele>138</ele>
        <time>2023-03-14T15:41:42.417Z</time>
      </trkpt>
      <trkpt lat="49.45412" lon="1.33828">
        <ele>138</ele>
        <time>2023-03-14T15:41:46.943Z</time>
      </trkpt>
      <trkpt lat="49.45407" lon="1.33829">
        <ele>138</ele>
        <time>2023-03-14T15:41:50.993Z</time>
      </trkpt>
      <trkpt lat="49.45402" lon="1.33831">
        <ele>141</ele>
        <time>2023-03-14T15:41:55.638Z</time>
      </trkpt>
      <trkpt lat="49.45398" lon="1.33832">
        <ele>141</ele>
        <time>2023-03-14T15:41:59.806Z</time>
      </trkpt>
      <trkpt lat="49.45392" lon="1.33832">
        <ele>141</ele>
        <time>2023-03-14T15:42:04.442Z</time>
      </trkpt>
      <trkpt lat="49.45388" lon="1.33833">
        <ele>141</ele>
        <time>2023-03-14T15:42:09.096Z</time>
      </trkpt>
      <trkpt lat="49.45384" lon="1.33835">
        <ele>141</ele>
        <time>2023-03-14T15:42:13.146Z</time>
      </trkpt>
      <trkpt lat="49.45379" lon="1.33835">
        <ele>141</ele>
        <time>2023-03-14T15:42:17.645Z</time>
      </trkpt>
      <trkpt lat="49.45373" lon="1.33837">
        <ele>142</ele>
        <time>2023-03-14T15:42:22.078Z</time>
      </trkpt>
      <trkpt lat="49.45369" lon="1.33838">
        <ele>142</ele>
        <time>2023-03-14T15:42:26.247Z</time>
      </trkpt>
      <trkpt lat="49.45364" lon="1.33838">
        <ele>142</ele>
        <time>2023-03-14T15:42:30.294Z</time>
      </trkpt>
      <trkpt lat="49.4536" lon="1.33838">
        <ele>142</ele>
        <time>2023-03-14T15:42:34.822Z</time>
      </trkpt>
      <trkpt lat="49.45355" lon="1.33839">
        <ele>142</ele>
        <time>2023-03-14T15:42:38.991Z</time>
      </trkpt>
      <trkpt lat="49.4535" lon="1.33839">
        <ele>142</ele>
        <time>2023-03-14T15:42:43.636Z</time>
      </trkpt>
      <trkpt lat="49.45346" lon="1.3384">
        <ele>143</ele>
        <time>2023-03-14T15:42:47.805Z</time>
      </trkpt>
      <trkpt lat="49.45341" lon="1.33841">
        <ele>143</ele>
        <time>2023-03-14T15:42:52.442Z</time>
      </trkpt>
      <trkpt lat="49.45337" lon="1.33842">
        <ele>143</ele>
        <time>2023-03-14T15:42:56.976Z</time>
      </trkpt>
      <trkpt lat="49.45332" lon="1.33843">
        <ele>143</ele>
        <time>2023-03-14T15:43:01.621Z</time>
      </trkpt>
      <trkpt lat="49.45328" lon="1.33844">
        <ele>143</ele>
        <time>2023-03-14T15:43:05.789Z</time>
      </trkpt>
      <trkpt lat="49.45323" lon="1.33845">
        <ele>143</ele>
        <time>2023-03-14T15:43:10.673Z</time>
      </trkpt>
      <trkpt lat="49.45319" lon="1.33847">
        <ele>144</ele>
        <time>2023-03-14T15:43:14.841Z</time>
      </trkpt>
      <trkpt lat="49.45314" lon="1.3385">
        <ele>145</ele>
        <time>2023-03-14T15:43:19.442Z</time>
      </trkpt>
      <trkpt lat="49.45309" lon="1.33853">
        <ele>145</ele>
        <time>2023-03-14T15:43:24.012Z</time>
      </trkpt>
      <trkpt lat="49.45305" lon="1.33855">
        <ele>145</ele>
        <time>2023-03-14T15:43:28.538Z</time>
      </trkpt>
      <trkpt lat="49.453" lon="1.33856">
        <ele>145</ele>
        <time>2023-03-14T15:43:33.040Z</time>
      </trkpt>
      <trkpt lat="49.45296" lon="1.33856">
        <ele>145</ele>
        <time>2023-03-14T15:43:36.994Z</time>
      </trkpt>
      <trkpt lat="49.45291" lon="1.33858">
        <ele>145</ele>
        <time>2023-03-14T15:43:41.653Z</time>
      </trkpt>
      <trkpt lat="49.45287" lon="1.3386">
        <ele>145</ele>
        <time>2023-03-14T15:43:45.808Z</time>
      </trkpt>
      <trkpt lat="49.45282" lon="1.33861">
        <ele>145</ele>
        <time>2023-03-14T15:43:49.858Z</time>
      </trkpt>
      <trkpt lat="49.45278" lon="1.33863">
        <ele>145</ele>
        <time>2023-03-14T15:43:54.442Z</time>
      </trkpt>
      <trkpt lat="49.45274" lon="1.33865">
        <ele>145</ele>
        <time>2023-03-14T15:43:58.433Z</time>
      </trkpt>
      <trkpt lat="49.45269" lon="1.33867">
        <ele>145</ele>
        <time>2023-03-14T15:44:02.959Z</time>
      </trkpt>
      <trkpt lat="49.45264" lon="1.33868">
        <ele>145</ele>
        <time>2023-03-14T15:44:07.008Z</time>
      </trkpt>
      <trkpt lat="49.45259" lon="1.33869">
        <ele>145</ele>
        <time>2023-03-14T15:44:11.773Z</time>
      </trkpt>
      <trkpt lat="49.45254" lon="1.33869">
        <ele>145</ele>
        <time>2023-03-14T15:44:16.179Z</time>
      </trkpt>
      <trkpt lat="49.45249" lon="1.3387">
        <ele>145</ele>
        <time>2023-03-14T15:44:20.824Z</time>
      </trkpt>
      <trkpt lat="49.45244" lon="1.3387">
        <ele>145</ele>
        <time>2023-03-14T15:44:24.993Z</time>
      </trkpt>
      <trkpt lat="49.4524" lon="1.3387">
        <ele>145</ele>
        <time>2023-03-14T15:44:29.574Z</time>
      </trkpt>
      <trkpt lat="49.45235" lon="1.33871">
        <ele>144</ele>
        <time>2023-03-14T15:44:33.442Z</time>
      </trkpt>
      <trkpt lat="49.4523" lon="1.33872">
        <ele>144</ele>
        <time>2023-03-14T15:44:37.618Z</time>
      </trkpt>
      <trkpt lat="49.45225" lon="1.33873">
        <ele>144</ele>
        <time>2023-03-14T15:44:41.787Z</time>
      </trkpt>
      <trkpt lat="49.4522" lon="1.33874">
        <ele>144</ele>
        <time>2023-03-14T15:44:45.836Z</time>
      </trkpt>
      <trkpt lat="49.45215" lon="1.33874">
        <ele>144</ele>
        <time>2023-03-14T15:44:50.838Z</time>
      </trkpt>
      <trkpt lat="49.4521" lon="1.33874">
        <ele>144</ele>
        <time>2023-03-14T15:44:55.007Z</time>
      </trkpt>
      <trkpt lat="49.45205" lon="1.33876">
        <ele>144</ele>
        <time>2023-03-14T15:44:59.771Z</time>
      </trkpt>
      <trkpt lat="49.452" lon="1.33876">
        <ele>144</ele>
        <time>2023-03-14T15:45:04.178Z</time>
      </trkpt>
      <trkpt lat="49.45195" lon="1.33876">
        <ele>144</ele>
        <time>2023-03-14T15:45:08.228Z</time>
      </trkpt>
      <trkpt lat="49.45191" lon="1.33877">
        <ele>144</ele>
        <time>2023-03-14T15:45:12.396Z</time>
      </trkpt>
      <trkpt lat="49.45186" lon="1.33878">
        <ele>144</ele>
        <time>2023-03-14T15:45:16.442Z</time>
      </trkpt>
      <trkpt lat="49.45181" lon="1.33878">
        <ele>144</ele>
        <time>2023-03-14T15:45:21.091Z</time>
      </trkpt>
      <trkpt lat="49.45176" lon="1.3388">
        <ele>145</ele>
        <time>2023-03-14T15:45:25.140Z</time>
      </trkpt>
      <trkpt lat="49.45172" lon="1.33882">
        <ele>145</ele>
        <time>2023-03-14T15:45:29.190Z</time>
      </trkpt>
      <trkpt lat="49.45167" lon="1.33883">
        <ele>145</ele>
        <time>2023-03-14T15:45:33.239Z</time>
      </trkpt>
      <trkpt lat="49.45163" lon="1.33885">
        <ele>145</ele>
        <time>2023-03-14T15:45:37.408Z</time>
      </trkpt>
      <trkpt lat="49.45158" lon="1.33888">
        <ele>145</ele>
        <time>2023-03-14T15:45:41.442Z</time>
      </trkpt>
      <trkpt lat="49.45154" lon="1.33891">
        <ele>145</ele>
        <time>2023-03-14T15:45:45.626Z</time>
      </trkpt>
      <trkpt lat="49.4515" lon="1.33894">
        <ele>145</ele>
        <time>2023-03-14T15:45:50.152Z</time>
      </trkpt>
      <trkpt lat="49.45145" lon="1.33896">
        <ele>145</ele>
        <time>2023-03-14T15:45:54.202Z</time>
      </trkpt>
      <trkpt lat="49.4514" lon="1.33899">
        <ele>145</ele>
        <time>2023-03-14T15:45:58.847Z</time>
      </trkpt>
      <trkpt lat="49.45136" lon="1.33901">
        <ele>145</ele>
        <time>2023-03-14T15:46:03.015Z</time>
      </trkpt>
      <trkpt lat="49.45131" lon="1.33904">
        <ele>146</ele>
        <time>2023-03-14T15:46:07.541Z</time>
      </trkpt>
      <trkpt lat="49.45127" lon="1.33907">
        <ele>146</ele>
        <time>2023-03-14T15:46:11.591Z</time>
      </trkpt>
      <trkpt lat="49.45122" lon="1.33909">
        <ele>145</ele>
        <time>2023-03-14T15:46:15.997Z</time>
      </trkpt>
      <trkpt lat="49.45118" lon="1.33912">
        <ele>145</ele>
        <time>2023-03-14T15:46:20.047Z</time>
      </trkpt>
      <trkpt lat="49.45112" lon="1.33912">
        <ele>145</ele>
        <time>2023-03-14T15:46:24.811Z</time>
      </trkpt>
      <trkpt lat="49.45108" lon="1.33911">
        <ele>145</ele>
        <time>2023-03-14T15:46:29.304Z</time>
      </trkpt>
      <trkpt lat="49.45103" lon="1.3391">
        <ele>145</ele>
        <time>2023-03-14T15:46:33.387Z</time>
      </trkpt>
      <trkpt lat="49.45098" lon="1.33917">
        <ele>145</ele>
        <time>2023-03-14T15:46:38.032Z</time>
      </trkpt>
      <trkpt lat="49.45093" lon="1.33922">
        <ele>143</ele>
        <time>2023-03-14T15:46:42.200Z</time>
      </trkpt>
      <trkpt lat="49.45089" lon="1.33926">
        <ele>143</ele>
        <time>2023-03-14T15:46:46.250Z</time>
      </trkpt>
      <trkpt lat="49.45085" lon="1.33931">
        <ele>145</ele>
        <time>2023-03-14T15:46:50.418Z</time>
      </trkpt>
      <trkpt lat="49.45081" lon="1.33936">
        <ele>145</ele>
        <time>2023-03-14T15:46:54.944Z</time>
      </trkpt>
      <trkpt lat="49.45077" lon="1.3394">
        <ele>145</ele>
        <time>2023-03-14T15:46:58.994Z</time>
      </trkpt>
      <trkpt lat="49.45072" lon="1.33943">
        <ele>145</ele>
        <time>2023-03-14T15:47:03.401Z</time>
      </trkpt>
      <trkpt lat="49.45068" lon="1.33947">
        <ele>142</ele>
        <time>2023-03-14T15:47:07.927Z</time>
      </trkpt>
      <trkpt lat="49.45065" lon="1.33951">
        <ele>142</ele>
        <time>2023-03-14T15:47:12.392Z</time>
      </trkpt>
      <trkpt lat="49.45061" lon="1.33956">
        <ele>142</ele>
        <time>2023-03-14T15:47:16.850Z</time>
      </trkpt>
      <trkpt lat="49.45058" lon="1.33961">
        <ele>143</ele>
        <time>2023-03-14T15:47:20.790Z</time>
      </trkpt>
      <trkpt lat="49.45054" lon="1.33964">
        <ele>143</ele>
        <time>2023-03-14T15:47:25.294Z</time>
      </trkpt>
      <trkpt lat="49.4505" lon="1.33967">
        <ele>143</ele>
        <time>2023-03-14T15:47:29.293Z</time>
      </trkpt>
      <trkpt lat="49.45046" lon="1.33971">
        <ele>143</ele>
        <time>2023-03-14T15:47:33.177Z</time>
      </trkpt>
      <trkpt lat="49.45042" lon="1.33974">
        <ele>143</ele>
        <time>2023-03-14T15:47:37.226Z</time>
      </trkpt>
      <trkpt lat="49.45038" lon="1.33977">
        <ele>141</ele>
        <time>2023-03-14T15:47:41.395Z</time>
      </trkpt>
      <trkpt lat="49.45034" lon="1.33981">
        <ele>141</ele>
        <time>2023-03-14T15:47:45.442Z</time>
      </trkpt>
      <trkpt lat="49.4503" lon="1.33986">
        <ele>141</ele>
        <time>2023-03-14T15:47:49.613Z</time>
      </trkpt>
      <trkpt lat="49.45026" lon="1.3399">
        <ele>142</ele>
        <time>2023-03-14T15:47:54.139Z</time>
      </trkpt>
      <trkpt lat="49.45022" lon="1.33993">
        <ele>142</ele>
        <time>2023-03-14T15:47:58.188Z</time>
      </trkpt>
      <trkpt lat="49.45017" lon="1.33998">
        <ele>142</ele>
        <time>2023-03-14T15:48:02.833Z</time>
      </trkpt>
      <trkpt lat="49.45013" lon="1.34002">
        <ele>141</ele>
        <time>2023-03-14T15:48:07.293Z</time>
      </trkpt>
      <trkpt lat="49.4501" lon="1.34006">
        <ele>141</ele>
        <time>2023-03-14T15:48:10.813Z</time>
      </trkpt>
      <trkpt lat="49.45004" lon="1.34008">
        <ele>141</ele>
        <time>2023-03-14T15:48:15.816Z</time>
      </trkpt>
      <trkpt lat="49.45" lon="1.34011">
        <ele>141</ele>
        <time>2023-03-14T15:48:19.865Z</time>
      </trkpt>
      <trkpt lat="49.44995" lon="1.34009">
        <ele>141</ele>
        <time>2023-03-14T15:48:24.034Z</time>
      </trkpt>
      <trkpt lat="49.44993" lon="1.34001">
        <ele>141</ele>
        <time>2023-03-14T15:48:28.560Z</time>
      </trkpt>
      <trkpt lat="49.44992" lon="1.33993">
        <ele>141</ele>
        <time>2023-03-14T15:48:32.609Z</time>
      </trkpt>
      <trkpt lat="49.44992" lon="1.33986">
        <ele>140</ele>
        <time>2023-03-14T15:48:36.778Z</time>
      </trkpt>
      <trkpt lat="49.4499" lon="1.33978">
        <ele>140</ele>
        <time>2023-03-14T15:48:40.828Z</time>
      </trkpt>
      <trkpt lat="49.44988" lon="1.33971">
        <ele>140</ele>
        <time>2023-03-14T15:48:44.996Z</time>
      </trkpt>
      <trkpt lat="49.44986" lon="1.33964">
        <ele>140</ele>
        <time>2023-03-14T15:48:49.403Z</time>
      </trkpt>
      <trkpt lat="49.44985" lon="1.33957">
        <ele>140</ele>
        <time>2023-03-14T15:48:53.442Z</time>
      </trkpt>
      <trkpt lat="49.44983" lon="1.3395">
        <ele>140</ele>
        <time>2023-03-14T15:48:57.621Z</time>
      </trkpt>
      <trkpt lat="49.44982" lon="1.33943">
        <ele>140</ele>
        <time>2023-03-14T15:49:01.790Z</time>
      </trkpt>
      <trkpt lat="49.4498" lon="1.33936">
        <ele>140</ele>
        <time>2023-03-14T15:49:06.197Z</time>
      </trkpt>
      <trkpt lat="49.44978" lon="1.33929">
        <ele>141</ele>
        <time>2023-03-14T15:49:10.246Z</time>
      </trkpt>
      <trkpt lat="49.44977" lon="1.33922">
        <ele>141</ele>
        <time>2023-03-14T15:49:14.415Z</time>
      </trkpt>
      <trkpt lat="49.44975" lon="1.33914">
        <ele>141</ele>
        <time>2023-03-14T15:49:18.442Z</time>
      </trkpt>
      <trkpt lat="49.44974" lon="1.33907">
        <ele>141</ele>
        <time>2023-03-14T15:49:22.633Z</time>
      </trkpt>
      <trkpt lat="49.44972" lon="1.339">
        <ele>141</ele>
        <time>2023-03-14T15:49:26.802Z</time>
      </trkpt>
      <trkpt lat="49.4497" lon="1.33893">
        <ele>141</ele>
        <time>2023-03-14T15:49:30.851Z</time>
      </trkpt>
      <trkpt lat="49.44969" lon="1.33885">
        <ele>141</ele>
        <time>2023-03-14T15:49:35.020Z</time>
      </trkpt>
      <trkpt lat="49.44967" lon="1.33877">
        <ele>141</ele>
        <time>2023-03-14T15:49:39.189Z</time>
      </trkpt>
      <trkpt lat="49.44966" lon="1.33869">
        <ele>142</ele>
        <time>2023-03-14T15:49:43.834Z</time>
      </trkpt>
      <trkpt lat="49.44965" lon="1.33862">
        <ele>142</ele>
        <time>2023-03-14T15:49:48.002Z</time>
      </trkpt>
      <trkpt lat="49.44964" lon="1.33854">
        <ele>142</ele>
        <time>2023-03-14T15:49:52.052Z</time>
      </trkpt>
      <trkpt lat="49.44963" lon="1.33847">
        <ele>143</ele>
        <time>2023-03-14T15:49:56.220Z</time>
      </trkpt>
      <trkpt lat="49.44961" lon="1.33838">
        <ele>143</ele>
        <time>2023-03-14T15:50:00.866Z</time>
      </trkpt>
      <trkpt lat="49.4496" lon="1.33831">
        <ele>143</ele>
        <time>2023-03-14T15:50:05.034Z</time>
      </trkpt>
      <trkpt lat="49.44959" lon="1.33823">
        <ele>143</ele>
        <time>2023-03-14T15:50:09.798Z</time>
      </trkpt>
      <trkpt lat="49.44958" lon="1.33815">
        <ele>143</ele>
        <time>2023-03-14T15:50:14.178Z</time>
      </trkpt>
      <trkpt lat="49.44957" lon="1.33808">
        <ele>144</ele>
        <time>2023-03-14T15:50:18.136Z</time>
      </trkpt>
      <trkpt lat="49.44956" lon="1.33799">
        <ele>144</ele>
        <time>2023-03-14T15:50:22.781Z</time>
      </trkpt>
      <trkpt lat="49.44955" lon="1.33793">
        <ele>144</ele>
        <time>2023-03-14T15:50:26.830Z</time>
      </trkpt>
      <trkpt lat="49.44954" lon="1.33785">
        <ele>144</ele>
        <time>2023-03-14T15:50:30.999Z</time>
      </trkpt>
      <trkpt lat="49.44952" lon="1.33778">
        <ele>144</ele>
        <time>2023-03-14T15:50:35.048Z</time>
      </trkpt>
      <trkpt lat="49.44952" lon="1.3377">
        <ele>144</ele>
        <time>2023-03-14T15:50:39.217Z</time>
      </trkpt>
      <trkpt lat="49.4495" lon="1.33761">
        <ele>143</ele>
        <time>2023-03-14T15:50:43.862Z</time>
      </trkpt>
      <trkpt lat="49.44949" lon="1.33754">
        <ele>143</ele>
        <time>2023-03-14T15:50:48.031Z</time>
      </trkpt>
      <trkpt lat="49.44947" lon="1.33747">
        <ele>143</ele>
        <time>2023-03-14T15:50:52.199Z</time>
      </trkpt>
      <trkpt lat="49.44946" lon="1.33738">
        <ele>143</ele>
        <time>2023-03-14T15:50:56.844Z</time>
      </trkpt>
      <trkpt lat="49.44945" lon="1.33731">
        <ele>143</ele>
        <time>2023-03-14T15:51:01.027Z</time>
      </trkpt>
      <trkpt lat="49.44944" lon="1.33723">
        <ele>143</ele>
        <time>2023-03-14T15:51:05.063Z</time>
      </trkpt>
      <trkpt lat="49.44942" lon="1.33715">
        <ele>143</ele>
        <time>2023-03-14T15:51:09.708Z</time>
      </trkpt>
      <trkpt lat="49.44941" lon="1.33707">
        <ele>143</ele>
        <time>2023-03-14T15:51:14.290Z</time>
      </trkpt>
      <trkpt lat="49.4494" lon="1.33699">
        <ele>143</ele>
        <time>2023-03-14T15:51:18.283Z</time>
      </trkpt>
      <trkpt lat="49.44939" lon="1.33692">
        <ele>143</ele>
        <time>2023-03-14T15:51:22.291Z</time>
      </trkpt>
      <trkpt lat="49.44938" lon="1.33683">
        <ele>143</ele>
        <time>2023-03-14T15:51:26.859Z</time>
      </trkpt>
      <trkpt lat="49.44937" lon="1.33675">
        <ele>143</ele>
        <time>2023-03-14T15:51:31.623Z</time>
      </trkpt>
      <trkpt lat="49.44935" lon="1.33667">
        <ele>143</ele>
        <time>2023-03-14T15:51:36.149Z</time>
      </trkpt>
      <trkpt lat="49.44934" lon="1.33659">
        <ele>143</ele>
        <time>2023-03-14T15:51:40.198Z</time>
      </trkpt>
      <trkpt lat="49.44933" lon="1.3365">
        <ele>144</ele>
        <time>2023-03-14T15:51:44.843Z</time>
      </trkpt>
      <trkpt lat="49.44932" lon="1.33643">
        <ele>144</ele>
        <time>2023-03-14T15:51:48.893Z</time>
      </trkpt>
      <trkpt lat="49.44931" lon="1.33634">
        <ele>144</ele>
        <time>2023-03-14T15:51:53.419Z</time>
      </trkpt>
      <trkpt lat="49.4493" lon="1.33626">
        <ele>144</ele>
        <time>2023-03-14T15:51:58.064Z</time>
      </trkpt>
      <trkpt lat="49.44927" lon="1.3362">
        <ele>145</ele>
        <time>2023-03-14T15:52:02.590Z</time>
      </trkpt>
      <trkpt lat="49.44926" lon="1.33611">
        <ele>145</ele>
        <time>2023-03-14T15:52:07.116Z</time>
      </trkpt>
      <trkpt lat="49.44925" lon="1.33602">
        <ele>145</ele>
        <time>2023-03-14T15:52:11.642Z</time>
      </trkpt>
      <trkpt lat="49.44924" lon="1.33594">
        <ele>145</ele>
        <time>2023-03-14T15:52:16.287Z</time>
      </trkpt>
      <trkpt lat="49.44924" lon="1.33586">
        <ele>145</ele>
        <time>2023-03-14T15:52:20.290Z</time>
      </trkpt>
      <trkpt lat="49.44923" lon="1.33578">
        <ele>145</ele>
        <time>2023-03-14T15:52:24.267Z</time>
      </trkpt>
      <trkpt lat="49.44923" lon="1.3357">
        <ele>145</ele>
        <time>2023-03-14T15:52:28.294Z</time>
      </trkpt>
      <trkpt lat="49.44922" lon="1.33562">
        <ele>145</ele>
        <time>2023-03-14T15:52:32.842Z</time>
      </trkpt>
      <trkpt lat="49.44921" lon="1.33554">
        <ele>145</ele>
        <time>2023-03-14T15:52:36.892Z</time>
      </trkpt>
      <trkpt lat="49.4492" lon="1.33545">
        <ele>145</ele>
        <time>2023-03-14T15:52:41.418Z</time>
      </trkpt>
      <trkpt lat="49.44919" lon="1.33535">
        <ele>145</ele>
        <time>2023-03-14T15:52:46.063Z</time>
      </trkpt>
      <trkpt lat="49.44917" lon="1.33528">
        <ele>145</ele>
        <time>2023-03-14T15:52:50.589Z</time>
      </trkpt>
      <trkpt lat="49.44916" lon="1.3352">
        <ele>145</ele>
        <time>2023-03-14T15:52:55.234Z</time>
      </trkpt>
      <trkpt lat="49.44916" lon="1.33511">
        <ele>145</ele>
        <time>2023-03-14T15:52:59.760Z</time>
      </trkpt>
      <trkpt lat="49.44916" lon="1.33502">
        <ele>145</ele>
        <time>2023-03-14T15:53:04.288Z</time>
      </trkpt>
      <trkpt lat="49.44915" lon="1.33493">
        <ele>145</ele>
        <time>2023-03-14T15:53:08.812Z</time>
      </trkpt>
      <trkpt lat="49.44915" lon="1.33484">
        <ele>146</ele>
        <time>2023-03-14T15:53:13.442Z</time>
      </trkpt>
      <trkpt lat="49.44915" lon="1.33475">
        <ele>146</ele>
        <time>2023-03-14T15:53:17.983Z</time>
      </trkpt>
      <trkpt lat="49.44913" lon="1.33467">
        <ele>146</ele>
        <time>2023-03-14T15:53:22.628Z</time>
      </trkpt>
      <trkpt lat="49.44915" lon="1.33458">
        <ele>146</ele>
        <time>2023-03-14T15:53:27.273Z</time>
      </trkpt>
      <trkpt lat="49.44914" lon="1.3345">
        <ele>146</ele>
        <time>2023-03-14T15:53:31.299Z</time>
      </trkpt>
      <trkpt lat="49.44914" lon="1.33442">
        <ele>146</ele>
        <time>2023-03-14T15:53:35.859Z</time>
      </trkpt>
      <trkpt lat="49.44915" lon="1.33433">
        <ele>146</ele>
        <time>2023-03-14T15:53:40.017Z</time>
      </trkpt>
      <trkpt lat="49.44914" lon="1.33425">
        <ele>145</ele>
        <time>2023-03-14T15:53:44.543Z</time>
      </trkpt>
      <trkpt lat="49.44913" lon="1.33418">
        <ele>145</ele>
        <time>2023-03-14T15:53:48.592Z</time>
      </trkpt>
      <trkpt lat="49.44912" lon="1.3341">
        <ele>145</ele>
        <time>2023-03-14T15:53:52.642Z</time>
      </trkpt>
      <trkpt lat="49.44912" lon="1.33402">
        <ele>145</ele>
        <time>2023-03-14T15:53:56.811Z</time>
      </trkpt>
      <trkpt lat="49.44913" lon="1.33394">
        <ele>145</ele>
        <time>2023-03-14T15:54:00.860Z</time>
      </trkpt>
      <trkpt lat="49.44912" lon="1.33386">
        <ele>145</ele>
        <time>2023-03-14T15:54:05.624Z</time>
      </trkpt>
      <trkpt lat="49.44912" lon="1.33377">
        <ele>145</ele>
        <time>2023-03-14T15:54:10.099Z</time>
      </trkpt>
      <trkpt lat="49.44913" lon="1.3337">
        <ele>146</ele>
        <time>2023-03-14T15:54:14.081Z</time>
      </trkpt>
      <trkpt lat="49.44913" lon="1.33362">
        <ele>146</ele>
        <time>2023-03-14T15:54:18.249Z</time>
      </trkpt>
      <trkpt lat="49.44912" lon="1.33354">
        <ele>146</ele>
        <time>2023-03-14T15:54:22.299Z</time>
      </trkpt>
      <trkpt lat="49.44911" lon="1.33345">
        <ele>146</ele>
        <time>2023-03-14T15:54:26.825Z</time>
      </trkpt>
      <trkpt lat="49.4491" lon="1.33337">
        <ele>146</ele>
        <time>2023-03-14T15:54:30.993Z</time>
      </trkpt>
      <trkpt lat="49.44909" lon="1.3333">
        <ele>146</ele>
        <time>2023-03-14T15:54:35.043Z</time>
      </trkpt>
      <trkpt lat="49.4491" lon="1.33323">
        <ele>146</ele>
        <time>2023-03-14T15:54:39.211Z</time>
      </trkpt>
      <trkpt lat="49.4491" lon="1.33315">
        <ele>146</ele>
        <time>2023-03-14T15:54:43.856Z</time>
      </trkpt>
      <trkpt lat="49.4491" lon="1.33308">
        <ele>146</ele>
        <time>2023-03-14T15:54:48.025Z</time>
      </trkpt>
      <trkpt lat="49.44909" lon="1.333">
        <ele>146</ele>
        <time>2023-03-14T15:54:52.075Z</time>
      </trkpt>
      <trkpt lat="49.4491" lon="1.33292">
        <ele>146</ele>
        <time>2023-03-14T15:54:56.600Z</time>
      </trkpt>
      <trkpt lat="49.44909" lon="1.33284">
        <ele>146</ele>
        <time>2023-03-14T15:55:00.650Z</time>
      </trkpt>
      <trkpt lat="49.44909" lon="1.33277">
        <ele>146</ele>
        <time>2023-03-14T15:55:04.700Z</time>
      </trkpt>
      <trkpt lat="49.4491" lon="1.33269">
        <ele>146</ele>
        <time>2023-03-14T15:55:09.302Z</time>
      </trkpt>
      <trkpt lat="49.4491" lon="1.33261">
        <ele>146</ele>
        <time>2023-03-14T15:55:13.870Z</time>
      </trkpt>
      <trkpt lat="49.4491" lon="1.33254">
        <ele>146</ele>
        <time>2023-03-14T15:55:17.920Z</time>
      </trkpt>
      <trkpt lat="49.44911" lon="1.33247">
        <ele>146</ele>
        <time>2023-03-14T15:55:21.850Z</time>
      </trkpt>
      <trkpt lat="49.44911" lon="1.33238">
        <ele>146</ele>
        <time>2023-03-14T15:55:26.615Z</time>
      </trkpt>
      <trkpt lat="49.44911" lon="1.3323">
        <ele>147</ele>
        <time>2023-03-14T15:55:30.783Z</time>
      </trkpt>
      <trkpt lat="49.44911" lon="1.33222">
        <ele>147</ele>
        <time>2023-03-14T15:55:34.833Z</time>
      </trkpt>
      <trkpt lat="49.4491" lon="1.33213">
        <ele>147</ele>
        <time>2023-03-14T15:55:39.301Z</time>
      </trkpt>
      <trkpt lat="49.4491" lon="1.33206">
        <ele>147</ele>
        <time>2023-03-14T15:55:43.408Z</time>
      </trkpt>
      <trkpt lat="49.4491" lon="1.33198">
        <ele>147</ele>
        <time>2023-03-14T15:55:47.442Z</time>
      </trkpt>
      <trkpt lat="49.4491" lon="1.33189">
        <ele>147</ele>
        <time>2023-03-14T15:55:52.222Z</time>
      </trkpt>
      <trkpt lat="49.4491" lon="1.33182">
        <ele>147</ele>
        <time>2023-03-14T15:55:56.304Z</time>
      </trkpt>
      <trkpt lat="49.4491" lon="1.33174">
        <ele>147</ele>
        <time>2023-03-14T15:56:00.440Z</time>
      </trkpt>
      <trkpt lat="49.4491" lon="1.33167">
        <ele>147</ele>
        <time>2023-03-14T15:56:04.608Z</time>
      </trkpt>
      <trkpt lat="49.4491" lon="1.3316">
        <ele>147</ele>
        <time>2023-03-14T15:56:08.539Z</time>
      </trkpt>
      <trkpt lat="49.4491" lon="1.33151">
        <ele>147</ele>
        <time>2023-03-14T15:56:13.422Z</time>
      </trkpt>
      <trkpt lat="49.44911" lon="1.33142">
        <ele>147</ele>
        <time>2023-03-14T15:56:17.591Z</time>
      </trkpt>
      <trkpt lat="49.44911" lon="1.33134">
        <ele>147</ele>
        <time>2023-03-14T15:56:21.640Z</time>
      </trkpt>
      <trkpt lat="49.44912" lon="1.33125">
        <ele>147</ele>
        <time>2023-03-14T15:56:26.285Z</time>
      </trkpt>
      <trkpt lat="49.44912" lon="1.33117">
        <ele>147</ele>
        <time>2023-03-14T15:56:30.811Z</time>
      </trkpt>
      <trkpt lat="49.44912" lon="1.33109">
        <ele>147</ele>
        <time>2023-03-14T15:56:35.442Z</time>
      </trkpt>
      <trkpt lat="49.44913" lon="1.33101">
        <ele>147</ele>
        <time>2023-03-14T15:56:39.625Z</time>
      </trkpt>
      <trkpt lat="49.44914" lon="1.33095">
        <ele>147</ele>
        <time>2023-03-14T15:56:43.793Z</time>
      </trkpt>
      <trkpt lat="49.44913" lon="1.33086">
        <ele>147</ele>
        <time>2023-03-14T15:56:48.319Z</time>
      </trkpt>
      <trkpt lat="49.44914" lon="1.33078">
        <ele>147</ele>
        <time>2023-03-14T15:56:52.845Z</time>
      </trkpt>
      <trkpt lat="49.44914" lon="1.33069">
        <ele>147</ele>
        <time>2023-03-14T15:56:57.609Z</time>
      </trkpt>
      <trkpt lat="49.44915" lon="1.33061">
        <ele>147</ele>
        <time>2023-03-14T15:57:02.135Z</time>
      </trkpt>
      <trkpt lat="49.44915" lon="1.33052">
        <ele>147</ele>
        <time>2023-03-14T15:57:06.780Z</time>
      </trkpt>
      <trkpt lat="49.44915" lon="1.33045">
        <ele>147</ele>
        <time>2023-03-14T15:57:10.830Z</time>
      </trkpt>
      <trkpt lat="49.44916" lon="1.33037">
        <ele>147</ele>
        <time>2023-03-14T15:57:14.879Z</time>
      </trkpt>
      <trkpt lat="49.44916" lon="1.33029">
        <ele>147</ele>
        <time>2023-03-14T15:57:18.810Z</time>
      </trkpt>
      <trkpt lat="49.44917" lon="1.33022">
        <ele>147</ele>
        <time>2023-03-14T15:57:22.859Z</time>
      </trkpt>
      <trkpt lat="49.44917" lon="1.33013">
        <ele>148</ele>
        <time>2023-03-14T15:57:27.623Z</time>
      </trkpt>
      <trkpt lat="49.44918" lon="1.33006">
        <ele>148</ele>
        <time>2023-03-14T15:57:31.792Z</time>
      </trkpt>
      <trkpt lat="49.44918" lon="1.32999">
        <ele>148</ele>
        <time>2023-03-14T15:57:35.841Z</time>
      </trkpt>
      <trkpt lat="49.44918" lon="1.32992">
        <ele>148</ele>
        <time>2023-03-14T15:57:40.010Z</time>
      </trkpt>
      <trkpt lat="49.44918" lon="1.32985">
        <ele>148</ele>
        <time>2023-03-14T15:57:44.060Z</time>
      </trkpt>
      <trkpt lat="49.44919" lon="1.32976">
        <ele>148</ele>
        <time>2023-03-14T15:57:48.824Z</time>
      </trkpt>
      <trkpt lat="49.4492" lon="1.32969">
        <ele>148</ele>
        <time>2023-03-14T15:57:52.873Z</time>
      </trkpt>
      <trkpt lat="49.44921" lon="1.32962">
        <ele>148</ele>
        <time>2023-03-14T15:57:56.923Z</time>
      </trkpt>
      <trkpt lat="49.44921" lon="1.32954">
        <ele>149</ele>
        <time>2023-03-14T15:58:01.486Z</time>
      </trkpt>
      <trkpt lat="49.44922" lon="1.32947">
        <ele>149</ele>
        <time>2023-03-14T15:58:05.617Z</time>
      </trkpt>
      <trkpt lat="49.44922" lon="1.32939">
        <ele>149</ele>
        <time>2023-03-14T15:58:09.786Z</time>
      </trkpt>
      <trkpt lat="49.44923" lon="1.32932">
        <ele>149</ele>
        <time>2023-03-14T15:58:13.835Z</time>
      </trkpt>
      <trkpt lat="49.44923" lon="1.32924">
        <ele>148</ele>
        <time>2023-03-14T15:58:18.004Z</time>
      </trkpt>
      <trkpt lat="49.44923" lon="1.32917">
        <ele>148</ele>
        <time>2023-03-14T15:58:22.053Z</time>
      </trkpt>
      <trkpt lat="49.44923" lon="1.32909">
        <ele>148</ele>
        <time>2023-03-14T15:58:26.818Z</time>
      </trkpt>
      <trkpt lat="49.44924" lon="1.32903">
        <ele>148</ele>
        <time>2023-03-14T15:58:30.986Z</time>
      </trkpt>
      <trkpt lat="49.44925" lon="1.32896">
        <ele>148</ele>
        <time>2023-03-14T15:58:35.036Z</time>
      </trkpt>
      <trkpt lat="49.44925" lon="1.32888">
        <ele>148</ele>
        <time>2023-03-14T15:58:39.800Z</time>
      </trkpt>
      <trkpt lat="49.44924" lon="1.3288">
        <ele>148</ele>
        <time>2023-03-14T15:58:43.849Z</time>
      </trkpt>
      <trkpt lat="49.44925" lon="1.32873">
        <ele>147</ele>
        <time>2023-03-14T15:58:48.018Z</time>
      </trkpt>
      <trkpt lat="49.44927" lon="1.32866">
        <ele>147</ele>
        <time>2023-03-14T15:58:52.186Z</time>
      </trkpt>
      <trkpt lat="49.44928" lon="1.32858">
        <ele>147</ele>
        <time>2023-03-14T15:58:56.744Z</time>
      </trkpt>
      <trkpt lat="49.44928" lon="1.3285">
        <ele>147</ele>
        <time>2023-03-14T15:59:00.643Z</time>
      </trkpt>
      <trkpt lat="49.44928" lon="1.32842">
        <ele>146</ele>
        <time>2023-03-14T15:59:04.811Z</time>
      </trkpt>
      <trkpt lat="49.44928" lon="1.32834">
        <ele>146</ele>
        <time>2023-03-14T15:59:09.337Z</time>
      </trkpt>
      <trkpt lat="49.44929" lon="1.32826">
        <ele>146</ele>
        <time>2023-03-14T15:59:13.863Z</time>
      </trkpt>
      <trkpt lat="49.44929" lon="1.32819">
        <ele>146</ele>
        <time>2023-03-14T15:59:18.032Z</time>
      </trkpt>
      <trkpt lat="49.44929" lon="1.32809">
        <ele>146</ele>
        <time>2023-03-14T15:59:22.796Z</time>
      </trkpt>
      <trkpt lat="49.4493" lon="1.32801">
        <ele>146</ele>
        <time>2023-03-14T15:59:26.845Z</time>
      </trkpt>
      <trkpt lat="49.44931" lon="1.32793">
        <ele>146</ele>
        <time>2023-03-14T15:59:31.014Z</time>
      </trkpt>
      <trkpt lat="49.44931" lon="1.32786">
        <ele>146</ele>
        <time>2023-03-14T15:59:35.183Z</time>
      </trkpt>
      <trkpt lat="49.44931" lon="1.32777">
        <ele>146</ele>
        <time>2023-03-14T15:59:39.589Z</time>
      </trkpt>
      <trkpt lat="49.44931" lon="1.3277">
        <ele>146</ele>
        <time>2023-03-14T15:59:43.639Z</time>
      </trkpt>
      <trkpt lat="49.44931" lon="1.32762">
        <ele>145</ele>
        <time>2023-03-14T15:59:47.807Z</time>
      </trkpt>
      <trkpt lat="49.4493" lon="1.32755">
        <ele>145</ele>
        <time>2023-03-14T15:59:51.857Z</time>
      </trkpt>
      <trkpt lat="49.4493" lon="1.32747">
        <ele>145</ele>
        <time>2023-03-14T15:59:56.442Z</time>
      </trkpt>
      <trkpt lat="49.4493" lon="1.3274">
        <ele>145</ele>
        <time>2023-03-14T16:00:00.432Z</time>
      </trkpt>
      <trkpt lat="49.44932" lon="1.32733">
        <ele>145</ele>
        <time>2023-03-14T16:00:04.601Z</time>
      </trkpt>
      <trkpt lat="49.44932" lon="1.32727">
        <ele>145</ele>
        <time>2023-03-14T16:00:09.008Z</time>
      </trkpt>
      <trkpt lat="49.44932" lon="1.3272">
        <ele>145</ele>
        <time>2023-03-14T16:00:13.057Z</time>
      </trkpt>
      <trkpt lat="49.44933" lon="1.32711">
        <ele>145</ele>
        <time>2023-03-14T16:00:17.821Z</time>
      </trkpt>
      <trkpt lat="49.44933" lon="1.32703">
        <ele>145</ele>
        <time>2023-03-14T16:00:22.442Z</time>
      </trkpt>
      <trkpt lat="49.44934" lon="1.32695">
        <ele>145</ele>
        <time>2023-03-14T16:00:26.397Z</time>
      </trkpt>
      <trkpt lat="49.44935" lon="1.32687">
        <ele>145</ele>
        <time>2023-03-14T16:00:30.923Z</time>
      </trkpt>
      <trkpt lat="49.44936" lon="1.32679">
        <ele>146</ele>
        <time>2023-03-14T16:00:34.853Z</time>
      </trkpt>
      <trkpt lat="49.44937" lon="1.32672">
        <ele>146</ele>
        <time>2023-03-14T16:00:39.022Z</time>
      </trkpt>
      <trkpt lat="49.44938" lon="1.32664">
        <ele>146</ele>
        <time>2023-03-14T16:00:43.190Z</time>
      </trkpt>
      <trkpt lat="49.44939" lon="1.32656">
        <ele>146</ele>
        <time>2023-03-14T16:00:47.835Z</time>
      </trkpt>
      <trkpt lat="49.44939" lon="1.32649">
        <ele>146</ele>
        <time>2023-03-14T16:00:52.004Z</time>
      </trkpt>
      <trkpt lat="49.4494" lon="1.32642">
        <ele>146</ele>
        <time>2023-03-14T16:00:56.053Z</time>
      </trkpt>
      <trkpt lat="49.44942" lon="1.32633">
        <ele>146</ele>
        <time>2023-03-14T16:01:00.817Z</time>
      </trkpt>
      <trkpt lat="49.44943" lon="1.32626">
        <ele>146</ele>
        <time>2023-03-14T16:01:04.867Z</time>
      </trkpt>
      <trkpt lat="49.44944" lon="1.32619">
        <ele>146</ele>
        <time>2023-03-14T16:01:09.035Z</time>
      </trkpt>
      <trkpt lat="49.44944" lon="1.32611">
        <ele>146</ele>
        <time>2023-03-14T16:01:13.680Z</time>
      </trkpt>
      <trkpt lat="49.44944" lon="1.32604">
        <ele>146</ele>
        <time>2023-03-14T16:01:17.730Z</time>
      </trkpt>
      <trkpt lat="49.44945" lon="1.32597">
        <ele>145</ele>
        <time>2023-03-14T16:01:22.017Z</time>
      </trkpt>
      <trkpt lat="49.44946" lon="1.32589">
        <ele>145</ele>
        <time>2023-03-14T16:01:26.186Z</time>
      </trkpt>
      <trkpt lat="49.44947" lon="1.32581">
        <ele>145</ele>
        <time>2023-03-14T16:01:30.831Z</time>
      </trkpt>
      <trkpt lat="49.44947" lon="1.32574">
        <ele>145</ele>
        <time>2023-03-14T16:01:35Z</time>
      </trkpt>
      <trkpt lat="49.44948" lon="1.32566">
        <ele>145</ele>
        <time>2023-03-14T16:01:39.442Z</time>
      </trkpt>
      <trkpt lat="49.44949" lon="1.32559">
        <ele>145</ele>
        <time>2023-03-14T16:01:43.442Z</time>
      </trkpt>
      <trkpt lat="49.4495" lon="1.32552">
        <ele>145</ele>
        <time>2023-03-14T16:01:47.624Z</time>
      </trkpt>
      <trkpt lat="49.44952" lon="1.32544">
        <ele>145</ele>
        <time>2023-03-14T16:01:51.793Z</time>
      </trkpt>
      <trkpt lat="49.44954" lon="1.32537">
        <ele>144</ele>
        <time>2023-03-14T16:01:55.842Z</time>
      </trkpt>
      <trkpt lat="49.44955" lon="1.32529">
        <ele>144</ele>
        <time>2023-03-14T16:02:00.011Z</time>
      </trkpt>
      <trkpt lat="49.44956" lon="1.32522">
        <ele>144</ele>
        <time>2023-03-14T16:02:04.060Z</time>
      </trkpt>
      <trkpt lat="49.44957" lon="1.32512">
        <ele>144</ele>
        <time>2023-03-14T16:02:08.825Z</time>
      </trkpt>
      <trkpt lat="49.44957" lon="1.32504">
        <ele>144</ele>
        <time>2023-03-14T16:02:12.874Z</time>
      </trkpt>
      <trkpt lat="49.44958" lon="1.32497">
        <ele>145</ele>
        <time>2023-03-14T16:02:16.804Z</time>
      </trkpt>
      <trkpt lat="49.44959" lon="1.3249">
        <ele>145</ele>
        <time>2023-03-14T16:02:20.854Z</time>
      </trkpt>
      <trkpt lat="49.44959" lon="1.32481">
        <ele>145</ele>
        <time>2023-03-14T16:02:25.618Z</time>
      </trkpt>
      <trkpt lat="49.4496" lon="1.32473">
        <ele>145</ele>
        <time>2023-03-14T16:02:29.786Z</time>
      </trkpt>
      <trkpt lat="49.44961" lon="1.32466">
        <ele>145</ele>
        <time>2023-03-14T16:02:33.836Z</time>
      </trkpt>
      <trkpt lat="49.44962" lon="1.32459">
        <ele>145</ele>
        <time>2023-03-14T16:02:38.004Z</time>
      </trkpt>
      <trkpt lat="49.44964" lon="1.3245">
        <ele>145</ele>
        <time>2023-03-14T16:02:42.649Z</time>
      </trkpt>
      <trkpt lat="49.44965" lon="1.32443">
        <ele>145</ele>
        <time>2023-03-14T16:02:46.818Z</time>
      </trkpt>
      <trkpt lat="49.44966" lon="1.32435">
        <ele>145</ele>
        <time>2023-03-14T16:02:50.987Z</time>
      </trkpt>
      <trkpt lat="49.44967" lon="1.32426">
        <ele>144</ele>
        <time>2023-03-14T16:02:55.632Z</time>
      </trkpt>
      <trkpt lat="49.44969" lon="1.32418">
        <ele>144</ele>
        <time>2023-03-14T16:03:00.396Z</time>
      </trkpt>
      <trkpt lat="49.44971" lon="1.32411">
        <ele>144</ele>
        <time>2023-03-14T16:03:04.887Z</time>
      </trkpt>
      <trkpt lat="49.44971" lon="1.32403">
        <ele>144</ele>
        <time>2023-03-14T16:03:08.852Z</time>
      </trkpt>
      <trkpt lat="49.44971" lon="1.32395">
        <ele>144</ele>
        <time>2023-03-14T16:03:13.020Z</time>
      </trkpt>
      <trkpt lat="49.4497" lon="1.32389">
        <ele>144</ele>
        <time>2023-03-14T16:03:17.189Z</time>
      </trkpt>
      <trkpt lat="49.44967" lon="1.32383">
        <ele>144</ele>
        <time>2023-03-14T16:03:21.596Z</time>
      </trkpt>
      <trkpt lat="49.44967" lon="1.32375">
        <ele>144</ele>
        <time>2023-03-14T16:03:25.645Z</time>
      </trkpt>
      <trkpt lat="49.44968" lon="1.32366">
        <ele>144</ele>
        <time>2023-03-14T16:03:29.814Z</time>
      </trkpt>
      <trkpt lat="49.44969" lon="1.3236">
        <ele>144</ele>
        <time>2023-03-14T16:03:33.863Z</time>
      </trkpt>
      <trkpt lat="49.4497" lon="1.32352">
        <ele>144</ele>
        <time>2023-03-14T16:03:38.389Z</time>
      </trkpt>
      <trkpt lat="49.44971" lon="1.32345">
        <ele>144</ele>
        <time>2023-03-14T16:03:42.438Z</time>
      </trkpt>
      <trkpt lat="49.44971" lon="1.32337">
        <ele>144</ele>
        <time>2023-03-14T16:03:46.607Z</time>
      </trkpt>
      <trkpt lat="49.44972" lon="1.3233">
        <ele>144</ele>
        <time>2023-03-14T16:03:50.537Z</time>
      </trkpt>
      <trkpt lat="49.44973" lon="1.32322">
        <ele>144</ele>
        <time>2023-03-14T16:03:54.944Z</time>
      </trkpt>
      <trkpt lat="49.44974" lon="1.32315">
        <ele>144</ele>
        <time>2023-03-14T16:03:58.993Z</time>
      </trkpt>
      <trkpt lat="49.44975" lon="1.32307">
        <ele>144</ele>
        <time>2023-03-14T16:04:03.519Z</time>
      </trkpt>
      <trkpt lat="49.44975" lon="1.323">
        <ele>144</ele>
        <time>2023-03-14T16:04:07.569Z</time>
      </trkpt>
      <trkpt lat="49.44976" lon="1.32293">
        <ele>144</ele>
        <time>2023-03-14T16:04:11.618Z</time>
      </trkpt>
      <trkpt lat="49.44977" lon="1.32286">
        <ele>144</ele>
        <time>2023-03-14T16:04:15.787Z</time>
      </trkpt>
      <trkpt lat="49.44978" lon="1.32278">
        <ele>144</ele>
        <time>2023-03-14T16:04:19.836Z</time>
      </trkpt>
      <trkpt lat="49.44977" lon="1.32271">
        <ele>144</ele>
        <time>2023-03-14T16:04:24.437Z</time>
      </trkpt>
      <trkpt lat="49.44977" lon="1.32263">
        <ele>144</ele>
        <time>2023-03-14T16:04:28.411Z</time>
      </trkpt>
      <trkpt lat="49.44976" lon="1.32256">
        <ele>144</ele>
        <time>2023-03-14T16:04:32.442Z</time>
      </trkpt>
      <trkpt lat="49.44977" lon="1.32248">
        <ele>144</ele>
        <time>2023-03-14T16:04:36.629Z</time>
      </trkpt>
      <trkpt lat="49.44977" lon="1.3224">
        <ele>144</ele>
        <time>2023-03-14T16:04:41.212Z</time>
      </trkpt>
      <trkpt lat="49.44978" lon="1.32233">
        <ele>143</ele>
        <time>2023-03-14T16:04:45.205Z</time>
      </trkpt>
      <trkpt lat="49.44979" lon="1.32225">
        <ele>143</ele>
        <time>2023-03-14T16:04:49.305Z</time>
      </trkpt>
      <trkpt lat="49.44979" lon="1.32217">
        <ele>143</ele>
        <time>2023-03-14T16:04:53.423Z</time>
      </trkpt>
      <trkpt lat="49.44979" lon="1.32209">
        <ele>143</ele>
        <time>2023-03-14T16:04:58.068Z</time>
      </trkpt>
      <trkpt lat="49.44981" lon="1.32203">
        <ele>143</ele>
        <time>2023-03-14T16:05:02.236Z</time>
      </trkpt>
      <trkpt lat="49.44982" lon="1.32196">
        <ele>143</ele>
        <time>2023-03-14T16:06:22.298Z</time>
      </trkpt>
      <trkpt lat="49.44983" lon="1.32195">
        <ele>143</ele>
        <time>2023-03-14T16:06:27.300Z</time>
      </trkpt>
      <trkpt lat="49.44981" lon="1.32189">
        <ele>143</ele>
        <time>2023-03-14T16:06:31.308Z</time>
      </trkpt>
      <trkpt lat="49.44981" lon="1.32186">
        <ele>143</ele>
        <time>2023-03-14T16:06:35.234Z</time>
      </trkpt>
      <trkpt lat="49.44981" lon="1.32176">
        <ele>143</ele>
        <time>2023-03-14T16:06:39.759Z</time>
      </trkpt>
      <trkpt lat="49.44982" lon="1.32168">
        <ele>143</ele>
        <time>2023-03-14T16:06:43.809Z</time>
      </trkpt>
      <trkpt lat="49.44983" lon="1.32161">
        <ele>143</ele>
        <time>2023-03-14T16:06:47.858Z</time>
      </trkpt>
      <trkpt lat="49.44983" lon="1.32154">
        <ele>143</ele>
        <time>2023-03-14T16:06:52.027Z</time>
      </trkpt>
      <trkpt lat="49.44984" lon="1.32146">
        <ele>143</ele>
        <time>2023-03-14T16:06:56.195Z</time>
      </trkpt>
      <trkpt lat="49.44984" lon="1.32137">
        <ele>143</ele>
        <time>2023-03-14T16:07:00.840Z</time>
      </trkpt>
      <trkpt lat="49.44983" lon="1.32128">
        <ele>143</ele>
        <time>2023-03-14T16:07:05.902Z</time>
      </trkpt>
      <trkpt lat="49.44981" lon="1.3212">
        <ele>144</ele>
        <time>2023-03-14T16:07:09.892Z</time>
      </trkpt>
      <trkpt lat="49.4498" lon="1.32113">
        <ele>144</ele>
        <time>2023-03-14T16:07:13.822Z</time>
      </trkpt>
      <trkpt lat="49.44979" lon="1.32104">
        <ele>144</ele>
        <time>2023-03-14T16:07:18.575Z</time>
      </trkpt>
      <trkpt lat="49.44979" lon="1.32096">
        <ele>145</ele>
        <time>2023-03-14T16:07:22.635Z</time>
      </trkpt>
      <trkpt lat="49.44979" lon="1.32087">
        <ele>145</ele>
        <time>2023-03-14T16:07:27.161Z</time>
      </trkpt>
      <trkpt lat="49.44978" lon="1.3208">
        <ele>145</ele>
        <time>2023-03-14T16:07:31.211Z</time>
      </trkpt>
      <trkpt lat="49.44977" lon="1.32072">
        <ele>145</ele>
        <time>2023-03-14T16:07:35.308Z</time>
      </trkpt>
      <trkpt lat="49.44977" lon="1.32063">
        <ele>145</ele>
        <time>2023-03-14T16:07:39.915Z</time>
      </trkpt>
      <trkpt lat="49.44977" lon="1.32056">
        <ele>145</ele>
        <time>2023-03-14T16:07:43.835Z</time>
      </trkpt>
      <trkpt lat="49.44975" lon="1.32048">
        <ele>145</ele>
        <time>2023-03-14T16:07:48.302Z</time>
      </trkpt>
      <trkpt lat="49.44974" lon="1.3204">
        <ele>146</ele>
        <time>2023-03-14T16:07:52.410Z</time>
      </trkpt>
      <trkpt lat="49.44973" lon="1.32033">
        <ele>146</ele>
        <time>2023-03-14T16:07:56.442Z</time>
      </trkpt>
      <trkpt lat="49.44973" lon="1.32025">
        <ele>146</ele>
        <time>2023-03-14T16:08:01.105Z</time>
      </trkpt>
      <trkpt lat="49.44972" lon="1.32016">
        <ele>146</ele>
        <time>2023-03-14T16:08:05.630Z</time>
      </trkpt>
      <trkpt lat="49.44972" lon="1.32009">
        <ele>146</ele>
        <time>2023-03-14T16:08:09.680Z</time>
      </trkpt>
      <trkpt lat="49.44971" lon="1.31999">
        <ele>146</ele>
        <time>2023-03-14T16:08:14.206Z</time>
      </trkpt>
      <trkpt lat="49.44969" lon="1.31991">
        <ele>146</ele>
        <time>2023-03-14T16:08:18.731Z</time>
      </trkpt>
      <trkpt lat="49.44968" lon="1.31983">
        <ele>147</ele>
        <time>2023-03-14T16:08:22.781Z</time>
      </trkpt>
      <trkpt lat="49.44968" lon="1.31975">
        <ele>147</ele>
        <time>2023-03-14T16:08:26.830Z</time>
      </trkpt>
      <trkpt lat="49.44968" lon="1.31967">
        <ele>147</ele>
        <time>2023-03-14T16:08:30.999Z</time>
      </trkpt>
      <trkpt lat="49.44968" lon="1.31959">
        <ele>147</ele>
        <time>2023-03-14T16:08:34.929Z</time>
      </trkpt>
      <trkpt lat="49.44968" lon="1.31951">
        <ele>147</ele>
        <time>2023-03-14T16:08:39.442Z</time>
      </trkpt>
      <trkpt lat="49.44968" lon="1.31943">
        <ele>147</ele>
        <time>2023-03-14T16:08:43.623Z</time>
      </trkpt>
      <trkpt lat="49.44968" lon="1.31935">
        <ele>147</ele>
        <time>2023-03-14T16:08:48.313Z</time>
      </trkpt>
      <trkpt lat="49.44967" lon="1.31927">
        <ele>147</ele>
        <time>2023-03-14T16:08:52.318Z</time>
      </trkpt>
      <trkpt lat="49.44968" lon="1.31918">
        <ele>147</ele>
        <time>2023-03-14T16:08:56.843Z</time>
      </trkpt>
      <trkpt lat="49.44969" lon="1.31909">
        <ele>147</ele>
        <time>2023-03-14T16:09:01.607Z</time>
      </trkpt>
      <trkpt lat="49.4497" lon="1.31902">
        <ele>146</ele>
        <time>2023-03-14T16:09:05.538Z</time>
      </trkpt>
      <trkpt lat="49.4497" lon="1.31894">
        <ele>146</ele>
        <time>2023-03-14T16:09:09.587Z</time>
      </trkpt>
      <trkpt lat="49.44971" lon="1.31887">
        <ele>146</ele>
        <time>2023-03-14T16:09:13.636Z</time>
      </trkpt>
      <trkpt lat="49.44971" lon="1.31879">
        <ele>146</ele>
        <time>2023-03-14T16:09:18.400Z</time>
      </trkpt>
      <trkpt lat="49.44972" lon="1.31871">
        <ele>145</ele>
        <time>2023-03-14T16:09:22.442Z</time>
      </trkpt>
      <trkpt lat="49.44972" lon="1.31863">
        <ele>145</ele>
        <time>2023-03-14T16:09:26.442Z</time>
      </trkpt>
      <trkpt lat="49.44972" lon="1.31856">
        <ele>145</ele>
        <time>2023-03-14T16:09:30.429Z</time>
      </trkpt>
      <trkpt lat="49.44971" lon="1.31848">
        <ele>145</ele>
        <time>2023-03-14T16:09:34.598Z</time>
      </trkpt>
      <trkpt lat="49.44971" lon="1.31841">
        <ele>145</ele>
        <time>2023-03-14T16:09:38.647Z</time>
      </trkpt>
      <trkpt lat="49.44971" lon="1.31833">
        <ele>145</ele>
        <time>2023-03-14T16:09:42.816Z</time>
      </trkpt>
      <trkpt lat="49.44973" lon="1.31825">
        <ele>145</ele>
        <time>2023-03-14T16:09:46.865Z</time>
      </trkpt>
      <trkpt lat="49.44973" lon="1.31817">
        <ele>145</ele>
        <time>2023-03-14T16:09:51.629Z</time>
      </trkpt>
      <trkpt lat="49.44972" lon="1.31809">
        <ele>145</ele>
        <time>2023-03-14T16:09:56.155Z</time>
      </trkpt>
      <trkpt lat="49.44972" lon="1.318">
        <ele>145</ele>
        <time>2023-03-14T16:10:00.681Z</time>
      </trkpt>
      <trkpt lat="49.44971" lon="1.31791">
        <ele>145</ele>
        <time>2023-03-14T16:10:05.206Z</time>
      </trkpt>
      <trkpt lat="49.44971" lon="1.31783">
        <ele>145</ele>
        <time>2023-03-14T16:10:09.137Z</time>
      </trkpt>
      <trkpt lat="49.44972" lon="1.31774">
        <ele>145</ele>
        <time>2023-03-14T16:10:14.303Z</time>
      </trkpt>
      <trkpt lat="49.44972" lon="1.31766">
        <ele>145</ele>
        <time>2023-03-14T16:10:18.303Z</time>
      </trkpt>
      <trkpt lat="49.44972" lon="1.31758">
        <ele>146</ele>
        <time>2023-03-14T16:10:22.788Z</time>
      </trkpt>
      <trkpt lat="49.44973" lon="1.3175">
        <ele>146</ele>
        <time>2023-03-14T16:10:27.296Z</time>
      </trkpt>
      <trkpt lat="49.44973" lon="1.31741">
        <ele>146</ele>
        <time>2023-03-14T16:10:31.814Z</time>
      </trkpt>
      <trkpt lat="49.44974" lon="1.31732">
        <ele>146</ele>
        <time>2023-03-14T16:10:36.301Z</time>
      </trkpt>
      <trkpt lat="49.44975" lon="1.31725">
        <ele>146</ele>
        <time>2023-03-14T16:10:40.222Z</time>
      </trkpt>
      <trkpt lat="49.44978" lon="1.31717">
        <ele>146</ele>
        <time>2023-03-14T16:10:44.748Z</time>
      </trkpt>
      <trkpt lat="49.44979" lon="1.31708">
        <ele>146</ele>
        <time>2023-03-14T16:10:49.273Z</time>
      </trkpt>
      <trkpt lat="49.4498" lon="1.317">
        <ele>146</ele>
        <time>2023-03-14T16:10:53.293Z</time>
      </trkpt>
      <trkpt lat="49.44981" lon="1.31692">
        <ele>146</ele>
        <time>2023-03-14T16:10:57.856Z</time>
      </trkpt>
      <trkpt lat="49.44981" lon="1.31684">
        <ele>146</ele>
        <time>2023-03-14T16:11:01.779Z</time>
      </trkpt>
      <trkpt lat="49.44982" lon="1.31676">
        <ele>146</ele>
        <time>2023-03-14T16:11:06.304Z</time>
      </trkpt>
      <trkpt lat="49.44983" lon="1.31667">
        <ele>146</ele>
        <time>2023-03-14T16:11:10.830Z</time>
      </trkpt>
      <trkpt lat="49.44984" lon="1.3166">
        <ele>146</ele>
        <time>2023-03-14T16:11:14.999Z</time>
      </trkpt>
      <trkpt lat="49.44986" lon="1.31653">
        <ele>146</ele>
        <time>2023-03-14T16:11:19.048Z</time>
      </trkpt>
      <trkpt lat="49.44988" lon="1.31644">
        <ele>145</ele>
        <time>2023-03-14T16:11:23.812Z</time>
      </trkpt>
      <trkpt lat="49.4499" lon="1.31636">
        <ele>145</ele>
        <time>2023-03-14T16:11:28.393Z</time>
      </trkpt>
      <trkpt lat="49.44991" lon="1.31627">
        <ele>145</ele>
        <time>2023-03-14T16:11:32.864Z</time>
      </trkpt>
      <trkpt lat="49.44992" lon="1.31617">
        <ele>145</ele>
        <time>2023-03-14T16:11:37.628Z</time>
      </trkpt>
      <trkpt lat="49.44993" lon="1.31609">
        <ele>145</ele>
        <time>2023-03-14T16:11:42.153Z</time>
      </trkpt>
      <trkpt lat="49.44994" lon="1.31601">
        <ele>145</ele>
        <time>2023-03-14T16:11:46.203Z</time>
      </trkpt>
      <trkpt lat="49.44994" lon="1.31592">
        <ele>144</ele>
        <time>2023-03-14T16:11:50.848Z</time>
      </trkpt>
      <trkpt lat="49.44995" lon="1.31585">
        <ele>144</ele>
        <time>2023-03-14T16:11:55.296Z</time>
      </trkpt>
      <trkpt lat="49.44997" lon="1.31578">
        <ele>144</ele>
        <time>2023-03-14T16:11:59.423Z</time>
      </trkpt>
      <trkpt lat="49.44999" lon="1.3157">
        <ele>144</ele>
        <time>2023-03-14T16:12:03.948Z</time>
      </trkpt>
      <trkpt lat="49.45001" lon="1.3156">
        <ele>143</ele>
        <time>2023-03-14T16:12:08.474Z</time>
      </trkpt>
      <trkpt lat="49.45002" lon="1.31552">
        <ele>143</ele>
        <time>2023-03-14T16:12:13.074Z</time>
      </trkpt>
      <trkpt lat="49.45003" lon="1.31543">
        <ele>143</ele>
        <time>2023-03-14T16:12:17.442Z</time>
      </trkpt>
      <trkpt lat="49.45004" lon="1.31535">
        <ele>143</ele>
        <time>2023-03-14T16:12:21.932Z</time>
      </trkpt>
      <trkpt lat="49.45005" lon="1.31527">
        <ele>143</ele>
        <time>2023-03-14T16:12:25.863Z</time>
      </trkpt>
      <trkpt lat="49.45006" lon="1.31519">
        <ele>143</ele>
        <time>2023-03-14T16:12:29.912Z</time>
      </trkpt>
      <trkpt lat="49.45007" lon="1.31511">
        <ele>143</ele>
        <time>2023-03-14T16:12:34.438Z</time>
      </trkpt>
      <trkpt lat="49.45009" lon="1.31502">
        <ele>143</ele>
        <time>2023-03-14T16:12:39.202Z</time>
      </trkpt>
      <trkpt lat="49.45011" lon="1.31493">
        <ele>143</ele>
        <time>2023-03-14T16:12:43.846Z</time>
      </trkpt>
      <trkpt lat="49.45012" lon="1.31485">
        <ele>143</ele>
        <time>2023-03-14T16:12:48.442Z</time>
      </trkpt>
      <trkpt lat="49.45013" lon="1.31477">
        <ele>143</ele>
        <time>2023-03-14T16:12:52.422Z</time>
      </trkpt>
      <trkpt lat="49.45014" lon="1.31469">
        <ele>143</ele>
        <time>2023-03-14T16:12:56.590Z</time>
      </trkpt>
      <trkpt lat="49.45015" lon="1.31461">
        <ele>143</ele>
        <time>2023-03-14T16:13:00.639Z</time>
      </trkpt>
      <trkpt lat="49.45008" lon="1.31452">
        <ele>142</ele>
        <time>2023-03-14T16:15:18.303Z</time>
      </trkpt>
      <trkpt lat="49.45008" lon="1.31452">
        <ele>142</ele>
        <time>2023-03-14T16:15:22.303Z</time>
      </trkpt>
      <trkpt lat="49.45008" lon="1.31447">
        <ele>142</ele>
        <time>2023-03-14T16:15:27.298Z</time>
      </trkpt>
      <trkpt lat="49.45006" lon="1.31444">
        <ele>142</ele>
        <time>2023-03-14T16:15:31.338Z</time>
      </trkpt>
      <trkpt lat="49.45004" lon="1.31441">
        <ele>142</ele>
        <time>2023-03-14T16:15:35.387Z</time>
      </trkpt>
      <trkpt lat="49.45" lon="1.31437">
        <ele>142</ele>
        <time>2023-03-14T16:15:39.437Z</time>
      </trkpt>
      <trkpt lat="49.44999" lon="1.31432">
        <ele>142</ele>
        <time>2023-03-14T16:15:44.082Z</time>
      </trkpt>
      <trkpt lat="49.44998" lon="1.31428">
        <ele>140</ele>
        <time>2023-03-14T16:15:48.250Z</time>
      </trkpt>
      <trkpt lat="49.44998" lon="1.31423">
        <ele>140</ele>
        <time>2023-03-14T16:15:52.299Z</time>
      </trkpt>
      <trkpt lat="49.44996" lon="1.31417">
        <ele>140</ele>
        <time>2023-03-14T16:15:56.825Z</time>
      </trkpt>
      <trkpt lat="49.44994" lon="1.31412">
        <ele>140</ele>
        <time>2023-03-14T16:16:01.827Z</time>
      </trkpt>
      <trkpt lat="49.44991" lon="1.31407">
        <ele>140</ele>
        <time>2023-03-14T16:16:06.442Z</time>
      </trkpt>
      <trkpt lat="49.44989" lon="1.31403">
        <ele>140</ele>
        <time>2023-03-14T16:16:10.978Z</time>
      </trkpt>
      <trkpt lat="49.44987" lon="1.31401">
        <ele>138</ele>
        <time>2023-03-14T16:16:15.047Z</time>
      </trkpt>
      <trkpt lat="49.44984" lon="1.31398">
        <ele>138</ele>
        <time>2023-03-14T16:16:19.215Z</time>
      </trkpt>
      <trkpt lat="49.44981" lon="1.31395">
        <ele>138</ele>
        <time>2023-03-14T16:16:23.845Z</time>
      </trkpt>
      <trkpt lat="49.44978" lon="1.31394">
        <ele>138</ele>
        <time>2023-03-14T16:16:28.029Z</time>
      </trkpt>
      <trkpt lat="49.44973" lon="1.31392">
        <ele>138</ele>
        <time>2023-03-14T16:16:33.253Z</time>
      </trkpt>
      <trkpt lat="49.44969" lon="1.31388">
        <ele>138</ele>
        <time>2023-03-14T16:16:37.438Z</time>
      </trkpt>
      <trkpt lat="49.44965" lon="1.31386">
        <ele>138</ele>
        <time>2023-03-14T16:16:41.606Z</time>
      </trkpt>
      <trkpt lat="49.4496" lon="1.31383">
        <ele>138</ele>
        <time>2023-03-14T16:16:45.774Z</time>
      </trkpt>
      <trkpt lat="49.44956" lon="1.31382">
        <ele>139</ele>
        <time>2023-03-14T16:16:50.419Z</time>
      </trkpt>
      <trkpt lat="49.44953" lon="1.3138">
        <ele>139</ele>
        <time>2023-03-14T16:16:54.588Z</time>
      </trkpt>
      <trkpt lat="49.44948" lon="1.31378">
        <ele>139</ele>
        <time>2023-03-14T16:16:58.994Z</time>
      </trkpt>
      <trkpt lat="49.44943" lon="1.31376">
        <ele>139</ele>
        <time>2023-03-14T16:17:03.442Z</time>
      </trkpt>
      <trkpt lat="49.44939" lon="1.31374">
        <ele>135</ele>
        <time>2023-03-14T16:17:07.442Z</time>
      </trkpt>
      <trkpt lat="49.44934" lon="1.31372">
        <ele>135</ele>
        <time>2023-03-14T16:17:11.619Z</time>
      </trkpt>
      <trkpt lat="49.44929" lon="1.31369">
        <ele>134</ele>
        <time>2023-03-14T16:17:15.787Z</time>
      </trkpt>
      <trkpt lat="49.44925" lon="1.31367">
        <ele>134</ele>
        <time>2023-03-14T16:17:20.432Z</time>
      </trkpt>
      <trkpt lat="49.44922" lon="1.31365">
        <ele>134</ele>
        <time>2023-03-14T16:17:24.958Z</time>
      </trkpt>
      <trkpt lat="49.44921" lon="1.31362">
        <ele>134</ele>
        <time>2023-03-14T16:17:29.007Z</time>
      </trkpt>
      <trkpt lat="49.44918" lon="1.31363">
        <ele>134</ele>
        <time>2023-03-14T16:17:33.176Z</time>
      </trkpt>
      <trkpt lat="49.44914" lon="1.31357">
        <ele>134</ele>
        <time>2023-03-14T16:17:37.225Z</time>
      </trkpt>
      <trkpt lat="49.44908" lon="1.31355">
        <ele>134</ele>
        <time>2023-03-14T16:17:41.751Z</time>
      </trkpt>
      <trkpt lat="49.44903" lon="1.31356">
        <ele>134</ele>
        <time>2023-03-14T16:17:45.800Z</time>
      </trkpt>
      <trkpt lat="49.44899" lon="1.31352">
        <ele>132</ele>
        <time>2023-03-14T16:17:49.850Z</time>
      </trkpt>
      <trkpt lat="49.44893" lon="1.31348">
        <ele>132</ele>
        <time>2023-03-14T16:17:54.852Z</time>
      </trkpt>
      <trkpt lat="49.44888" lon="1.31344">
        <ele>130</ele>
        <time>2023-03-14T16:17:59.020Z</time>
      </trkpt>
      <trkpt lat="49.44883" lon="1.31341">
        <ele>130</ele>
        <time>2023-03-14T16:18:03.189Z</time>
      </trkpt>
      <trkpt lat="49.44877" lon="1.31338">
        <ele>130</ele>
        <time>2023-03-14T16:18:07.834Z</time>
      </trkpt>
      <trkpt lat="49.44871" lon="1.31336">
        <ele>129</ele>
        <time>2023-03-14T16:18:12.479Z</time>
      </trkpt>
      <trkpt lat="49.44865" lon="1.31334">
        <ele>129</ele>
        <time>2023-03-14T16:18:17.004Z</time>
      </trkpt>
      <trkpt lat="49.4486" lon="1.31333">
        <ele>129</ele>
        <time>2023-03-14T16:18:21.649Z</time>
      </trkpt>
      <trkpt lat="49.44855" lon="1.3133">
        <ele>129</ele>
        <time>2023-03-14T16:18:26.393Z</time>
      </trkpt>
      <trkpt lat="49.4485" lon="1.31329">
        <ele>129</ele>
        <time>2023-03-14T16:18:30.427Z</time>
      </trkpt>
      <trkpt lat="49.44844" lon="1.31325">
        <ele>128</ele>
        <time>2023-03-14T16:18:34.869Z</time>
      </trkpt>
      <trkpt lat="49.44839" lon="1.31323">
        <ele>128</ele>
        <time>2023-03-14T16:18:39.038Z</time>
      </trkpt>
      <trkpt lat="49.44834" lon="1.31321">
        <ele>128</ele>
        <time>2023-03-14T16:18:43.206Z</time>
      </trkpt>
      <trkpt lat="49.44829" lon="1.31318">
        <ele>126</ele>
        <time>2023-03-14T16:18:47.851Z</time>
      </trkpt>
      <trkpt lat="49.44824" lon="1.31316">
        <ele>126</ele>
        <time>2023-03-14T16:18:52.020Z</time>
      </trkpt>
      <trkpt lat="49.44818" lon="1.31312">
        <ele>127</ele>
        <time>2023-03-14T16:18:56.188Z</time>
      </trkpt>
      <trkpt lat="49.44813" lon="1.3131">
        <ele>127</ele>
        <time>2023-03-14T16:19:00.238Z</time>
      </trkpt>
      <trkpt lat="49.44808" lon="1.31306">
        <ele>127</ele>
        <time>2023-03-14T16:19:04.406Z</time>
      </trkpt>
      <trkpt lat="49.44803" lon="1.31303">
        <ele>127</ele>
        <time>2023-03-14T16:19:08.442Z</time>
      </trkpt>
      <trkpt lat="49.44798" lon="1.31299">
        <ele>127</ele>
        <time>2023-03-14T16:19:13.100Z</time>
      </trkpt>
      <trkpt lat="49.44793" lon="1.31297">
        <ele>127</ele>
        <time>2023-03-14T16:19:17.150Z</time>
      </trkpt>
      <trkpt lat="49.44788" lon="1.31295">
        <ele>128</ele>
        <time>2023-03-14T16:19:21.795Z</time>
      </trkpt>
      <trkpt lat="49.44783" lon="1.31292">
        <ele>128</ele>
        <time>2023-03-14T16:19:25.844Z</time>
      </trkpt>
      <trkpt lat="49.44778" lon="1.3129">
        <ele>126</ele>
        <time>2023-03-14T16:19:30.608Z</time>
      </trkpt>
      <trkpt lat="49.44773" lon="1.31289">
        <ele>126</ele>
        <time>2023-03-14T16:19:34.777Z</time>
      </trkpt>
      <trkpt lat="49.44768" lon="1.31287">
        <ele>126</ele>
        <time>2023-03-14T16:19:38.826Z</time>
      </trkpt>
      <trkpt lat="49.44762" lon="1.31286">
        <ele>126</ele>
        <time>2023-03-14T16:19:43.442Z</time>
      </trkpt>
      <trkpt lat="49.44756" lon="1.31284">
        <ele>126</ele>
        <time>2023-03-14T16:19:47.997Z</time>
      </trkpt>
      <trkpt lat="49.4475" lon="1.31283">
        <ele>126</ele>
        <time>2023-03-14T16:19:52.642Z</time>
      </trkpt>
      <trkpt lat="49.44744" lon="1.31281">
        <ele>126</ele>
        <time>2023-03-14T16:19:57.406Z</time>
      </trkpt>
      <trkpt lat="49.44739" lon="1.31278">
        <ele>126</ele>
        <time>2023-03-14T16:20:02.050Z</time>
      </trkpt>
      <trkpt lat="49.44733" lon="1.31276">
        <ele>128</ele>
        <time>2023-03-14T16:20:06.814Z</time>
      </trkpt>
      <trkpt lat="49.44729" lon="1.31275">
        <ele>128</ele>
        <time>2023-03-14T16:20:10.745Z</time>
      </trkpt>
      <trkpt lat="49.44724" lon="1.31273">
        <ele>128</ele>
        <time>2023-03-14T16:20:14.794Z</time>
      </trkpt>
      <trkpt lat="49.4472" lon="1.31272">
        <ele>128</ele>
        <time>2023-03-14T16:20:18.844Z</time>
      </trkpt>
      <trkpt lat="49.44715" lon="1.31271">
        <ele>128</ele>
        <time>2023-03-14T16:20:23.012Z</time>
      </trkpt>
      <trkpt lat="49.44709" lon="1.31269">
        <ele>128</ele>
        <time>2023-03-14T16:20:27.776Z</time>
      </trkpt>
      <trkpt lat="49.44704" lon="1.31268">
        <ele>129</ele>
        <time>2023-03-14T16:20:32.421Z</time>
      </trkpt>
      <trkpt lat="49.44698" lon="1.31266">
        <ele>129</ele>
        <time>2023-03-14T16:20:36.947Z</time>
      </trkpt>
      <trkpt lat="49.44692" lon="1.31265">
        <ele>129</ele>
        <time>2023-03-14T16:20:41.592Z</time>
      </trkpt>
      <trkpt lat="49.44687" lon="1.31263">
        <ele>126</ele>
        <time>2023-03-14T16:20:46.237Z</time>
      </trkpt>
      <trkpt lat="49.44681" lon="1.31263">
        <ele>126</ele>
        <time>2023-03-14T16:20:50.797Z</time>
      </trkpt>
      <trkpt lat="49.44675" lon="1.31261">
        <ele>125</ele>
        <time>2023-03-14T16:20:55.305Z</time>
      </trkpt>
      <trkpt lat="49.44669" lon="1.31259">
        <ele>125</ele>
        <time>2023-03-14T16:20:59.814Z</time>
      </trkpt>
      <trkpt lat="49.44664" lon="1.31258">
        <ele>125</ele>
        <time>2023-03-14T16:21:04.442Z</time>
      </trkpt>
      <trkpt lat="49.44658" lon="1.31255">
        <ele>125</ele>
        <time>2023-03-14T16:21:08.985Z</time>
      </trkpt>
      <trkpt lat="49.44653" lon="1.31253">
        <ele>125</ele>
        <time>2023-03-14T16:21:13.034Z</time>
      </trkpt>
      <trkpt lat="49.44648" lon="1.31252">
        <ele>125</ele>
        <time>2023-03-14T16:21:16.965Z</time>
      </trkpt>
      <trkpt lat="49.44642" lon="1.31252">
        <ele>125</ele>
        <time>2023-03-14T16:21:21.610Z</time>
      </trkpt>
      <trkpt lat="49.44637" lon="1.31253">
        <ele>125</ele>
        <time>2023-03-14T16:21:26.135Z</time>
      </trkpt>
      <trkpt lat="49.44631" lon="1.31254">
        <ele>125</ele>
        <time>2023-03-14T16:21:30.661Z</time>
      </trkpt>
      <trkpt lat="49.44626" lon="1.31254">
        <ele>125</ele>
        <time>2023-03-14T16:21:34.830Z</time>
      </trkpt>
      <trkpt lat="49.4462" lon="1.31255">
        <ele>124</ele>
        <time>2023-03-14T16:21:39.594Z</time>
      </trkpt>
      <trkpt lat="49.44614" lon="1.31256">
        <ele>124</ele>
        <time>2023-03-14T16:21:44.239Z</time>
      </trkpt>
      <trkpt lat="49.44609" lon="1.31258">
        <ele>124</ele>
        <time>2023-03-14T16:21:48.407Z</time>
      </trkpt>
      <trkpt lat="49.44604" lon="1.31258">
        <ele>124</ele>
        <time>2023-03-14T16:21:52.442Z</time>
      </trkpt>
      <trkpt lat="49.44599" lon="1.31258">
        <ele>124</ele>
        <time>2023-03-14T16:21:56.625Z</time>
      </trkpt>
      <trkpt lat="49.44595" lon="1.31256">
        <ele>122</ele>
        <time>2023-03-14T16:22:00.555Z</time>
      </trkpt>
      <trkpt lat="49.4459" lon="1.31253">
        <ele>122</ele>
        <time>2023-03-14T16:22:05.200Z</time>
      </trkpt>
      <trkpt lat="49.44586" lon="1.31249">
        <ele>122</ele>
        <time>2023-03-14T16:22:09.307Z</time>
      </trkpt>
      <trkpt lat="49.44581" lon="1.31246">
        <ele>122</ele>
        <time>2023-03-14T16:22:13.316Z</time>
      </trkpt>
      <trkpt lat="49.44576" lon="1.31242">
        <ele>122</ele>
        <time>2023-03-14T16:22:17.825Z</time>
      </trkpt>
      <trkpt lat="49.44571" lon="1.31238">
        <ele>122</ele>
        <time>2023-03-14T16:22:22.589Z</time>
      </trkpt>
      <trkpt lat="49.44566" lon="1.31234">
        <ele>123</ele>
        <time>2023-03-14T16:22:27.234Z</time>
      </trkpt>
      <trkpt lat="49.44561" lon="1.3123">
        <ele>123</ele>
        <time>2023-03-14T16:22:31.760Z</time>
      </trkpt>
      <trkpt lat="49.44557" lon="1.31227">
        <ele>123</ele>
        <time>2023-03-14T16:22:35.809Z</time>
      </trkpt>
      <trkpt lat="49.44552" lon="1.31222">
        <ele>123</ele>
        <time>2023-03-14T16:22:40.298Z</time>
      </trkpt>
      <trkpt lat="49.44547" lon="1.31219">
        <ele>123</ele>
        <time>2023-03-14T16:22:44.303Z</time>
      </trkpt>
      <trkpt lat="49.44543" lon="1.31216">
        <ele>123</ele>
        <time>2023-03-14T16:22:48.434Z</time>
      </trkpt>
      <trkpt lat="49.44538" lon="1.31212">
        <ele>124</ele>
        <time>2023-03-14T16:22:52.611Z</time>
      </trkpt>
      <trkpt lat="49.44534" lon="1.31209">
        <ele>124</ele>
        <time>2023-03-14T16:22:56.623Z</time>
      </trkpt>
      <trkpt lat="49.4453" lon="1.31206">
        <ele>125</ele>
        <time>2023-03-14T16:23:00.582Z</time>
      </trkpt>
      <trkpt lat="49.44526" lon="1.31203">
        <ele>125</ele>
        <time>2023-03-14T16:23:04.632Z</time>
      </trkpt>
      <trkpt lat="49.44522" lon="1.31199">
        <ele>125</ele>
        <time>2023-03-14T16:23:08.800Z</time>
      </trkpt>
      <trkpt lat="49.44517" lon="1.31194">
        <ele>125</ele>
        <time>2023-03-14T16:23:13.442Z</time>
      </trkpt>
      <trkpt lat="49.44515" lon="1.31191">
        <ele>125</ele>
        <time>2023-03-14T16:23:18.209Z</time>
      </trkpt>
      <trkpt lat="49.4451" lon="1.31189">
        <ele>127</ele>
        <time>2023-03-14T16:23:22.297Z</time>
      </trkpt>
      <trkpt lat="49.44506" lon="1.31186">
        <ele>127</ele>
        <time>2023-03-14T16:23:26.312Z</time>
      </trkpt>
      <trkpt lat="49.44502" lon="1.31184">
        <ele>127</ele>
        <time>2023-03-14T16:23:30.834Z</time>
      </trkpt>
      <trkpt lat="49.44498" lon="1.31182">
        <ele>127</ele>
        <time>2023-03-14T16:23:35.003Z</time>
      </trkpt>
      <trkpt lat="49.44493" lon="1.3118">
        <ele>130</ele>
        <time>2023-03-14T16:23:39.528Z</time>
      </trkpt>
      <trkpt lat="49.4449" lon="1.31175">
        <ele>130</ele>
        <time>2023-03-14T16:23:44.054Z</time>
      </trkpt>
      <trkpt lat="49.44486" lon="1.31172">
        <ele>130</ele>
        <time>2023-03-14T16:23:48.223Z</time>
      </trkpt>
      <trkpt lat="49.44483" lon="1.31169">
        <ele>136</ele>
        <time>2023-03-14T16:23:52.153Z</time>
      </trkpt>
      <trkpt lat="49.4448" lon="1.31166">
        <ele>136</ele>
        <time>2023-03-14T16:23:56.203Z</time>
      </trkpt>
      <trkpt lat="49.44476" lon="1.31162">
        <ele>136</ele>
        <time>2023-03-14T16:24:00.862Z</time>
      </trkpt>
      <trkpt lat="49.44471" lon="1.31161">
        <ele>136</ele>
        <time>2023-03-14T16:24:04.778Z</time>
      </trkpt>
      <trkpt lat="49.44467" lon="1.31158">
        <ele>136</ele>
        <time>2023-03-14T16:24:09.423Z</time>
      </trkpt>
      <trkpt lat="49.44464" lon="1.31156">
        <ele>136</ele>
        <time>2023-03-14T16:24:13.591Z</time>
      </trkpt>
      <trkpt lat="49.4446" lon="1.31153">
        <ele>139</ele>
        <time>2023-03-14T16:24:17.641Z</time>
      </trkpt>
      <trkpt lat="49.44457" lon="1.31149">
        <ele>143</ele>
        <time>2023-03-14T16:24:21.809Z</time>
      </trkpt>
      <trkpt lat="49.44453" lon="1.31144">
        <ele>143</ele>
        <time>2023-03-14T16:24:26.297Z</time>
      </trkpt>
      <trkpt lat="49.4445" lon="1.31138">
        <ele>143</ele>
        <time>2023-03-14T16:24:30.861Z</time>
      </trkpt>
      <trkpt lat="49.44445" lon="1.31135">
        <ele>143</ele>
        <time>2023-03-14T16:24:35.442Z</time>
      </trkpt>
      <trkpt lat="49.44442" lon="1.31132">
        <ele>143</ele>
        <time>2023-03-14T16:24:39.436Z</time>
      </trkpt>
      <trkpt lat="49.44439" lon="1.3113">
        <ele>143</ele>
        <time>2023-03-14T16:24:43.442Z</time>
      </trkpt>
      <trkpt lat="49.44436" lon="1.31129">
        <ele>143</ele>
        <time>2023-03-14T16:24:47.416Z</time>
      </trkpt>
      <trkpt lat="49.44432" lon="1.31128">
        <ele>143</ele>
        <time>2023-03-14T16:24:51.442Z</time>
      </trkpt>
      <trkpt lat="49.44427" lon="1.31128">
        <ele>143</ele>
        <time>2023-03-14T16:24:55.991Z</time>
      </trkpt>
      <trkpt lat="49.44423" lon="1.31129">
        <ele>143</ele>
        <time>2023-03-14T16:25:00.041Z</time>
      </trkpt>
      <trkpt lat="49.44418" lon="1.31127">
        <ele>143</ele>
        <time>2023-03-14T16:25:04.209Z</time>
      </trkpt>
      <trkpt lat="49.44412" lon="1.31124">
        <ele>143</ele>
        <time>2023-03-14T16:25:08.854Z</time>
      </trkpt>
      <trkpt lat="49.44408" lon="1.31122">
        <ele>143</ele>
        <time>2023-03-14T16:25:12.904Z</time>
      </trkpt>
      <trkpt lat="49.44403" lon="1.31121">
        <ele>143</ele>
        <time>2023-03-14T16:25:17.430Z</time>
      </trkpt>
      <trkpt lat="49.44398" lon="1.3112">
        <ele>143</ele>
        <time>2023-03-14T16:25:21.955Z</time>
      </trkpt>
      <trkpt lat="49.44394" lon="1.3112">
        <ele>143</ele>
        <time>2023-03-14T16:25:26.005Z</time>
      </trkpt>
      <trkpt lat="49.44389" lon="1.3112">
        <ele>143</ele>
        <time>2023-03-14T16:25:30.650Z</time>
      </trkpt>
      <trkpt lat="49.44384" lon="1.31119">
        <ele>143</ele>
        <time>2023-03-14T16:25:35.176Z</time>
      </trkpt>
      <trkpt lat="49.44379" lon="1.31118">
        <ele>143</ele>
        <time>2023-03-14T16:25:39.821Z</time>
      </trkpt>
      <trkpt lat="49.44374" lon="1.31118">
        <ele>144</ele>
        <time>2023-03-14T16:25:43.870Z</time>
      </trkpt>
      <trkpt lat="49.4437" lon="1.31118">
        <ele>144</ele>
        <time>2023-03-14T16:25:48.396Z</time>
      </trkpt>
      <trkpt lat="49.44365" lon="1.31121">
        <ele>144</ele>
        <time>2023-03-14T16:25:53.041Z</time>
      </trkpt>
      <trkpt lat="49.44363" lon="1.31123">
        <ele>144</ele>
        <time>2023-03-14T16:25:54.827Z</time>
      </trkpt>
      <trkpt lat="49.44358" lon="1.31123">
        <ele>144</ele>
        <time>2023-03-14T16:25:59.949Z</time>
      </trkpt>
      <trkpt lat="49.44354" lon="1.31119">
        <ele>144</ele>
        <time>2023-03-14T16:26:04.594Z</time>
      </trkpt>
      <trkpt lat="49.44351" lon="1.31114">
        <ele>144</ele>
        <time>2023-03-14T16:26:08.644Z</time>
      </trkpt>
      <trkpt lat="49.44347" lon="1.31111">
        <ele>146</ele>
        <time>2023-03-14T16:26:13.296Z</time>
      </trkpt>
      <trkpt lat="49.44343" lon="1.31109">
        <ele>146</ele>
        <time>2023-03-14T16:26:17.442Z</time>
      </trkpt>
      <trkpt lat="49.44339" lon="1.31105">
        <ele>146</ele>
        <time>2023-03-14T16:26:21.627Z</time>
      </trkpt>
      <trkpt lat="49.44334" lon="1.31102">
        <ele>146</ele>
        <time>2023-03-14T16:26:25.796Z</time>
      </trkpt>
      <trkpt lat="49.44329" lon="1.31099">
        <ele>146</ele>
        <time>2023-03-14T16:26:30.799Z</time>
      </trkpt>
      <trkpt lat="49.44325" lon="1.31096">
        <ele>146</ele>
        <time>2023-03-14T16:26:35.442Z</time>
      </trkpt>
      <trkpt lat="49.44322" lon="1.31095">
        <ele>146</ele>
        <time>2023-03-14T16:26:39.614Z</time>
      </trkpt>
      <trkpt lat="49.44317" lon="1.31093">
        <ele>147</ele>
        <time>2023-03-14T16:26:44.140Z</time>
      </trkpt>
      <trkpt lat="49.44313" lon="1.31092">
        <ele>147</ele>
        <time>2023-03-14T16:26:48.548Z</time>
      </trkpt>
      <trkpt lat="49.44309" lon="1.31089">
        <ele>147</ele>
        <time>2023-03-14T16:26:53.194Z</time>
      </trkpt>
      <trkpt lat="49.44305" lon="1.31086">
        <ele>147</ele>
        <time>2023-03-14T16:26:57.244Z</time>
      </trkpt>
      <trkpt lat="49.44301" lon="1.31084">
        <ele>147</ele>
        <time>2023-03-14T16:27:01.890Z</time>
      </trkpt>
      <trkpt lat="49.44297" lon="1.31082">
        <ele>147</ele>
        <time>2023-03-14T16:27:05.821Z</time>
      </trkpt>
      <trkpt lat="49.44293" lon="1.3108">
        <ele>147</ele>
        <time>2023-03-14T16:27:11.062Z</time>
      </trkpt>
      <trkpt lat="49.44288" lon="1.31078">
        <ele>146</ele>
        <time>2023-03-14T16:27:15.827Z</time>
      </trkpt>
      <trkpt lat="49.44284" lon="1.31076">
        <ele>146</ele>
        <time>2023-03-14T16:27:20.840Z</time>
      </trkpt>
      <trkpt lat="49.4428" lon="1.31075">
        <ele>146</ele>
        <time>2023-03-14T16:27:25.293Z</time>
      </trkpt>
      <trkpt lat="49.44275" lon="1.31075">
        <ele>146</ele>
        <time>2023-03-14T16:27:29.884Z</time>
      </trkpt>
      <trkpt lat="49.44272" lon="1.31073">
        <ele>146</ele>
        <time>2023-03-14T16:27:34.411Z</time>
      </trkpt>
      <trkpt lat="49.44268" lon="1.31073">
        <ele>146</ele>
        <time>2023-03-14T16:27:38.442Z</time>
      </trkpt>
      <trkpt lat="49.44266" lon="1.31069">
        <ele>146</ele>
        <time>2023-03-14T16:27:43.107Z</time>
      </trkpt>
      <trkpt lat="49.44264" lon="1.31065">
        <ele>145</ele>
        <time>2023-03-14T16:27:48.306Z</time>
      </trkpt>
    </trkseg>
  </trk>
</gpx>